GFSGL_sfc_thetae_000.txt.gz
Theta_e
296 295 294 294 294 294 294 295 295 296 296 296 297 297 297 296 296 295 296 297 298 298 298 299 299 300 299 301 305 307 307 306 302 309 312 318 321 321 322 321 324 325 327
296 294 294 294 294 293 293 294 295 295 296 296 296 297 297 296 296 295 296 298 297 298 299 299 299 302 302 304 307 307 307 308 309 306 311 313 319 319 318 316 321 323 324
294 293 293 293 293 293 294 294 295 295 295 296 296 295 296 297 297 296 297 297 298 299 300 299 302 303 304 305 306 308 309 311 311 309 310 315 318 317 315 315 317 319 322
294 293 293 293 293 294 294 294 295 295 295 295 295 296 297 297 297 297 297 297 299 300 301 302 301 303 304 307 307 308 310 311 311 309 308 316 315 315 315 313 313 318 317
293 293 293 293 294 294 294 294 295 295 295 295 296 296 296 297 297 296 297 298 299 299 301 300 303 306 310 312 312 310 311 310 310 309 308 315 313 313 312 315 313 318 318
292 292 293 294 293 293 294 294 294 294 294 295 295 295 295 297 303 305 303 298 299 300 299 300 302 306 307 312 315 317 315 310 309 309 309 313 313 314 314 315 315 316 313
292 292 292 293 293 293 294 293 293 292 293 293 294 294 294 295 303 303 305 299 298 299 300 300 302 304 307 307 313 317 319 318 315 311 311 316 314 317 315 317 316 316 314
291 291 292 292 292 293 293 292 292 292 292 293 294 294 294 296 303 303 304 298 297 300 300 301 303 303 305 307 311 314 315 316 317 316 313 316 319 320 318 320 318 318 318
291 291 292 292 292 292 292 291 292 292 292 293 294 294 294 295 302 303 303 296 297 299 301 303 303 303 307 310 309 310 313 315 320 320 318 318 322 322 321 321 318 317 314
292 292 292 292 292 292 292 291 292 292 293 294 295 295 298 295 301 303 303 297 296 298 300 301 304 304 308 310 308 310 311 315 316 317 317 318 323 323 322 322 320 316 314
293 293 293 293 292 292 292 292 291 291 292 293 293 294 294 295 296 301 302 298 297 297 297 299 301 305 307 309 313 313 314 317 316 314 316 321 321 322 322 323 322 319 315
293 293 292 292 294 294 291 291 291 291 290 291 291 291 293 294 299 299 302 302 302 297 297 299 301 305 309 312 312 316 317 319 318 316 318 320 320 320 321 322 321 321 320
292 291 291 292 292 292 290 289 290 290 291 291 291 291 292 294 295 300 300 301 301 298 298 301 304 306 308 310 312 313 316 319 317 315 316 319 321 322 323 322 320 320 314
290 290 291 290 291 291 292 291 290 290 290 292 293 292 292 293 294 295 295 297 299 298 300 300 303 305 306 308 309 310 316 319 317 316 318 320 322 322 321 320 314 314 314
290 290 290 291 290 290 291 290 291 290 292 291 293 293 292 292 295 298 297 296 297 298 300 301 301 300 300 302 305 307 311 319 316 319 319 319 320 320 319 317 314 312 310
290 290 290 290 290 290 290 290 298 298 299 299 299 297 295 298 299 299 299 301 301 302 299 298 298 298 298 300 302 304 308 317 320 320 320 319 319 318 316 313 312 311 309
290 290 290 292 290 290 290 289 288 293 299 299 299 299 299 299 300 299 299 300 301 301 297 297 297 297 297 299 300 303 305 310 321 321 320 319 318 317 314 312 312 310 309
291 297 291 291 290 290 290 289 290 290 290 291 296 298 299 301 299 299 300 299 295 298 297 297 296 297 297 297 299 301 305 309 319 320 319 319 318 315 314 312 311 310 309
291 291 291 291 291 292 290 290 291 291 291 291 293 295 298 299 298 298 298 293 293 295 296 297 297 297 297 298 299 301 305 308 315 318 318 318 317 315 314 313 312 309 310
291 296 295 291 292 290 290 290 290 291 289 290 291 293 293 295 293 293 293 293 294 294 296 297 297 297 297 298 299 301 304 308 316 318 317 316 316 315 314 313 311 310 310
291 291 293 290 291 293 291 293 293 290 290 290 290 293 297 294 293 292 292 293 293 294 295 297 297 297 297 298 299 300 303 305 309 317 316 315 316 314 315 314 312 312 310
289 290 291 293 294 293 291 291 292 291 291 291 292 293 295 293 293 292 292 293 294 296 296 298 298 298 298 298 299 300 302 303 304 318 317 316 316 316 316 314 312 311 310
292 293 293 292 292 292 291 291 291 291 290 290 291 292 292 293 293 293 292 294 295 296 296 298 298 298 299 299 300 302 301 302 302 307 318 316 317 317 316 313 312 311 310
294 292 291 291 291 290 290 290 290 291 291 291 291 291 292 293 293 294 294 295 295 295 297 298 298 298 299 299 300 302 302 300 300 305 320 318 317 315 316 314 312 312 311
292 291 290 290 289 289 289 289 289 290 290 291 291 292 292 293 293 294 295 295 296 294 296 298 298 298 299 298 299 299 298 295 298 299 320 319 318 318 315 314 313 313 311
291 291 290 290 287 289 289 289 289 289 290 291 292 292 292 293 291 294 294 296 296 294 296 297 298 298 298 297 298 296 296 296 299 299 318 319 318 316 315 313 312 311 310

GFSGL_sfc_thetae_003.txt.gz
Theta_e
296 294 293 292 293 292 292 292 293 294 294 295 295 295 295 295 295 294 293 294 295 296 297 298 299 300 300 300 301 301 300 300 298 301 307 308 309 311 325 328 327 328 330
296 294 292 293 293 291 291 292 293 293 294 294 295 295 295 295 294 294 294 295 295 295 297 297 299 301 300 301 301 301 302 303 303 302 306 308 310 313 321 324 326 327 328
294 292 292 292 291 291 291 292 293 293 293 294 295 294 294 295 295 295 295 295 295 296 297 297 299 300 299 300 301 303 305 308 307 305 304 307 312 314 320 322 324 324 326
293 291 291 290 291 291 292 292 293 293 293 293 293 294 295 295 296 296 296 295 295 297 298 299 300 301 299 300 304 305 307 306 307 307 306 307 311 314 319 318 318 321 321
292 291 291 291 292 292 292 292 292 293 293 293 293 294 294 295 296 296 296 296 296 296 298 300 301 303 306 307 307 307 309 307 306 307 307 309 309 309 314 317 315 316 318
291 291 292 292 292 291 291 292 292 292 291 292 292 293 293 296 302 304 303 298 298 298 296 298 301 303 304 309 309 312 312 308 308 308 308 308 309 313 315 314 314 312 312
291 291 291 291 291 291 292 291 291 290 290 291 291 292 292 294 302 304 304 300 297 297 296 298 299 302 304 303 307 311 312 316 315 311 309 308 309 313 315 312 314 313 312
290 290 290 290 290 291 290 290 290 290 290 290 291 291 292 294 303 304 304 299 298 296 297 298 300 301 300 303 305 306 308 311 315 315 312 312 311 316 317 315 316 314 314
289 289 290 290 290 290 290 289 290 290 290 290 291 291 291 293 301 303 300 297 296 296 297 300 300 300 303 307 306 305 306 309 316 319 317 316 316 317 319 317 315 312 311
290 291 291 290 290 290 290 289 289 290 290 291 291 291 295 293 298 301 299 295 294 295 299 299 302 301 305 307 305 306 306 310 315 316 316 316 317 317 320 319 317 313 311
292 292 291 291 290 290 290 289 289 289 289 289 290 291 291 292 293 300 301 297 295 297 296 296 298 302 305 307 310 309 311 315 316 316 316 315 315 316 320 321 320 316 312
292 291 290 290 292 293 289 288 288 288 287 288 289 289 290 291 297 298 300 301 300 295 295 296 298 302 305 307 307 310 313 315 317 316 315 314 314 318 319 321 321 319 318
290 290 290 291 290 290 288 288 287 287 288 288 289 289 291 293 293 298 300 299 299 297 297 299 302 304 305 305 306 308 311 314 316 314 312 314 317 320 321 321 321 320 317
289 288 289 288 289 289 289 289 287 287 287 289 289 289 290 292 292 293 295 296 299 297 298 298 301 303 303 303 303 304 307 310 316 313 313 317 321 320 320 321 319 317 314
289 288 288 289 288 288 288 288 288 288 290 288 289 290 292 291 293 297 297 297 297 297 299 298 299 298 297 299 299 301 303 308 317 317 316 318 319 319 320 321 318 316 313
289 288 288 288 288 288 288 288 295 298 299 300 300 297 296 299 300 300 301 299 300 300 298 296 296 296 296 297 297 298 301 304 311 317 317 319 319 319 319 318 317 315 312
289 289 288 291 288 288 288 287 287 290 297 298 298 299 299 299 301 302 300 300 299 299 294 295 296 297 296 296 297 298 298 302 308 316 318 320 320 320 317 315 314 314 311
290 296 290 289 288 288 288 288 288 287 287 289 295 297 298 299 300 301 300 298 292 294 293 294 295 297 296 296 297 297 299 302 307 318 318 320 320 319 315 313 313 311 309
291 290 289 289 289 290 289 288 288 288 288 289 289 293 296 298 298 299 299 291 290 291 292 294 296 297 296 296 297 298 300 302 307 313 319 320 320 317 313 313 312 309 309
291 294 293 289 289 289 289 289 288 290 291 291 289 289 291 292 290 292 291 291 290 291 293 294 296 297 296 296 297 298 299 302 307 314 320 320 319 317 313 312 311 309 309
290 289 292 288 288 289 292 293 290 288 290 290 289 291 296 293 289 291 291 292 292 292 293 294 296 297 297 297 297 298 299 301 304 306 320 320 318 316 314 313 311 311 309
289 289 289 289 293 293 291 292 291 290 291 290 289 291 294 292 292 293 293 293 291 294 294 295 296 298 298 298 298 298 299 300 301 304 314 318 317 316 314 312 311 311 310
290 293 293 292 292 292 291 291 291 291 290 291 291 291 292 292 291 293 294 295 294 295 295 295 297 297 298 299 299 299 299 300 300 301 303 317 316 315 313 311 311 310 309
293 292 291 290 290 290 290 289 290 290 289 291 291 292 289 291 292 293 294 295 295 296 294 295 297 297 297 298 298 299 300 301 299 300 305 317 315 313 313 311 311 310 309
291 290 289 289 289 286 287 289 289 289 288 288 290 292 292 292 293 293 293 295 296 296 293 295 297 297 297 297 297 298 298 295 297 297 302 313 316 315 313 312 311 310 310
291 290 290 289 289 289 289 289 289 289 287 290 291 291 292 292 292 292 294 295 295 295 294 295 296 297 297 297 297 296 296 296 298 297 303 318 317 315 313 312 311 311 310

GFSGL_sfc_thetae_006.txt.gz
Theta_e
296 295 293 292 291 291 291 292 292 292 292 293 294 294 294 293 293 292 292 293 292 293 294 295 296 297 297 298 300 300 299 298 294 298 300 303 305 307 309 312 314 321 330
297 295 294 292 291 290 291 291 291 291 292 293 293 293 293 293 293 292 292 293 293 293 294 294 295 298 297 299 300 300 299 299 298 297 300 302 305 308 309 312 314 328 330
296 295 293 291 291 290 290 290 291 291 291 292 293 292 293 293 293 293 293 294 294 294 294 294 295 296 296 298 300 299 300 302 302 301 301 306 306 307 307 312 313 327 329
296 294 292 291 291 290 290 291 291 291 291 291 292 292 293 293 294 294 294 293 294 295 295 296 297 297 297 299 301 301 302 304 305 304 303 305 306 307 309 311 315 325 325
295 293 292 291 290 291 291 291 291 291 291 291 291 292 292 293 295 294 295 295 294 295 296 297 298 300 305 305 302 302 302 303 305 304 305 305 305 304 305 310 318 322 324
294 292 292 291 290 290 290 290 290 290 290 290 291 291 291 294 300 302 302 297 296 296 296 297 297 301 302 306 306 307 306 306 306 305 305 304 304 307 310 309 316 318 316
292 292 291 291 291 290 290 290 289 289 289 289 289 290 290 290 300 303 303 298 298 297 298 296 296 299 302 301 304 306 308 310 312 310 306 307 307 310 311 311 316 318 317
291 291 291 290 290 290 289 288 288 288 288 289 289 290 289 291 301 302 302 294 293 294 295 296 296 298 300 300 300 303 304 306 308 312 310 312 313 313 313 318 318 319 318
290 290 290 290 289 289 288 288 288 288 288 288 289 289 288 289 299 302 299 293 293 293 295 296 297 298 302 304 302 302 304 306 312 315 316 316 316 316 315 317 316 313 312
290 290 290 289 289 288 288 288 288 288 289 290 290 289 292 291 297 300 299 294 293 295 297 296 300 299 303 305 303 303 303 305 311 314 315 315 316 316 317 317 316 313 312
291 291 290 289 289 289 288 288 288 288 288 287 288 288 289 291 291 299 300 295 295 295 295 295 296 301 303 305 306 303 304 308 309 312 315 314 315 314 315 318 318 315 312
291 291 289 289 291 291 288 288 287 287 286 286 286 288 290 290 296 298 300 300 300 295 295 295 295 301 303 305 303 306 307 307 308 312 313 313 313 313 314 318 319 318 316
290 289 288 289 289 289 287 287 286 286 286 286 287 288 289 290 290 297 299 300 301 297 297 298 300 302 304 302 303 305 305 302 303 304 312 313 314 315 317 319 319 318 316
289 288 288 288 288 288 288 288 286 286 286 287 288 288 288 289 289 291 293 295 299 299 297 295 300 301 303 301 300 300 301 301 302 304 313 315 316 315 317 319 317 315 312
288 288 288 288 290 289 288 287 287 287 288 287 287 288 288 289 292 298 299 298 298 296 297 295 296 296 297 298 297 298 300 300 301 311 314 314 315 316 317 319 318 314 311
289 288 288 288 288 288 287 288 294 296 297 298 298 296 293 298 300 300 301 301 300 299 294 292 292 294 295 297 295 296 298 299 300 303 314 314 316 316 316 318 317 314 310
289 289 289 291 289 287 287 286 286 290 295 296 298 298 299 298 299 299 300 300 300 297 290 290 292 294 295 297 295 296 296 298 301 303 311 315 316 318 317 317 315 314 310
290 295 289 289 288 288 287 287 287 286 286 287 293 296 297 298 298 298 299 298 290 291 289 290 291 294 296 296 295 296 297 298 300 303 306 317 317 318 317 315 315 313 310
291 291 290 289 289 289 288 287 287 287 287 288 292 293 294 296 297 297 297 290 288 288 289 290 292 294 296 297 296 296 297 298 300 303 308 317 319 319 317 316 315 311 310
292 295 292 290 289 288 287 287 287 289 290 290 290 288 289 290 289 289 290 290 288 288 289 290 292 295 296 297 296 296 297 298 300 302 304 318 320 319 316 315 315 310 310
291 291 293 289 289 288 289 292 292 291 290 291 289 290 294 291 288 288 289 290 292 289 291 293 292 295 297 298 296 297 297 298 300 301 302 310 319 316 317 316 313 311 310
289 289 290 290 291 291 290 292 291 290 290 290 289 289 294 292 291 290 291 293 294 294 294 294 293 295 297 297 297 297 296 297 299 300 300 302 318 316 315 314 311 310 309
290 291 291 290 291 291 290 290 290 290 290 288 290 291 291 289 288 289 292 294 294 295 295 295 294 295 298 298 298 298 296 297 299 300 299 301 311 315 314 312 310 309 308
292 290 289 289 289 289 288 287 289 290 290 288 288 290 291 290 290 290 294 293 294 295 296 295 295 296 297 297 298 298 298 299 299 299 300 301 307 312 313 312 311 309 308
290 289 289 288 289 288 288 287 288 289 289 288 287 289 290 290 290 291 292 293 294 295 295 295 295 296 296 296 297 297 297 294 296 296 300 303 308 314 313 312 311 310 308
290 290 289 289 289 288 288 288 289 289 288 288 289 289 288 289 289 291 293 294 294 295 295 293 294 295 296 296 296 295 294 295 296 296 297 304 313 313 312 312 310 309 308

GFSGL_sfc_thetae_009.txt.gz
Theta_e
295 295 295 294 293 292 291 292 292 292 292 292 292 292 293 292 292 291 290 291 291 291 292 292 293 294 294 295 296 296 296 298 294 297 298 300 300 301 302 306 310 311 312
295 295 294 294 292 290 290 290 291 291 292 292 292 292 292 292 291 290 290 291 291 291 292 292 293 296 294 295 296 296 297 299 297 295 297 298 300 303 304 305 310 314 315
295 294 294 293 291 290 290 290 290 290 291 291 292 291 291 292 291 291 291 291 291 292 293 293 293 294 294 295 295 296 298 300 301 299 298 302 303 305 304 308 310 311 314
295 294 293 292 292 291 291 290 290 290 290 290 290 291 291 292 292 292 292 291 292 293 294 295 295 295 295 295 296 298 301 301 300 299 300 302 302 305 306 304 306 310 313
295 294 294 293 292 291 290 290 290 290 290 290 290 291 291 291 293 292 292 293 293 294 295 296 296 299 305 303 300 300 300 299 299 299 302 303 302 304 303 306 307 310 317
295 294 294 292 291 291 290 290 289 289 289 289 289 290 290 293 299 301 300 295 295 294 295 295 296 300 299 304 305 305 303 301 301 302 304 303 303 301 305 305 306 306 316
295 294 292 292 291 290 290 289 289 288 288 288 288 289 289 289 299 301 302 295 293 292 292 293 294 297 299 298 302 304 304 308 308 306 305 306 303 306 307 308 308 307 319
294 292 292 292 291 290 289 288 287 287 288 287 288 288 288 290 300 301 302 294 292 292 293 293 294 294 296 299 298 300 302 303 306 308 309 310 307 312 312 312 312 311 321
292 291 291 291 290 289 288 287 287 287 287 287 288 288 287 288 298 301 299 292 292 292 293 294 294 295 300 303 300 300 302 302 307 311 312 315 315 315 314 313 312 315 315
291 291 291 291 290 289 288 287 287 287 288 289 289 288 291 289 296 300 298 293 290 292 295 295 300 298 301 303 300 302 298 300 304 305 307 315 315 315 316 314 315 316 315
292 291 290 290 289 289 287 287 287 287 287 287 287 287 287 289 290 299 300 293 294 295 295 295 296 300 302 303 304 301 301 305 304 303 308 313 313 314 315 316 317 319 315
290 290 289 288 290 290 287 287 287 286 285 285 285 286 288 289 295 297 299 299 298 294 295 296 296 300 302 303 303 304 305 304 301 302 304 310 311 312 314 316 318 320 319
290 289 288 288 289 288 287 287 286 285 285 285 285 285 287 289 289 297 299 300 301 298 298 299 300 301 302 301 303 304 303 300 300 300 300 303 313 315 314 317 318 319 313
289 288 288 288 288 288 289 288 286 286 285 285 286 286 287 288 289 290 291 292 297 298 298 293 298 299 300 300 300 300 299 299 299 300 301 303 314 314 313 317 315 314 310
289 288 289 290 290 288 288 287 287 287 288 286 286 287 287 288 290 296 297 296 295 295 296 293 292 292 293 295 298 298 298 298 298 300 300 306 313 313 313 317 315 312 309
289 289 290 289 290 289 288 288 295 296 298 298 298 295 292 297 299 299 299 300 300 301 292 289 289 290 291 294 296 296 296 297 298 299 300 307 313 313 314 316 315 311 309
290 289 290 290 289 289 289 288 287 290 295 296 297 297 297 298 298 298 298 299 299 297 288 288 288 290 291 294 296 296 295 297 299 299 300 304 314 314 314 315 313 311 308
291 295 291 290 290 289 289 288 288 287 285 286 293 295 297 297 297 297 298 297 289 290 287 287 288 290 291 294 296 296 295 297 297 299 301 306 314 315 315 315 313 310 309
292 291 291 291 290 290 289 288 287 287 286 287 288 292 293 295 296 297 296 289 287 287 287 287 289 290 291 295 297 296 296 296 297 298 301 303 310 315 315 315 314 310 309
292 294 292 291 291 289 288 288 287 287 288 291 290 289 288 288 287 288 289 288 288 288 288 288 289 290 292 295 297 296 296 296 296 298 300 302 303 316 316 315 313 310 309
293 293 293 290 289 289 289 290 291 288 289 288 291 292 294 289 288 289 287 288 289 293 292 292 291 290 293 295 297 296 295 296 296 297 299 300 301 315 317 317 313 311 308
289 289 290 290 291 291 290 290 288 287 287 289 290 290 293 292 291 289 288 289 291 293 294 294 294 291 293 295 297 296 295 295 296 297 298 299 300 306 317 316 313 311 309
290 291 291 290 290 290 289 288 288 288 289 289 287 288 289 290 288 288 289 291 291 292 293 295 294 292 294 296 298 298 296 296 297 298 297 298 299 302 317 314 312 310 309
292 290 289 288 289 288 287 285 285 288 287 289 288 287 287 289 291 289 289 290 291 292 294 293 294 292 294 296 297 297 298 298 298 297 298 297 298 301 315 313 312 310 308
290 289 288 288 288 287 287 286 286 286 288 289 287 287 287 287 289 289 289 290 292 293 293 294 295 292 295 296 296 296 296 294 295 295 297 298 300 303 314 312 311 309 307
289 289 289 288 288 288 286 285 287 288 288 289 288 286 290 290 287 288 289 290 293 292 293 295 293 293 294 296 296 295 294 294 295 295 296 299 303 307 314 312 310 308 307

GFSGL_sfc_thetae_012.txt.gz
Theta_e
295 295 295 294 294 293 293 293 292 292 292 292 292 292 292 292 291 290 289 290 289 290 290 290 291 292 292 293 293 294 294 294 292 294 297 300 301 301 301 302 304 303 304
296 295 294 294 293 292 292 292 292 292 292 292 292 291 292 292 291 290 289 290 289 289 290 291 291 294 292 293 293 293 294 295 294 293 297 299 300 302 302 302 303 305 308
295 294 294 293 293 292 292 291 291 290 290 291 291 291 291 291 290 290 290 290 290 290 291 291 292 293 292 293 293 294 295 296 296 296 297 300 301 302 302 303 303 303 308
294 294 293 292 293 292 292 290 290 290 289 290 290 291 291 291 291 291 291 290 290 292 293 293 293 293 293 294 294 295 296 296 299 298 297 299 301 304 304 302 302 305 306
294 293 293 293 293 292 291 290 290 289 290 290 289 290 290 291 292 290 291 291 291 292 293 294 295 297 303 301 298 297 297 296 297 298 297 299 300 302 301 304 303 305 307
294 293 294 293 292 291 291 290 289 289 289 289 288 289 289 292 298 301 299 293 293 293 292 293 294 298 297 303 304 304 302 298 298 298 300 299 302 304 305 305 303 304 303
294 294 293 293 292 291 291 290 289 288 287 288 288 288 288 288 299 301 301 294 293 291 290 291 292 296 298 295 300 303 303 304 306 304 301 301 304 306 306 305 305 306 307
294 294 293 293 292 291 290 289 287 287 287 287 287 288 288 290 299 301 301 293 291 291 291 291 291 293 294 297 298 298 299 301 304 303 304 306 307 310 308 308 308 309 311
294 293 293 293 291 290 289 288 287 287 286 287 288 287 287 288 297 300 298 292 291 291 292 292 292 294 299 302 298 298 299 301 305 308 309 309 312 315 313 311 308 308 308
294 294 293 293 291 290 289 288 286 287 288 288 288 287 291 288 296 298 298 292 289 290 292 293 300 298 301 302 299 298 298 299 303 302 302 305 310 314 315 312 313 311 311
295 293 292 292 291 290 288 288 287 287 287 287 288 287 286 287 287 298 300 293 291 291 292 293 296 301 302 303 303 298 300 304 301 300 301 303 307 313 313 315 315 313 316
293 291 291 290 291 290 288 287 287 287 287 286 286 286 286 287 294 297 299 300 299 292 292 295 295 301 301 302 301 303 305 302 299 299 300 301 304 311 313 314 317 319 320
291 290 289 289 289 289 288 287 286 286 286 285 285 285 286 288 288 296 299 300 300 297 296 298 300 300 300 299 301 303 303 298 298 298 298 299 302 304 314 315 318 318 316
289 288 289 288 288 289 289 289 288 286 285 286 286 285 285 287 288 289 290 291 297 297 298 294 296 297 298 298 297 299 300 298 298 298 298 300 303 305 313 315 315 313 312
288 288 289 291 289 289 289 289 289 287 289 286 286 286 286 286 289 294 295 293 293 295 298 291 289 289 290 291 294 296 298 298 297 298 298 299 302 306 313 315 314 313 310
288 289 290 290 290 290 289 289 294 293 296 296 296 291 292 296 298 299 299 299 299 300 293 288 287 287 288 290 291 294 297 297 296 298 298 300 301 307 312 315 313 312 309
290 290 291 291 290 289 289 288 287 292 298 298 297 297 297 297 298 298 298 298 298 296 287 287 286 287 288 289 292 295 296 296 297 298 298 299 302 307 312 314 312 310 308
292 295 291 290 290 289 289 288 288 287 287 287 293 295 296 296 296 296 297 296 288 289 287 286 286 287 288 289 292 295 296 296 296 297 298 299 301 304 312 313 311 309 307
293 292 291 291 290 290 289 288 288 288 288 287 287 292 293 294 295 296 296 288 286 286 287 287 287 287 288 289 293 295 296 295 296 297 297 298 300 302 312 313 311 308 307
292 293 292 290 290 288 288 288 288 288 288 288 288 289 288 288 286 287 288 287 286 286 287 287 288 288 289 290 294 295 296 295 295 297 297 298 300 301 307 314 311 308 308
292 293 293 289 288 288 289 289 290 290 289 288 287 290 293 289 287 288 287 287 288 288 289 290 292 293 290 291 293 295 296 295 295 296 297 298 299 299 302 315 312 310 309
290 290 289 288 289 290 290 289 288 287 288 287 288 289 292 289 289 290 287 287 288 290 291 291 291 294 291 291 293 295 296 295 295 296 297 297 298 299 301 309 312 310 309
289 289 289 289 290 291 288 288 288 287 287 287 288 287 287 286 288 288 288 288 289 289 290 291 292 291 291 292 294 296 296 296 296 297 296 296 297 298 300 308 312 310 308
291 290 289 289 289 288 287 286 286 288 287 286 287 287 285 286 287 290 288 288 289 290 291 291 291 291 291 292 294 296 296 297 297 296 297 296 295 297 299 307 312 310 309
289 288 288 287 288 287 287 286 286 285 286 287 288 287 285 286 287 288 288 288 288 292 290 291 292 292 291 292 293 295 295 293 294 294 296 296 296 297 300 309 312 310 308
289 288 288 288 288 287 286 285 284 288 288 289 289 286 288 290 289 287 288 288 291 293 292 291 293 292 292 293 294 294 294 294 295 295 295 296 298 301 304 312 311 310 307

GFSGL_sfc_thetae_015.txt.gz
Theta_e
300 301 301 300 300 300 300 300 300 300 300 300 299 299 299 299 299 299 299 299 298 298 299 298 298 299 299 300 300 300 299 299 296 299 301 302 302 303 304 305 306 306 308
300 300 300 300 300 300 300 300 300 299 300 299 299 299 298 299 299 298 298 297 297 297 298 298 298 299 300 300 300 300 300 300 299 297 300 301 302 303 305 303 303 306 306
299 299 300 299 299 299 299 299 299 299 299 299 299 298 298 298 298 298 297 297 298 297 298 298 299 299 299 300 300 299 300 300 300 299 298 302 303 305 302 304 304 304 307
299 298 298 298 299 300 300 299 298 298 298 298 298 298 298 298 297 297 297 298 297 298 299 299 300 300 299 299 300 300 300 301 301 300 300 301 300 302 302 301 301 305 304
297 298 298 299 299 299 299 298 298 297 297 297 297 297 297 297 296 297 298 298 298 298 300 300 301 301 303 302 300 300 301 300 299 298 299 298 297 299 300 303 303 305 308
297 297 299 298 298 298 298 297 297 296 296 296 296 296 296 296 299 301 300 299 299 299 299 300 300 300 300 302 303 303 302 298 297 299 297 297 300 300 301 304 306 304 301
297 297 298 297 297 297 297 296 296 296 295 295 295 295 295 297 301 302 302 300 300 300 299 298 298 298 300 299 301 302 302 303 304 301 298 300 299 301 303 303 305 305 306
296 297 297 297 296 296 296 296 296 296 295 295 295 295 296 296 300 302 302 300 300 300 299 298 298 298 299 299 299 299 299 300 302 302 303 303 305 305 305 306 307 309 310
296 297 297 297 296 296 295 295 295 295 295 294 295 295 295 296 300 302 301 299 299 298 298 299 299 299 301 302 299 298 300 301 304 306 308 307 308 309 312 310 307 306 305
297 297 297 297 296 295 296 295 295 295 294 294 294 295 296 295 298 301 300 299 297 297 298 299 300 300 302 303 300 300 299 300 300 303 302 303 305 307 314 314 311 306 308
299 298 297 297 296 297 296 295 294 294 294 294 294 294 294 296 296 299 300 299 297 297 297 297 299 301 303 302 302 301 300 302 301 300 301 301 303 308 315 315 316 314 312
299 298 296 296 296 295 295 294 294 294 293 293 293 293 293 294 297 298 300 301 300 298 297 299 300 302 302 300 301 302 303 303 300 299 299 299 300 302 306 316 317 318 320
298 296 295 295 295 294 293 293 292 293 293 292 292 292 292 293 294 298 300 300 300 299 300 301 302 301 300 299 299 301 302 301 298 298 298 298 300 304 307 316 318 320 321
295 293 293 293 292 293 293 293 292 292 292 291 291 291 292 292 293 294 296 297 299 300 300 301 300 300 297 297 298 299 300 301 298 297 298 300 302 304 307 314 314 315 314
292 292 291 293 292 292 293 293 293 294 294 292 292 292 292 291 293 296 297 298 299 299 300 300 298 296 295 295 296 298 299 299 297 298 298 299 300 303 305 315 315 314 310
290 291 292 291 292 292 292 293 296 295 296 296 296 294 293 296 298 299 300 299 299 299 298 297 296 294 293 294 294 296 298 298 297 297 298 299 300 301 304 314 314 313 308
292 291 292 292 292 292 293 293 291 296 298 298 298 298 298 297 299 298 298 297 298 298 295 294 294 294 293 294 294 295 296 299 298 297 298 298 299 301 303 313 312 311 308
295 295 293 293 293 293 293 292 292 292 292 292 296 297 298 298 297 296 296 297 295 293 293 293 293 294 294 294 294 295 296 299 297 297 297 298 299 300 301 310 312 309 308
294 294 293 293 293 292 291 291 291 291 291 291 292 295 297 296 295 296 296 294 292 292 293 293 294 294 294 295 295 296 297 298 298 296 297 298 299 299 300 306 312 308 308
294 295 293 292 292 291 291 290 290 290 291 291 292 292 292 293 291 292 293 292 292 293 293 294 295 295 295 296 296 296 297 298 297 296 296 297 298 299 299 301 311 308 309
294 295 294 292 291 291 290 291 292 291 291 292 292 292 293 292 292 292 293 292 293 293 294 294 295 295 296 297 297 297 297 298 298 296 296 297 298 298 299 301 310 310 310
293 293 292 291 291 291 291 293 292 292 291 290 291 291 292 293 292 293 292 293 294 294 295 294 295 296 297 297 297 297 297 297 297 297 296 297 297 297 298 300 307 311 309
292 291 291 291 292 293 292 291 290 290 290 291 290 290 290 290 291 292 292 293 294 294 295 296 296 296 297 298 298 298 297 297 298 298 296 295 296 297 297 298 302 311 309
292 292 291 291 291 290 290 289 290 289 290 290 290 289 289 290 291 292 293 293 294 294 294 295 295 296 297 297 298 298 299 299 299 296 296 295 295 296 297 298 300 311 309
292 291 290 290 289 289 289 289 289 289 289 289 289 288 289 289 290 291 292 293 293 293 294 295 296 296 297 297 297 297 297 294 294 294 296 296 295 295 296 298 301 311 310
290 290 290 290 289 289 288 288 288 289 289 289 290 289 290 290 290 290 291 292 292 293 293 295 296 296 297 297 297 295 293 294 295 294 295 296 296 297 300 300 302 310 309

GFSGL_sfc_thetae_018.txt.gz
Theta_e
309 309 308 309 309 310 309 309 309 308 307 306 305 305 304 304 303 303 303 303 302 302 302 302 301 302 301 301 302 302 302 302 299 301 303 304 303 304 305 306 307 307 309
307 308 307 308 308 308 308 308 308 307 307 305 305 304 303 303 303 302 302 301 301 301 301 301 300 300 300 302 303 302 302 302 301 299 301 302 303 305 305 305 306 307 306
306 306 306 306 306 306 307 308 307 306 306 305 304 303 302 303 302 302 302 301 300 301 301 300 299 300 301 302 302 302 302 301 301 301 301 303 304 305 305 304 304 305 305
306 305 305 305 306 306 307 307 306 306 304 304 303 303 303 302 302 302 301 301 300 301 300 300 300 301 302 302 301 301 301 301 300 301 301 301 301 304 304 301 300 303 304
306 304 304 305 306 305 306 306 306 305 304 304 303 302 303 302 301 301 301 301 301 300 300 301 302 303 304 303 302 301 301 299 298 299 299 300 301 302 300 300 301 302 305
307 304 304 303 304 304 305 305 305 304 304 303 302 301 301 300 305 305 303 301 300 300 300 301 302 303 302 303 303 303 302 299 299 298 300 300 302 300 300 300 300 300 298
305 303 303 303 303 303 304 304 305 304 303 302 301 301 301 301 303 304 303 301 301 301 301 301 301 300 301 301 302 302 303 303 304 302 300 300 298 300 301 301 302 301 301
303 302 303 302 302 303 303 304 303 303 303 302 301 301 301 301 303 305 304 302 301 302 301 301 301 300 301 300 300 301 301 302 303 303 302 302 302 304 304 304 303 304 306
302 300 300 302 301 301 302 303 303 303 302 301 301 300 300 300 303 304 303 301 300 301 301 301 301 300 301 302 301 301 300 301 304 306 307 308 308 308 307 305 305 304 304
299 297 300 302 301 302 302 303 304 304 302 302 300 300 302 300 303 303 302 300 299 299 300 301 301 301 301 302 302 300 298 300 302 302 304 306 305 304 307 313 311 307 306
299 297 298 301 301 302 302 303 303 302 301 300 299 300 300 300 301 303 303 300 299 298 299 299 301 300 301 303 302 300 300 303 303 303 301 302 302 302 304 309 315 311 308
296 296 298 301 299 300 301 302 301 301 300 298 298 298 299 299 302 302 302 302 301 299 299 301 301 301 302 303 301 301 302 303 302 301 300 299 299 300 304 311 316 316 318
295 298 301 300 299 299 300 300 300 299 298 297 297 296 297 298 299 300 301 301 302 300 301 301 301 302 302 301 299 300 301 301 300 298 298 298 299 302 307 312 318 320 321
295 299 300 299 299 299 300 300 299 299 297 297 297 296 296 296 297 298 299 301 300 300 300 301 301 301 301 300 299 300 301 300 300 298 298 299 301 304 308 312 315 317 317
297 298 297 299 299 298 299 299 298 298 298 297 297 297 296 295 297 299 298 298 299 300 300 300 299 299 299 298 298 299 300 300 300 299 298 299 300 302 303 308 315 315 311
293 294 295 297 296 296 296 297 302 301 301 302 301 299 297 298 298 298 299 299 299 299 298 297 297 298 297 296 296 297 299 298 300 298 298 298 299 301 302 305 314 313 309
292 293 294 294 295 294 294 294 294 298 300 299 299 298 298 298 299 299 299 299 298 298 296 297 296 296 296 296 296 297 297 299 301 299 297 298 299 300 301 303 313 311 310
294 295 292 294 295 296 297 295 296 295 294 296 298 299 299 299 299 299 298 297 296 297 296 295 295 296 296 295 296 296 298 298 300 299 297 297 298 299 300 302 306 309 308
295 295 296 297 297 297 297 297 297 296 296 295 297 296 298 298 298 297 296 296 296 295 295 295 296 296 296 296 297 297 298 298 299 299 297 297 298 299 299 300 301 308 308
297 297 296 295 295 295 296 295 294 294 293 293 293 293 295 295 294 294 295 295 295 295 295 295 296 297 297 297 298 298 298 299 299 298 297 297 298 298 298 299 300 310 311
296 295 295 295 294 293 294 293 293 293 292 292 293 295 295 294 293 294 294 295 294 295 295 296 296 297 297 298 298 299 298 298 299 299 297 297 298 297 298 299 300 305 312
294 294 294 293 293 293 293 293 293 292 293 293 294 294 294 294 294 294 294 294 295 296 297 296 296 297 298 298 299 298 298 297 299 299 298 297 297 297 297 298 299 302 311
293 293 293 293 293 294 293 294 294 294 294 294 293 293 292 293 293 294 294 294 295 295 296 297 297 297 299 299 300 300 299 298 299 300 298 296 296 296 297 296 297 299 309
294 293 293 294 294 294 294 293 293 292 293 292 292 292 292 292 293 293 294 295 295 296 296 296 297 297 298 299 300 301 301 300 300 299 297 295 295 296 296 296 297 299 305
294 293 293 293 292 292 291 291 292 291 292 292 291 291 291 291 292 292 293 294 295 295 295 295 295 297 298 299 299 300 298 294 296 295 297 296 295 295 296 296 297 300 303
293 292 292 292 291 291 291 290 291 291 291 291 291 291 291 291 291 292 292 293 294 295 294 295 296 297 298 299 299 295 293 293 295 295 295 295 295 296 297 298 300 300 302

GFSGL_sfc_thetae_021.txt.gz
Theta_e
313 311 310 311 312 312 314 316 316 315 313 311 310 309 308 307 307 305 304 304 304 304 305 304 302 303 303 303 303 302 302 302 298 301 303 305 303 303 304 306 307 306 307
311 312 309 309 310 310 311 313 315 313 312 310 309 308 307 306 306 304 304 303 303 303 303 303 301 301 302 303 302 302 302 303 301 298 301 302 302 303 305 304 303 305 307
309 310 309 308 308 308 309 312 313 312 311 309 308 307 306 305 305 304 304 303 302 302 302 301 301 301 299 301 302 302 303 302 302 300 299 302 303 304 303 303 303 304 306
308 308 309 307 307 308 309 310 311 311 310 308 307 306 306 305 304 304 303 303 302 301 301 302 300 300 300 301 301 302 301 301 301 300 299 299 301 302 303 301 302 305 303
307 308 308 308 307 307 307 309 310 310 309 308 306 306 305 305 304 304 303 303 302 301 301 300 301 302 304 304 302 301 301 299 299 298 298 298 298 299 299 301 300 300 301
306 306 307 307 306 306 307 306 308 309 308 307 306 304 304 303 308 308 305 302 302 301 300 300 301 304 304 305 304 304 303 300 298 297 296 296 297 300 300 299 299 298 296
306 306 306 304 305 304 305 306 307 308 308 306 305 304 303 303 310 309 308 303 302 301 300 301 301 301 302 300 302 303 303 304 304 301 298 298 299 301 300 299 300 299 299
304 305 305 303 303 304 304 304 306 307 306 306 304 304 304 303 309 308 306 303 302 302 302 302 302 301 301 300 300 299 301 302 303 302 302 303 304 304 304 304 303 302 303
304 304 303 302 300 301 302 303 304 306 306 305 304 304 303 303 308 307 305 301 301 302 302 302 302 301 302 301 300 300 300 301 304 307 306 308 308 308 307 303 300 300 303
304 303 302 302 299 299 302 304 305 305 305 304 303 303 304 302 307 308 306 301 299 300 301 301 304 301 302 301 300 300 299 298 300 301 302 304 304 304 306 303 303 305 305
303 302 301 299 298 298 302 304 305 305 304 303 302 302 302 302 304 308 307 300 299 299 298 299 301 303 301 301 303 301 299 300 301 301 301 301 301 301 302 304 306 310 306
301 301 300 298 298 298 301 303 304 304 303 301 301 300 301 301 305 306 305 304 303 298 298 300 302 301 301 302 303 303 302 301 301 300 299 298 299 299 301 304 308 313 316
299 299 297 298 300 300 300 301 301 303 302 300 299 298 297 299 302 304 304 304 302 299 300 302 301 301 302 302 303 301 301 301 299 298 298 297 299 300 303 305 310 315 318
298 298 296 299 302 300 301 301 301 301 301 299 298 296 297 298 298 300 301 301 301 300 300 300 300 301 301 301 301 301 300 300 299 298 298 298 300 301 301 304 307 316 314
297 296 297 300 299 298 299 299 301 302 302 299 297 297 296 296 297 300 300 299 300 300 300 300 299 299 298 299 299 299 300 300 299 300 298 297 298 300 300 304 306 314 313
295 294 296 297 297 298 297 299 303 304 304 303 303 300 299 302 303 302 301 301 301 300 298 297 296 297 296 297 297 297 298 298 298 299 299 297 297 298 299 302 305 311 312
294 293 295 295 296 297 298 296 295 300 302 303 303 302 301 300 301 300 300 300 300 299 296 296 296 296 297 296 297 296 296 298 297 298 298 297 298 298 299 300 302 311 309
294 295 294 294 294 297 298 296 296 294 294 295 299 299 300 300 300 300 300 299 296 296 296 296 296 296 296 296 296 296 296 297 296 298 299 297 297 298 298 298 300 302 308
294 293 292 293 298 297 297 296 296 296 295 295 296 298 299 299 299 299 298 295 295 296 296 296 296 296 296 297 297 298 298 297 299 299 299 297 297 297 297 298 299 301 308
294 294 294 295 296 297 297 296 295 295 295 295 295 295 297 297 294 294 295 295 295 295 295 295 296 297 297 298 298 299 299 297 298 299 299 297 297 297 297 297 298 299 305
295 294 294 293 293 294 294 294 294 294 293 294 294 296 296 295 294 294 294 294 295 295 295 295 296 296 298 298 298 298 298 298 299 299 299 298 297 296 297 297 298 299 300
295 295 294 293 294 294 294 295 295 294 294 293 294 295 295 294 294 294 294 295 295 295 296 296 295 296 297 296 297 298 298 298 298 298 298 298 296 296 296 297 297 297 300
294 294 294 294 294 294 294 294 294 294 294 294 294 293 293 293 294 294 294 295 295 295 295 296 296 295 296 297 299 300 299 298 299 298 298 297 296 295 296 296 296 296 298
294 294 294 294 294 294 293 293 293 293 293 293 293 292 292 293 293 293 293 294 295 295 296 296 296 296 296 297 299 300 301 300 300 299 298 296 295 295 295 295 296 296 298
293 294 294 294 294 293 292 292 292 292 292 291 291 291 291 292 292 293 294 295 295 295 295 296 295 296 296 297 298 299 295 293 295 294 297 297 295 295 295 296 296 297 298
293 293 292 293 292 292 292 291 290 291 290 290 290 291 291 291 292 292 292 292 294 295 294 294 296 296 296 297 297 293 293 293 295 295 295 296 295 295 295 296 296 297 299

GFSGL_sfc_thetae_024.txt.gz
Theta_e
303 307 307 308 308 307 307 309 312 313 311 307 307 305 304 303 303 302 301 299 298 298 298 298 297 297 296 296 295 295 294 294 292 294 297 298 297 297 299 299 302 300 302
302 304 306 307 309 307 305 305 306 310 312 309 306 305 304 303 303 302 300 300 299 297 298 297 297 299 295 296 295 294 294 295 294 293 294 295 296 297 297 298 301 303 301
301 302 304 306 308 306 305 305 306 308 311 309 306 305 304 303 302 301 300 299 298 297 297 297 296 296 294 294 294 295 296 299 295 294 294 295 295 296 297 297 299 300 301
302 302 302 305 306 306 306 304 305 307 310 308 306 305 304 303 302 301 300 298 297 297 298 297 296 296 294 293 295 295 296 294 294 293 294 294 295 296 297 297 297 300 301
300 302 303 304 306 305 305 304 304 306 307 308 305 304 303 302 302 300 299 298 295 295 296 297 297 299 303 300 298 296 295 294 293 293 293 294 295 294 294 296 296 299 300
299 299 303 304 305 304 304 304 304 304 305 305 304 303 302 303 308 309 302 297 296 295 294 295 295 304 302 305 306 306 302 294 293 293 296 295 295 295 297 297 298 297 295
299 299 301 304 303 303 304 304 303 303 304 304 303 302 301 300 311 311 308 297 296 294 295 295 296 299 303 297 301 303 302 304 303 298 297 295 295 296 298 298 299 299 299
298 298 301 302 301 302 301 302 302 303 302 303 302 301 300 299 312 312 309 296 295 295 295 295 295 295 297 297 296 295 296 296 298 299 298 297 298 300 302 303 301 301 302
297 299 301 301 299 300 299 300 301 302 303 303 301 299 299 298 311 311 304 296 295 295 297 297 296 295 301 302 296 295 295 296 303 304 304 305 306 307 307 303 300 298 297
297 300 301 300 299 298 298 298 301 303 303 303 300 300 303 301 310 310 302 296 294 295 296 296 305 298 302 302 295 294 293 295 295 296 297 300 303 303 306 303 301 298 298
298 300 299 299 298 299 298 296 301 302 302 302 299 300 300 302 305 309 306 297 296 295 295 295 297 305 303 302 302 296 297 298 297 296 296 297 300 300 301 302 303 302 302
297 299 298 298 298 299 295 296 301 302 301 301 298 297 299 301 306 309 308 303 302 295 294 295 299 305 303 302 301 303 303 301 296 294 295 297 298 298 300 301 303 306 308
295 295 297 297 297 297 295 295 298 301 300 300 297 296 296 299 302 309 309 307 304 296 297 301 303 303 302 300 302 302 302 295 294 292 294 296 297 299 301 302 304 307 313
293 294 297 297 296 295 299 298 299 300 300 300 296 295 296 298 300 302 302 301 303 299 301 297 299 300 301 300 299 299 296 295 294 293 297 297 298 299 299 302 302 305 312
293 295 295 295 293 296 298 299 300 301 302 300 297 296 295 296 298 301 300 297 297 299 297 295 295 295 294 294 294 294 294 294 293 293 297 295 296 298 299 301 303 308 309
293 295 294 293 292 296 297 298 304 303 304 304 303 299 298 301 304 304 303 302 303 303 296 293 292 292 292 292 291 291 292 294 292 293 298 295 296 297 298 300 302 307 308
294 294 294 293 294 294 296 297 296 299 304 303 304 303 302 302 304 303 303 302 302 299 292 292 292 293 292 291 291 291 291 292 293 295 298 295 296 297 298 298 300 302 308
296 296 294 294 294 294 296 296 297 296 295 297 302 302 303 303 302 302 301 300 295 295 293 292 292 292 291 291 291 291 291 292 293 297 298 296 296 297 297 297 298 299 305
294 294 293 293 293 295 297 296 295 294 294 294 296 299 301 302 301 301 300 294 292 292 292 292 292 292 291 291 292 292 293 295 296 297 297 297 296 297 296 297 298 299 302
294 293 291 291 295 295 294 293 293 294 293 293 293 294 296 296 294 293 293 292 292 293 292 292 293 294 292 292 292 292 293 296 294 295 297 296 297 297 296 296 297 297 299
292 292 293 294 295 295 294 293 293 293 293 293 293 295 297 293 292 292 292 292 291 291 291 293 294 294 293 292 292 293 293 294 294 293 296 295 296 295 296 296 297 297 298
292 292 292 292 293 293 293 294 293 293 293 292 293 295 297 293 292 292 291 292 292 293 293 294 294 293 293 294 295 293 293 294 294 293 296 296 295 295 296 296 296 297 297
292 292 292 293 293 294 293 293 292 293 293 293 293 292 292 291 291 291 292 292 293 292 293 294 293 293 294 295 296 295 294 293 294 294 296 295 295 294 295 295 295 296 296
293 292 291 291 292 292 292 292 293 293 292 292 292 291 290 291 291 292 293 293 293 293 294 294 294 292 294 294 295 296 294 294 295 295 295 296 295 295 295 295 295 296 296
293 293 293 292 291 291 291 291 291 291 290 290 290 290 290 291 291 293 293 293 293 293 293 294 293 293 295 296 296 295 293 292 292 293 294 296 295 295 294 295 295 296 297
292 291 291 291 290 290 289 289 289 289 289 290 290 290 290 290 291 292 292 292 290 292 292 293 293 294 295 295 294 293 293 293 293 294 295 295 294 294 295 294 295 296 296

GFSGL_sfc_thetae_027.txt.gz
Theta_e
299 298 300 300 302 304 306 307 306 304 308 310 308 306 304 303 304 302 302 300 299 298 297 298 296 296 295 294 294 293 292 291 289 291 294 296 295 295 297 297 299 297 298
298 299 300 301 302 302 304 305 305 305 306 309 308 307 305 304 303 302 301 301 299 297 297 297 297 298 294 294 293 293 292 292 292 290 292 294 294 295 295 295 298 300 299
299 298 299 299 301 302 303 304 305 305 305 306 308 306 306 304 303 302 301 301 300 299 297 297 296 295 293 293 293 293 292 296 293 292 291 293 293 294 294 295 296 298 300
298 297 298 299 301 302 302 303 305 304 304 306 305 308 306 305 303 302 301 300 299 298 298 297 296 295 293 292 293 292 294 293 293 292 292 292 292 294 293 294 294 297 297
297 297 298 297 300 303 302 303 304 304 304 305 306 306 306 304 303 301 300 298 297 297 297 298 297 298 304 298 295 294 294 293 292 292 291 292 293 292 291 294 294 295 297
296 296 298 297 297 299 304 304 303 303 303 304 304 305 304 304 309 308 302 297 297 296 295 295 296 305 304 306 306 306 299 294 292 291 292 292 293 294 295 294 294 294 293
296 296 296 297 297 301 303 302 302 302 302 302 303 304 304 303 311 311 307 298 296 296 294 294 295 300 302 297 304 306 305 304 303 295 292 293 294 295 293 295 295 297 298
295 295 296 296 298 300 297 298 300 301 301 301 302 303 303 303 312 312 309 297 295 294 294 293 293 294 297 296 294 294 294 295 296 298 296 295 294 297 298 299 300 301 302
294 295 295 297 298 297 296 297 298 299 300 299 301 302 302 301 311 312 305 296 294 293 294 294 294 294 303 304 295 293 293 294 301 305 304 304 305 305 304 301 299 298 297
294 294 296 296 297 296 296 297 298 299 299 300 300 303 304 301 311 312 300 296 293 294 294 296 303 296 305 304 294 293 292 293 295 294 295 297 300 299 304 302 300 297 297
295 295 295 295 296 296 296 297 297 297 297 299 300 302 301 301 308 310 305 296 295 295 294 295 299 305 305 304 302 294 295 297 298 294 294 294 296 299 300 300 301 300 298
294 294 295 294 295 296 296 297 296 295 295 298 299 300 300 303 309 308 306 302 301 295 294 294 297 307 305 304 301 302 303 302 294 292 292 293 294 297 298 300 302 303 305
293 292 292 293 294 295 297 295 294 295 296 298 299 299 298 302 305 308 307 305 304 295 295 299 305 307 304 302 303 302 301 294 292 291 290 292 296 297 299 301 303 306 311
291 290 291 292 293 296 296 294 295 297 297 298 299 297 298 300 302 301 301 303 305 301 304 302 302 301 301 299 299 298 295 293 292 291 290 294 296 297 298 301 301 305 311
289 290 291 293 294 295 294 293 296 299 300 298 299 297 297 297 300 303 301 298 297 299 297 295 294 294 293 293 293 293 292 292 291 290 291 294 294 297 298 300 301 306 309
289 290 290 292 295 294 292 293 299 304 304 304 304 300 300 303 307 306 304 302 302 302 295 293 293 293 291 291 290 290 290 292 291 290 293 294 294 296 298 299 301 303 308
290 291 291 293 294 292 293 292 293 301 304 304 303 304 303 305 305 304 303 303 304 301 293 293 292 292 291 290 290 289 289 290 291 291 297 293 295 297 297 297 299 301 308
291 294 292 294 293 293 293 293 296 297 296 298 302 303 304 304 304 303 303 302 297 296 294 292 292 292 291 290 290 290 289 291 294 294 297 293 295 296 296 296 297 298 305
292 292 293 293 293 293 293 295 297 297 296 297 298 301 303 304 303 303 301 295 293 293 292 292 292 291 291 290 291 291 291 292 294 293 296 293 295 296 295 296 297 298 301
292 293 294 292 291 292 294 294 295 295 295 296 296 296 298 298 295 293 294 294 293 293 292 291 291 291 291 291 291 291 291 292 292 292 293 292 294 295 295 296 296 296 298
291 291 295 294 294 294 294 294 294 293 293 293 294 296 298 294 292 292 292 293 294 293 291 291 291 291 291 291 291 291 291 292 292 291 292 292 293 293 295 296 296 297 298
291 291 293 293 293 293 293 293 293 293 293 293 294 295 296 293 292 292 292 292 292 293 292 292 291 293 291 292 292 292 292 292 292 292 292 293 292 293 295 295 295 296 297
290 290 292 293 293 294 293 293 292 292 292 293 293 292 292 292 292 291 292 292 292 292 292 292 293 293 294 294 296 294 292 292 292 293 292 292 292 294 294 294 295 295 296
291 290 290 291 292 292 292 292 292 292 292 292 292 292 291 291 292 292 292 292 293 292 293 294 294 293 293 293 295 294 295 296 293 293 292 292 292 294 294 294 294 295 296
292 291 291 290 291 290 291 291 291 291 292 291 290 290 291 292 292 292 293 293 292 293 293 293 293 293 296 295 295 295 293 293 292 293 294 294 294 294 294 294 294 295 296
290 290 290 290 290 290 290 289 289 290 289 290 289 290 290 291 291 292 292 292 292 292 293 294 294 294 295 294 294 293 293 293 294 294 294 295 294 294 294 294 295 295 295

GFSGL_sfc_thetae_030.txt.gz
Theta_e
295 296 296 298 299 299 300 302 303 302 302 303 304 304 307 307 305 306 305 303 300 300 300 298 296 295 295 293 293 292 291 290 288 289 291 293 293 294 296 296 298 296 297
295 295 296 298 299 297 298 301 303 302 302 303 304 305 307 308 306 305 304 303 300 299 298 298 296 297 294 293 293 292 291 291 290 288 290 292 293 294 294 294 297 299 297
295 295 295 296 296 297 298 301 303 302 301 302 302 303 305 306 305 305 305 303 300 300 299 298 297 296 293 292 292 291 291 294 291 290 290 292 292 293 293 293 294 295 298
295 295 294 295 296 297 298 300 301 302 301 301 301 303 304 306 306 306 305 303 301 300 299 299 297 297 296 293 293 292 292 291 291 291 291 291 292 293 292 292 292 293 294
294 294 295 295 296 296 297 300 300 301 303 303 302 303 303 305 306 306 305 303 300 299 297 298 297 299 304 299 295 291 291 291 291 291 290 290 290 291 290 291 290 293 295
293 294 295 295 295 295 296 297 300 303 302 302 301 301 302 305 308 311 308 302 300 298 296 296 297 305 306 308 306 303 297 292 291 291 291 290 290 292 292 291 293 292 291
293 294 295 295 294 295 296 300 299 299 298 298 300 301 301 302 308 310 312 302 299 298 297 296 296 300 304 300 307 307 306 307 304 294 291 291 290 292 292 292 293 293 293
293 293 294 294 294 295 295 296 295 295 296 297 298 300 299 301 306 309 312 303 299 298 296 295 296 295 298 296 294 294 294 294 296 297 294 294 294 294 293 296 296 298 300
293 292 293 294 292 293 293 294 295 295 296 296 298 300 298 298 305 308 310 302 298 295 295 295 295 294 303 305 294 292 292 293 300 304 304 305 305 304 303 299 297 296 296
293 292 294 293 292 292 293 293 295 295 296 297 298 299 300 298 305 308 309 299 295 294 293 294 301 296 306 306 293 292 291 292 293 294 295 296 298 297 302 299 298 296 296
294 293 293 294 292 292 291 293 294 294 295 296 296 298 298 300 303 307 310 299 296 293 293 295 297 305 308 306 300 293 293 295 297 294 292 292 293 294 296 298 300 299 296
292 293 292 291 292 293 291 292 293 294 295 294 294 296 298 302 304 306 307 302 300 294 294 296 299 307 308 306 301 301 303 301 293 291 290 291 291 294 296 298 300 302 303
291 290 291 290 291 291 290 290 292 295 293 293 295 296 297 301 301 309 308 305 304 296 296 299 304 307 307 303 303 303 301 293 290 289 289 289 292 296 297 300 302 304 307
290 290 289 288 289 290 292 293 294 293 292 294 297 296 298 299 303 305 305 302 304 299 302 301 303 302 301 299 298 297 294 292 291 289 288 290 294 295 297 300 300 302 307
290 289 288 289 288 290 291 293 295 294 294 294 298 298 297 298 303 303 301 298 297 300 300 298 296 294 293 292 292 292 291 291 289 289 289 292 293 295 298 300 300 302 305
290 289 289 290 291 290 291 294 297 298 299 300 302 300 301 304 306 305 304 303 303 303 297 294 292 291 290 290 289 289 289 290 289 289 294 292 292 295 297 299 300 301 305
290 290 290 291 289 290 292 292 291 294 297 303 303 302 303 304 305 303 304 303 303 300 293 292 292 291 290 289 289 289 288 289 289 291 295 291 293 296 296 297 298 300 307
291 293 291 291 291 292 293 292 293 292 292 298 302 301 303 305 303 303 303 301 295 295 294 293 291 290 289 289 289 289 288 290 291 293 295 291 293 295 295 296 297 298 303
292 291 292 291 292 293 293 292 292 292 296 296 298 301 304 304 303 303 301 295 293 293 293 292 291 291 290 290 290 290 290 291 291 292 293 291 292 295 295 296 296 298 300
291 293 293 292 292 292 291 291 293 296 296 296 297 298 300 300 296 293 294 294 294 293 293 290 291 291 291 290 290 290 290 291 291 291 290 290 292 294 294 295 296 296 297
291 292 295 294 294 293 294 295 295 295 295 295 296 298 299 293 292 293 293 293 293 293 292 291 291 292 291 291 290 290 290 291 290 290 290 290 291 293 294 295 296 297 298
290 293 293 293 293 293 293 294 294 294 293 293 293 294 296 293 292 292 293 293 293 293 292 291 291 292 291 291 292 291 290 291 290 291 290 290 290 292 293 294 295 296 297
290 290 293 292 293 293 292 292 293 293 292 292 292 292 292 292 291 291 292 292 292 292 291 291 291 291 291 292 293 292 291 291 292 291 290 290 290 292 292 293 294 295 296
290 290 290 292 292 291 291 292 292 292 292 292 292 291 291 291 291 291 291 292 291 291 291 291 291 292 293 293 294 294 296 295 292 291 291 290 289 291 293 294 294 295 295
290 289 289 289 290 290 290 291 291 291 291 291 291 291 291 291 291 291 291 290 291 291 291 292 293 295 295 294 295 294 293 292 292 293 291 291 293 293 294 294 294 295 295
290 289 289 289 289 289 289 289 290 290 290 290 290 291 291 291 291 291 291 290 291 292 292 293 294 294 295 294 293 293 293 293 293 294 292 293 294 294 294 294 294 294 295

GFSGL_sfc_thetae_033.txt.gz
Theta_e
294 293 293 294 296 295 296 297 297 298 301 301 301 301 301 302 304 304 304 305 305 303 303 301 298 297 296 295 293 291 291 290 289 289 289 291 291 292 295 296 298 296 296
294 293 294 295 296 294 295 296 297 297 301 301 301 301 301 302 302 303 303 304 304 303 302 301 299 297 296 295 294 292 292 290 290 288 289 290 291 292 293 293 296 299 296
294 293 293 292 292 293 294 296 296 298 300 300 301 300 301 302 301 302 303 303 304 304 303 301 300 296 295 294 294 292 291 293 290 289 289 290 291 292 292 293 293 293 296
294 292 291 291 292 293 294 295 296 297 298 299 300 301 301 301 302 302 302 303 304 304 304 303 301 297 296 294 294 293 292 291 289 289 289 290 291 292 291 291 291 292 294
293 292 292 293 293 293 293 295 296 296 297 299 300 300 301 302 302 301 301 302 303 303 305 303 301 301 305 300 296 293 291 290 289 289 289 289 290 290 290 291 290 293 293
292 292 292 293 294 293 293 294 294 295 299 300 299 299 299 300 304 306 306 302 304 304 302 301 300 305 306 307 306 303 297 291 289 289 289 290 290 290 291 291 291 289 289
294 292 294 293 293 293 294 293 294 295 295 296 296 296 296 297 304 306 306 302 303 305 303 301 299 301 304 302 308 307 305 304 299 293 291 291 290 291 291 290 290 291 292
293 294 293 293 293 293 292 292 292 292 293 294 295 295 296 297 303 305 306 302 303 306 302 300 298 299 301 300 300 297 297 299 300 301 294 293 292 293 293 295 294 294 296
292 292 293 293 293 292 291 291 291 291 292 293 295 295 295 296 302 304 304 301 303 303 300 299 298 298 304 307 297 294 292 293 302 303 303 303 305 306 304 298 295 293 292
290 291 293 293 292 292 292 290 291 291 293 294 293 294 298 297 301 303 303 301 302 299 298 298 303 299 308 307 294 292 290 290 292 293 294 297 299 295 302 297 295 292 294
291 291 292 293 292 292 293 291 289 290 291 290 292 294 296 297 297 302 303 302 299 296 295 295 298 305 310 306 299 292 292 293 296 294 293 291 291 292 293 294 296 296 295
291 291 291 291 292 292 290 288 289 289 288 290 293 294 295 296 301 302 304 306 301 296 295 296 299 308 308 304 298 302 303 301 293 290 289 289 289 290 294 296 298 299 300
292 291 291 290 290 290 288 287 288 289 290 292 293 293 294 298 299 303 306 306 302 297 296 299 307 308 308 304 304 304 302 292 290 289 288 287 288 293 295 298 301 303 305
290 291 290 290 288 288 289 289 289 291 291 292 293 292 294 298 298 302 305 303 304 298 301 304 305 304 302 302 299 297 293 291 290 288 287 288 291 294 296 299 299 301 306
290 290 290 290 289 288 289 289 290 291 294 294 294 294 294 296 299 304 304 301 298 299 300 299 297 296 294 293 291 290 291 290 288 287 287 290 292 295 296 299 300 302 305
289 289 290 290 290 290 290 289 295 296 299 299 299 298 299 301 302 305 303 301 302 304 297 295 294 293 291 290 289 288 289 289 288 288 290 290 292 294 296 298 300 302 304
289 290 290 290 289 289 290 290 289 295 297 298 299 303 302 301 305 303 303 303 304 300 294 293 292 291 290 290 288 288 287 288 289 291 290 290 293 295 296 297 299 301 304
291 293 291 291 291 291 291 291 293 291 291 292 301 301 302 305 303 303 303 300 295 296 293 292 291 291 291 290 288 288 288 289 290 291 290 290 293 294 295 296 297 299 304
291 291 292 292 291 292 292 292 292 291 292 296 298 300 303 304 304 303 300 294 293 292 293 292 292 291 291 290 289 290 290 290 290 289 289 291 293 294 294 296 297 300 304
290 294 294 294 294 293 292 291 290 291 294 295 296 297 300 300 295 293 294 294 293 293 293 292 291 291 291 290 290 289 289 289 289 289 289 291 293 294 294 295 296 297 301
290 293 295 293 293 294 295 293 295 295 295 296 298 299 299 294 293 293 293 293 293 293 292 291 291 292 291 290 290 290 289 289 289 289 288 289 292 292 294 295 296 298 299
291 292 292 291 292 293 293 294 294 293 293 293 294 295 296 293 293 293 293 293 293 293 293 292 292 292 291 291 291 290 289 289 289 289 288 288 290 292 294 295 295 296 297
290 290 291 291 291 293 292 292 292 292 292 292 292 292 292 292 292 292 292 292 293 292 293 292 292 291 292 292 292 292 290 289 289 289 288 288 289 291 294 294 295 295 296
289 289 289 290 291 291 291 291 291 292 291 291 291 291 291 291 291 292 292 292 292 292 292 292 292 292 292 292 293 294 293 291 290 289 289 288 289 292 294 294 295 295 295
290 289 288 288 288 288 289 290 291 291 291 291 291 291 291 291 291 291 291 291 291 291 291 293 293 292 292 294 294 293 293 292 291 292 290 291 293 293 293 294 294 294 295
289 289 288 288 288 288 288 288 289 289 290 291 291 291 291 291 291 291 291 291 291 291 291 294 293 293 294 294 294 293 293 293 292 294 291 291 291 292 293 293 294 293 294

GFSGL_sfc_thetae_036.txt.gz
Theta_e
294 294 293 294 293 293 292 293 294 295 295 297 299 300 300 300 299 299 299 300 301 302 302 301 301 301 299 297 296 293 291 291 292 289 290 290 291 292 295 296 299 299 299
295 294 295 295 294 292 292 293 293 293 294 296 299 299 300 300 300 299 298 300 299 300 302 301 301 302 299 298 296 293 294 291 291 289 289 289 290 291 293 293 296 299 297
295 295 294 294 293 293 292 293 293 293 294 295 297 297 299 299 299 299 299 300 300 300 301 301 301 301 299 297 296 295 294 294 290 290 289 290 290 291 292 292 293 294 296
295 294 293 293 293 292 293 293 293 294 293 295 295 297 298 300 300 300 300 299 299 300 301 302 302 301 300 298 296 296 294 292 290 289 289 289 290 291 291 291 291 292 294
294 295 295 295 294 294 293 293 293 294 294 294 294 297 299 300 300 298 299 299 299 299 301 302 302 303 307 303 298 296 293 293 290 290 288 289 289 289 289 291 290 292 293
293 293 294 295 295 293 292 292 293 293 294 293 296 296 296 299 303 303 301 298 299 300 299 301 303 307 307 310 309 306 298 293 291 291 288 288 288 290 290 290 290 290 289
290 291 292 293 293 293 294 293 292 292 293 294 294 294 294 296 302 303 302 299 299 300 300 299 302 305 306 304 309 310 306 305 301 293 290 290 289 291 291 290 290 290 291
289 289 290 291 291 293 293 292 292 292 292 292 292 293 293 295 301 302 302 300 299 300 300 299 301 302 302 302 302 303 300 300 300 297 293 292 293 293 293 293 293 293 294
288 289 290 290 290 291 291 291 291 291 291 291 292 293 293 293 299 300 300 299 298 299 299 299 302 301 303 307 301 299 296 295 305 305 300 302 303 303 297 294 294 292 292
290 290 291 291 291 290 291 292 293 293 292 293 292 292 294 292 297 300 300 298 297 299 298 300 305 302 305 307 301 298 295 292 295 294 295 299 301 298 302 297 294 292 291
292 292 291 292 291 291 291 291 292 292 291 288 289 290 290 292 293 300 301 298 298 298 298 299 300 304 306 306 306 298 297 293 297 291 292 292 291 291 292 292 293 293 293
293 292 291 292 292 292 291 289 288 287 286 287 287 288 292 295 299 300 302 303 303 299 299 299 300 306 305 306 302 303 303 298 293 291 290 289 289 289 290 292 295 297 298
293 291 291 291 291 291 289 288 287 287 286 287 288 290 291 295 296 300 303 303 304 300 298 299 302 304 306 305 304 305 301 293 290 288 288 287 288 289 291 295 298 300 302
291 290 289 289 290 291 288 288 287 287 286 288 289 289 293 294 295 297 299 301 303 299 300 300 303 303 302 303 301 297 292 290 289 288 287 287 289 291 294 298 299 300 303
291 290 289 289 289 290 291 290 289 290 289 289 290 292 294 294 296 299 300 298 298 299 301 302 299 296 295 293 290 290 291 290 287 287 288 289 291 294 296 299 300 302 304
290 290 289 290 290 291 289 289 294 295 296 297 299 298 296 299 301 302 303 301 302 304 299 296 294 293 291 289 289 289 289 290 288 289 289 289 292 295 296 298 300 304 302
289 290 291 292 291 289 290 289 289 291 296 297 298 299 300 302 301 302 303 304 303 300 295 293 292 290 290 290 289 289 288 288 289 289 288 290 294 295 296 297 300 303 302
291 293 291 291 291 291 291 290 291 290 290 291 296 301 301 302 303 303 303 300 296 295 293 291 290 291 290 289 289 289 289 290 289 288 289 292 294 294 295 296 298 302 303
290 290 293 293 294 293 292 291 291 292 291 291 297 300 303 303 303 301 299 294 293 292 292 291 291 291 290 290 291 291 291 290 288 288 291 292 293 294 295 296 298 304 304
291 294 294 292 292 293 293 292 290 290 291 295 296 298 297 296 293 293 294 294 293 292 292 291 291 291 292 292 292 291 289 288 287 289 291 292 293 294 294 296 298 302 302
290 291 294 291 292 294 295 293 294 295 294 295 296 296 297 293 292 293 293 293 293 293 292 292 291 292 292 292 291 290 288 287 287 288 290 291 292 293 295 296 298 301 303
289 289 291 290 291 292 293 293 293 293 294 293 294 295 296 293 293 292 292 292 293 293 293 292 292 292 292 292 291 290 288 287 287 287 290 291 292 294 295 296 297 298 300
290 289 289 289 291 292 290 291 292 292 292 292 292 292 292 292 292 292 292 292 293 292 293 293 292 292 293 293 292 291 289 288 287 288 287 289 292 294 295 295 295 296 297
290 289 288 288 289 290 291 291 291 292 291 291 291 292 292 292 291 291 292 292 292 292 293 294 293 293 293 293 293 291 290 289 289 288 288 289 292 294 294 294 295 295 296
289 288 288 288 288 288 289 290 291 291 291 291 291 291 291 292 291 291 291 291 292 292 292 293 293 293 293 293 293 293 292 292 290 291 289 292 292 293 294 293 294 294 296
288 288 287 288 288 288 288 288 288 289 290 291 291 291 291 291 291 291 291 291 292 292 293 293 293 294 294 293 293 292 293 293 292 293 292 292 292 293 293 292 293 293 294

GFSGL_sfc_thetae_039.txt.gz
Theta_e
298 299 299 299 299 299 298 299 300 300 300 300 301 301 301 303 304 305 305 305 305 306 306 306 307 308 307 306 303 300 301 303 303 306 303 302 301 302 302 307 307 307 308
298 298 298 299 299 298 298 299 299 298 299 299 300 300 300 302 302 302 303 304 305 304 304 304 304 306 307 307 303 300 299 301 300 303 301 299 301 301 303 304 303 304 305
297 297 297 297 298 298 298 298 298 297 297 298 298 299 300 301 301 302 303 304 304 303 303 303 303 304 305 306 303 301 298 302 297 303 301 300 299 300 300 302 302 302 303
295 295 295 296 297 298 298 298 298 297 297 297 298 298 299 300 302 303 304 303 302 302 302 303 303 304 304 305 305 300 300 300 299 300 301 299 299 299 301 299 299 301 301
292 293 293 294 295 296 297 297 297 297 297 297 297 297 298 300 301 301 302 303 302 301 302 302 304 305 308 308 305 303 301 297 298 298 299 298 298 297 297 300 299 301 302
291 291 293 293 293 294 295 295 296 296 296 297 297 297 297 299 302 302 302 301 301 300 300 301 303 305 306 308 310 309 302 297 296 296 300 298 298 299 300 299 299 298 296
291 291 292 292 292 293 293 294 294 295 296 297 297 297 297 299 302 302 302 301 300 299 299 300 301 301 304 305 308 311 310 306 304 299 300 299 300 300 300 299 299 299 299
292 292 292 292 291 292 293 293 293 294 295 296 296 296 296 297 300 302 302 300 299 299 299 300 299 300 302 304 305 306 306 308 306 304 302 302 302 302 301 301 301 301 301
291 291 292 292 292 292 291 291 293 293 293 294 295 295 295 296 299 300 299 298 298 299 300 299 300 300 303 305 303 304 303 304 309 308 306 305 303 303 302 302 299 298 297
291 292 293 293 293 291 290 291 292 293 294 295 294 295 297 295 298 299 298 297 297 298 299 300 302 301 304 305 302 302 300 299 302 304 300 303 305 305 304 303 303 299 299
292 294 294 294 293 292 292 291 292 293 292 294 293 293 294 295 295 297 298 297 296 297 297 299 301 303 304 305 307 303 302 301 303 303 302 303 303 303 303 303 303 301 298
293 293 293 293 293 292 291 291 291 291 290 290 290 291 293 293 295 297 300 300 301 298 298 299 301 303 304 305 307 306 306 303 302 299 298 299 299 298 299 298 299 300 301
292 291 292 293 291 291 291 291 290 291 290 290 290 290 291 293 295 298 300 302 302 300 301 302 302 303 305 307 308 306 305 300 298 297 297 297 297 298 298 299 301 300 299
291 291 292 292 291 292 291 291 291 290 289 289 289 290 291 293 294 296 298 298 299 300 302 302 303 303 306 303 304 302 299 299 298 297 296 296 298 298 299 300 298 300 302
290 291 291 291 290 290 292 292 292 292 292 290 291 291 291 291 294 299 298 297 298 300 300 300 300 299 297 296 295 297 297 296 294 295 296 297 296 298 297 299 300 302 304
290 291 291 291 291 291 291 291 295 295 296 296 297 296 297 299 300 300 301 301 301 302 298 296 295 295 294 293 293 293 294 295 296 296 296 296 296 296 297 299 301 305 303
290 291 291 292 291 290 291 291 290 294 296 296 297 298 299 299 302 302 301 302 302 300 295 295 294 294 293 293 292 293 294 295 295 295 296 295 295 296 297 299 304 305 304
291 294 291 292 292 292 293 291 291 291 290 291 296 298 301 303 303 302 300 299 295 296 295 294 293 294 292 292 294 294 294 294 294 295 295 294 295 296 297 298 305 305 303
290 290 291 292 291 293 294 293 292 292 291 292 298 300 301 300 300 299 298 295 294 294 294 294 293 292 294 294 294 294 294 293 293 294 292 293 294 295 296 298 305 304 304
290 293 292 291 290 292 294 292 292 292 293 295 294 295 296 296 295 295 296 295 294 294 293 293 294 294 295 294 293 293 292 292 292 292 292 293 294 296 296 299 306 305 304
290 290 292 289 290 291 293 293 295 295 294 294 294 296 297 295 294 294 294 294 293 293 292 293 294 294 294 294 293 293 292 291 291 291 292 293 294 295 297 300 304 304 304
290 289 289 288 290 290 291 293 293 293 293 293 293 295 296 294 294 293 293 293 293 294 295 295 294 294 294 293 293 292 292 291 291 292 292 293 294 295 297 298 301 304 304
289 289 288 289 289 291 291 292 292 292 292 293 293 293 293 293 293 293 292 293 294 294 295 295 295 294 294 294 294 294 293 292 292 292 292 293 294 294 295 296 298 300 302
289 288 288 288 289 289 290 291 291 292 292 292 292 292 292 291 292 292 293 294 294 295 296 296 295 294 294 294 294 295 295 295 295 294 294 293 293 294 294 295 296 298 303
288 288 287 288 288 288 288 289 290 291 292 292 292 292 291 291 292 292 293 294 294 294 294 295 295 294 294 294 294 294 292 292 294 293 295 294 293 293 293 294 295 297 301
288 288 287 288 287 288 288 288 288 288 290 291 291 291 291 291 292 292 293 294 294 294 294 294 294 293 293 294 294 292 292 292 293 293 295 294 293 292 292 293 294 295 297

GFSGL_sfc_thetae_042.txt.gz
Theta_e
299 299 299 300 300 301 301 301 302 302 301 301 302 302 303 302 303 303 303 305 305 305 306 306 307 308 308 310 312 310 307 306 300 307 312 313 310 309 308 309 311 310 311
299 298 298 299 299 299 299 300 301 300 301 302 301 301 301 302 302 302 302 303 303 303 304 305 306 306 306 309 310 310 308 308 302 301 309 311 308 308 308 307 307 308 310
297 297 297 297 297 297 298 299 299 299 300 300 300 300 300 301 301 302 302 301 301 302 303 305 305 305 305 306 307 308 309 308 305 303 303 306 308 308 307 307 308 308 307
297 296 296 296 296 296 297 297 297 298 297 299 299 299 300 300 301 301 301 302 303 304 304 305 304 305 304 305 305 306 307 307 306 301 299 301 306 306 306 304 304 306 304
295 295 295 296 296 296 295 296 297 297 297 297 298 298 299 299 299 299 301 302 302 303 303 303 304 305 306 306 305 305 307 305 306 304 298 300 304 303 302 304 303 303 304
295 295 296 296 297 296 295 295 295 295 295 295 295 297 297 298 301 301 302 301 301 301 301 302 303 304 304 307 308 309 308 305 304 303 299 302 303 304 304 304 303 302 300
293 294 294 294 295 295 294 294 294 295 295 295 295 296 297 298 301 302 303 302 301 301 301 302 301 301 304 303 306 308 308 310 309 307 300 302 301 305 305 305 304 304 302
293 293 295 294 293 294 294 294 294 294 294 294 295 295 296 298 300 301 302 301 301 301 301 301 301 301 302 302 301 302 305 307 309 307 304 304 303 305 304 306 304 305 305
291 293 293 293 292 293 293 293 293 294 292 294 295 295 295 296 299 300 301 300 300 300 300 300 300 300 302 303 300 302 302 305 310 312 309 306 306 307 307 304 303 301 300
292 292 293 293 294 292 293 293 293 293 293 293 294 295 297 295 298 300 300 299 297 298 299 299 301 301 303 302 302 302 301 304 306 307 307 307 307 306 309 306 304 301 301
293 294 294 294 293 293 293 293 293 292 293 293 293 294 295 296 296 299 299 298 296 296 296 298 299 301 302 303 304 303 303 305 306 303 304 301 301 302 303 305 306 305 302
294 293 292 293 293 294 293 292 292 292 292 292 291 292 294 294 297 298 299 299 299 297 298 300 301 302 303 304 304 305 306 306 303 302 300 299 301 303 304 306 307 307 306
292 292 292 293 293 293 292 292 292 292 291 291 291 290 291 293 295 297 298 299 300 298 300 302 302 303 304 304 305 305 306 303 301 301 300 302 303 304 304 303 303 303 303
291 291 292 292 293 293 293 293 293 292 291 291 291 291 292 293 294 296 297 296 299 299 301 300 301 303 304 305 304 304 303 301 301 300 301 302 303 301 300 301 301 303 300
291 290 291 292 292 292 293 293 292 294 294 293 293 293 292 293 295 297 297 296 296 298 298 299 296 298 299 298 300 299 299 300 300 301 301 299 299 299 299 303 303 300 300
290 290 291 291 291 292 292 292 296 297 297 297 297 297 296 298 299 300 300 300 300 301 297 298 297 296 295 295 295 296 297 298 298 299 299 298 298 300 301 299 300 301 304
290 290 291 291 291 291 290 291 291 293 296 297 298 299 299 302 302 302 301 301 301 301 295 294 293 293 293 294 295 296 296 297 298 297 298 300 300 298 298 299 301 304 304
291 293 291 291 291 291 292 294 293 292 290 292 300 300 302 301 300 300 299 298 295 295 294 293 292 294 294 295 296 295 295 296 297 299 298 297 297 297 298 301 305 304 305
290 290 291 291 290 292 293 294 293 293 294 295 296 298 299 300 300 300 299 296 294 294 295 294 296 296 296 296 295 295 296 296 297 295 294 294 295 297 299 305 306 305 305
290 293 292 290 290 289 292 295 295 294 294 294 294 295 297 298 295 296 297 297 295 295 295 295 295 295 295 294 294 294 294 295 293 292 293 294 296 298 301 306 307 305 305
290 290 293 289 289 290 293 294 294 294 293 294 294 297 297 295 294 294 295 295 295 295 295 295 295 294 294 294 294 294 294 293 292 292 293 294 297 297 304 306 307 307 306
290 290 290 289 289 290 292 293 293 294 294 293 293 295 295 294 293 292 293 293 294 296 296 295 294 294 295 294 294 293 293 291 291 292 293 295 296 298 304 307 307 306 305
289 289 289 289 290 291 291 292 293 293 292 293 293 292 292 292 292 292 292 294 295 295 296 296 295 294 295 295 296 295 293 292 293 293 293 294 295 296 300 303 304 305 305
288 289 288 288 289 289 289 291 291 292 292 292 291 291 291 291 292 292 294 295 295 295 296 296 296 294 294 294 294 295 294 295 295 294 294 294 294 295 297 299 304 304 305
289 288 288 288 288 288 288 288 288 291 291 291 290 290 290 291 292 293 294 294 294 295 295 295 295 294 294 293 293 294 292 292 294 294 294 294 293 294 295 297 301 303 303
289 288 288 288 288 288 288 288 288 288 289 289 290 291 291 292 293 294 294 294 294 294 294 294 294 293 292 293 293 292 292 292 293 294 294 294 293 293 294 296 298 301 302

GFSGL_sfc_thetae_045.txt.gz
Theta_e
299 300 299 300 300 300 300 301 301 302 303 303 303 302 302 303 303 303 303 303 303 303 305 307 306 307 307 308 310 310 310 308 304 307 312 310 313 311 311 311 313 311 315
299 299 299 299 299 298 298 299 299 299 301 301 301 302 302 302 302 302 302 302 302 302 303 305 305 304 306 308 307 308 309 310 307 304 309 309 308 312 311 310 309 309 311
298 298 298 298 298 298 298 298 298 298 298 299 299 298 299 300 300 301 301 301 301 302 302 302 303 304 304 305 306 306 308 308 308 306 305 310 309 309 309 310 308 309 309
298 297 297 297 298 299 299 299 298 297 296 297 297 297 298 299 300 300 300 301 301 302 302 302 302 302 304 304 304 305 305 306 307 304 304 306 308 309 309 306 305 308 306
297 296 297 297 298 297 296 296 297 297 296 296 296 297 297 298 298 299 300 300 300 301 302 303 303 305 309 306 304 304 305 304 305 305 302 303 304 305 304 304 304 306 307
295 295 297 296 295 294 295 296 296 296 297 296 296 296 296 296 299 301 301 299 300 300 300 301 303 307 305 306 307 307 306 303 304 302 302 300 303 304 304 302 302 300 300
294 294 294 294 293 294 294 294 294 294 295 295 295 296 295 296 300 301 302 300 300 300 298 298 301 301 305 303 304 306 306 308 308 305 302 301 303 306 305 301 302 300 302
293 293 293 293 293 294 294 293 294 294 294 294 293 295 295 296 299 300 301 299 300 299 300 301 301 301 302 303 301 301 302 304 305 306 306 306 306 308 307 305 302 303 304
291 293 293 294 293 293 292 293 294 293 294 293 295 294 294 295 299 300 299 298 298 298 300 300 301 301 304 304 301 300 300 301 304 307 311 312 311 310 309 303 302 300 300
292 293 294 294 292 293 293 293 294 294 293 293 293 294 295 295 298 299 299 298 296 297 299 300 303 302 302 302 300 300 298 298 301 301 305 309 310 308 309 305 302 299 300
293 294 293 292 293 293 293 294 293 293 293 293 293 294 294 295 295 298 300 297 297 297 297 297 299 302 302 302 303 299 298 301 303 301 304 307 307 305 304 305 304 302 300
292 292 292 292 293 293 293 293 294 293 293 293 292 293 294 294 296 297 299 299 298 296 296 297 298 301 301 302 302 302 304 304 302 302 302 302 303 301 302 303 304 304 306
292 291 291 292 292 293 293 293 292 292 291 292 292 292 293 293 293 296 298 299 299 296 297 298 299 300 301 302 303 304 305 302 301 301 301 300 300 301 302 302 303 307 307
291 291 291 291 292 293 293 293 292 292 291 291 291 291 293 293 293 294 294 295 298 298 298 298 299 300 302 302 302 303 303 303 302 301 301 301 302 301 302 303 302 303 301
291 291 291 291 292 291 292 292 293 294 294 292 293 294 292 292 294 296 296 296 297 298 297 298 298 298 298 299 300 302 303 303 301 301 301 300 301 301 301 302 301 301 299
290 290 291 291 291 291 291 291 296 298 298 298 298 297 296 298 299 299 299 299 299 300 296 295 295 293 295 297 298 298 300 301 300 300 300 300 299 299 298 301 302 300 299
290 291 291 291 290 290 290 290 292 295 300 302 300 299 301 300 300 301 301 301 301 300 296 295 294 294 294 295 295 295 295 297 298 298 298 298 298 298 300 300 299 300 300
292 293 290 290 290 290 290 291 295 294 293 294 299 300 301 300 299 298 297 296 293 295 293 293 293 294 294 294 294 294 295 296 297 298 298 299 300 299 298 298 299 301 304
291 290 291 291 290 291 292 295 295 294 294 294 295 297 299 299 299 299 298 294 293 293 293 293 294 294 294 294 295 295 296 297 297 296 296 297 297 298 298 300 302 304 304
291 292 292 290 290 290 293 294 294 294 294 294 294 294 295 296 294 294 295 294 293 293 293 293 293 294 294 294 294 295 295 293 293 293 294 295 296 298 299 303 304 304 303
290 290 293 290 290 290 293 293 294 293 293 293 293 295 296 293 292 293 293 294 293 293 293 293 293 293 294 294 294 294 292 292 292 293 294 295 297 297 301 305 305 304 303
290 289 290 289 290 290 292 293 293 292 292 292 292 293 294 292 292 293 293 293 294 294 294 294 293 293 294 294 294 293 292 292 292 293 294 295 297 300 305 305 305 304 303
290 289 289 289 289 291 291 291 292 291 290 291 291 290 291 291 292 293 293 294 294 294 295 294 293 292 293 294 294 294 292 292 293 294 294 294 297 303 305 305 304 304 302
290 289 289 288 289 288 289 289 290 291 290 290 289 289 290 292 292 293 293 294 295 294 294 293 292 292 292 293 294 294 294 294 294 294 294 295 297 301 304 304 304 304 303
290 289 288 288 288 288 288 289 289 289 290 290 290 290 291 292 292 292 293 294 294 294 293 292 291 292 292 292 292 293 293 292 293 294 295 295 297 299 302 303 304 304 304
289 289 288 289 288 288 288 288 289 289 289 290 291 291 292 292 292 292 293 294 294 293 292 291 291 291 291 291 292 292 293 293 294 294 295 295 295 297 300 302 303 303 303

GFSGL_sfc_thetae_048.txt.gz
Theta_e
294 294 294 294 295 296 296 296 296 296 296 296 296 297 297 297 298 298 298 298 297 298 300 299 298 300 303 303 303 304 305 304 299 300 303 307 311 311 310 309 310 309 315
293 294 294 295 295 295 295 296 296 296 296 296 296 295 295 296 296 296 297 298 297 297 299 299 298 300 301 301 303 300 303 306 300 297 300 302 305 310 310 307 306 309 310
294 294 294 294 294 295 295 295 296 295 295 295 296 295 294 294 295 295 296 297 297 297 298 298 299 299 299 301 301 300 300 302 302 300 299 301 303 305 308 307 303 303 308
294 293 293 293 294 294 294 294 294 295 295 295 296 296 295 295 295 295 295 296 296 297 299 299 299 298 298 299 301 299 300 299 301 302 302 300 300 302 304 303 302 303 301
293 292 292 293 293 293 293 294 294 295 295 295 295 295 295 295 296 295 295 295 296 296 298 299 299 301 304 303 299 299 301 298 300 300 297 297 297 298 299 303 301 301 301
292 292 293 292 292 292 293 293 293 293 294 294 294 295 294 296 299 300 298 295 295 296 296 298 298 302 302 305 306 306 302 296 295 299 300 299 296 298 299 302 300 298 297
291 291 291 292 292 292 293 293 293 293 294 293 294 294 294 295 300 301 300 296 295 296 296 297 298 300 301 300 302 307 306 307 306 298 299 300 297 298 301 299 300 299 298
290 290 291 292 292 292 292 292 292 293 293 294 294 294 293 294 299 300 300 296 296 296 297 298 298 296 298 298 299 297 296 298 300 302 299 299 299 300 301 305 302 301 301
289 289 291 292 291 292 291 291 292 292 293 293 294 292 292 293 298 298 298 295 295 295 297 298 298 298 300 302 300 298 296 296 305 307 306 308 309 310 306 302 301 299 298
289 291 292 292 291 291 291 291 292 293 293 294 294 293 294 293 297 298 297 295 293 294 296 296 300 299 301 303 297 294 293 293 295 296 296 302 305 306 311 304 303 299 297
291 292 291 292 292 292 292 292 292 292 293 293 293 293 292 293 292 298 299 295 294 294 294 294 296 301 303 303 303 294 294 296 298 296 297 297 299 302 305 307 304 302 300
291 291 291 292 292 292 292 292 293 293 291 292 292 292 293 293 296 297 298 298 298 294 293 295 296 300 301 302 302 302 303 302 295 295 296 297 297 299 303 305 304 305 304
291 290 291 292 292 292 292 292 291 292 291 291 292 291 292 293 294 298 298 298 298 295 296 297 299 299 300 299 301 302 303 296 295 296 296 297 300 300 302 304 305 305 304
290 290 291 291 292 292 292 292 291 291 291 291 291 291 292 293 293 294 293 293 296 296 298 297 298 297 299 297 298 300 298 297 298 297 297 298 299 300 301 303 301 301 301
290 290 290 291 291 291 292 292 292 294 297 297 295 294 293 292 294 296 295 293 292 294 295 296 295 293 293 294 294 296 297 300 299 300 300 300 300 301 300 301 300 300 299
290 289 290 291 290 291 290 290 295 299 300 301 301 300 298 300 300 301 303 298 297 298 294 292 293 294 293 293 293 295 295 299 299 298 299 298 300 300 300 301 300 299 297
289 290 291 291 290 289 289 289 290 296 299 300 301 301 301 300 299 299 302 298 299 299 294 295 293 295 294 294 295 294 296 297 297 297 299 300 301 300 298 298 298 298 298
290 293 290 290 290 289 289 293 294 293 293 294 298 299 300 299 299 298 297 298 295 296 294 293 293 294 294 294 295 296 296 297 298 299 299 298 298 297 297 297 298 298 297
290 290 290 291 290 291 292 294 294 294 293 293 294 295 297 298 298 297 297 293 291 291 292 291 292 292 293 294 295 295 295 296 296 296 296 297 298 298 297 298 298 299 300
290 293 292 290 290 290 292 293 293 293 292 292 291 292 293 294 292 292 292 292 291 291 291 291 292 292 293 294 294 293 293 293 293 294 294 295 295 297 297 298 299 299 301
290 290 292 290 289 290 291 291 292 291 291 290 290 294 296 292 291 291 291 292 291 291 291 292 292 292 293 293 293 292 292 292 292 293 293 294 296 296 298 300 300 303 303
289 289 289 289 290 289 290 291 291 289 290 289 290 292 295 292 292 292 292 292 292 292 292 291 291 292 292 292 292 292 291 290 292 293 294 295 296 297 299 302 303 303 302
289 289 289 289 289 291 289 289 289 289 289 289 290 291 291 291 291 292 292 292 292 291 291 291 291 291 292 293 293 292 291 291 292 294 294 295 297 299 303 302 302 302 302
289 289 288 288 289 289 289 288 289 290 290 290 290 291 291 291 291 292 292 292 291 290 290 290 290 290 291 292 293 294 293 294 294 294 295 297 300 303 303 303 302 302 302
289 288 288 288 288 288 288 288 288 289 290 290 290 291 291 291 291 292 292 291 291 290 289 289 290 290 291 291 293 293 293 292 294 294 296 299 301 302 302 302 302 303 302
289 288 288 288 288 288 288 287 288 289 290 290 291 291 291 291 292 292 291 290 289 288 288 287 288 289 290 291 292 293 293 293 294 294 297 300 301 302 302 302 303 302 301

GFSGL_sfc_thetae_051.txt.gz
Theta_e
291 291 291 291 292 292 292 292 293 294 293 294 295 295 294 294 294 294 293 294 295 296 296 297 296 297 297 298 300 302 302 301 298 298 299 302 304 309 313 310 313 312 313
291 291 291 291 291 291 291 293 293 293 294 294 294 294 294 294 294 293 293 293 293 294 295 296 296 298 297 297 298 300 302 303 301 296 298 299 302 305 308 310 310 312 312
291 290 290 291 291 291 290 292 293 293 293 293 293 293 293 294 294 294 294 293 293 294 295 296 296 297 296 296 296 298 299 302 300 297 297 299 301 303 304 309 307 304 311
291 290 289 289 290 290 292 292 292 293 292 293 294 294 293 294 294 294 294 294 293 294 295 296 297 297 297 297 297 297 298 298 296 297 296 297 299 300 300 302 305 304 304
289 289 289 290 291 291 291 291 292 294 293 294 294 293 294 295 295 295 296 295 294 294 294 296 297 299 303 303 299 297 299 296 296 295 295 296 297 298 297 299 299 303 304
289 290 290 290 290 291 291 292 293 293 293 293 292 293 293 294 299 300 298 296 296 296 293 295 296 299 300 305 305 306 302 296 297 295 295 295 294 296 297 298 299 298 297
288 289 289 290 290 290 292 292 291 292 292 292 293 293 293 294 299 301 300 296 295 295 295 295 295 298 300 299 302 304 304 305 303 298 298 297 295 297 297 296 299 300 299
287 288 289 290 290 291 291 291 291 292 292 292 292 293 293 295 299 300 300 295 295 295 295 295 295 296 298 298 297 296 297 298 299 301 300 299 298 299 299 300 299 299 301
287 287 289 290 290 290 290 290 291 291 292 292 293 293 293 293 298 299 297 294 293 294 295 296 296 296 299 302 297 295 294 296 302 305 306 306 308 307 303 300 298 298 296
288 289 290 291 290 290 291 291 292 292 292 293 292 293 296 294 298 299 297 294 291 292 294 295 299 297 300 301 296 295 293 295 295 298 299 302 305 304 309 301 299 298 295
289 290 291 291 291 291 292 292 292 292 292 292 292 293 294 295 295 298 299 295 293 292 292 293 295 300 301 302 302 297 295 298 298 294 294 294 294 296 300 303 302 301 297
289 290 290 291 292 292 291 292 292 292 291 291 291 292 293 295 298 298 299 299 297 293 293 294 294 299 300 301 301 302 302 301 294 293 292 292 293 294 298 302 304 304 301
289 290 290 291 291 292 292 291 291 291 291 291 292 292 292 294 295 298 299 300 300 295 295 295 298 299 300 299 301 302 302 296 296 294 293 292 294 296 298 300 302 305 303
289 290 290 290 291 292 292 291 291 290 291 294 296 295 294 294 294 295 295 295 297 297 297 296 297 298 298 296 296 296 295 294 293 292 292 293 297 296 298 301 299 300 302
290 290 290 290 291 290 291 291 291 294 296 296 296 296 294 294 296 299 298 294 293 292 293 294 293 293 290 290 291 292 294 295 295 294 294 295 297 299 300 302 300 300 300
289 289 290 291 290 290 290 289 295 299 300 300 300 299 297 299 300 301 302 302 296 296 291 289 289 291 289 289 290 291 292 295 295 295 297 298 298 299 300 299 300 298 299
289 289 290 290 289 289 289 289 292 296 298 298 299 299 299 298 298 300 298 297 297 296 290 289 290 292 293 293 293 290 291 294 294 296 297 297 299 299 299 299 299 299 298
290 292 290 290 290 289 289 292 293 292 291 292 296 297 298 297 297 296 296 295 292 294 293 292 292 294 294 295 295 294 293 293 294 296 298 298 297 298 298 299 299 298 298
290 289 290 290 290 291 291 292 292 292 291 291 292 294 295 296 296 296 295 291 289 289 290 289 291 292 293 294 295 296 297 296 295 294 296 296 298 299 298 298 298 299 299
288 291 292 290 289 290 290 291 290 290 290 289 290 292 293 293 291 291 292 291 290 290 290 291 292 293 293 293 293 293 293 294 294 296 296 297 298 298 297 298 299 298 298
288 289 292 289 289 289 290 289 289 289 289 289 290 294 295 291 290 290 290 290 289 289 289 290 291 291 292 292 292 292 293 293 293 293 294 295 296 296 298 299 298 298 298
289 289 289 289 289 289 289 289 289 289 288 289 290 292 294 291 291 290 290 289 290 290 291 290 290 291 291 290 290 290 289 290 292 293 293 294 295 296 297 297 298 298 298
289 288 288 288 289 290 289 288 288 289 289 290 290 290 291 291 290 289 289 289 289 289 289 290 290 290 291 292 292 292 290 290 292 294 294 295 295 296 297 298 297 300 302
288 288 288 288 288 288 288 288 288 290 290 290 290 290 290 291 290 289 289 289 288 287 288 288 289 290 290 291 293 294 293 294 295 294 294 295 297 298 299 301 302 302 302
288 288 288 288 288 287 287 288 288 289 289 290 290 290 291 290 289 289 289 287 287 286 287 287 289 290 290 291 292 293 293 293 294 295 296 298 300 302 302 302 302 302 302
288 288 287 288 288 288 287 287 288 289 289 290 290 291 290 290 290 289 288 287 286 286 286 288 289 290 291 291 292 293 293 293 295 296 299 302 302 302 302 302 302 301 301

GFSGL_sfc_thetae_054.txt.gz
Theta_e
290 290 289 290 290 290 290 291 291 291 291 292 293 293 293 293 293 292 293 293 292 292 292 293 293 295 294 295 296 297 297 298 295 296 297 299 300 304 309 311 312 313 314
290 289 289 289 290 289 289 289 290 291 292 292 292 292 292 293 293 292 292 293 292 292 292 292 292 295 295 296 296 295 297 298 297 295 296 298 299 302 305 306 309 313 310
289 289 289 289 289 288 289 290 291 291 291 292 292 292 292 292 293 292 292 293 293 293 293 292 292 293 293 296 296 295 296 298 299 298 297 299 299 300 301 304 306 307 312
289 288 288 288 288 289 289 290 291 291 291 291 292 293 293 293 293 293 293 293 292 294 294 293 293 293 293 295 296 297 296 296 298 298 297 299 298 299 300 300 300 301 305
288 288 288 289 289 289 290 290 291 292 292 292 293 293 293 293 294 294 294 293 295 293 295 295 295 296 300 299 297 297 297 295 294 297 297 298 296 295 297 299 299 300 302
287 288 289 289 289 289 290 290 291 292 292 292 292 292 292 293 297 299 298 295 295 295 293 295 296 299 299 302 303 304 301 297 295 293 295 296 294 295 296 298 299 295 297
286 287 288 288 288 289 290 291 290 290 291 291 292 292 292 293 298 300 300 297 296 295 295 294 295 296 298 297 300 302 301 306 303 297 295 295 294 295 296 295 297 296 296
285 286 287 288 288 290 290 290 290 291 291 292 292 292 292 293 299 300 301 297 295 294 294 294 295 295 296 296 296 296 298 298 299 301 299 298 298 300 300 299 298 297 298
286 286 288 288 288 290 289 290 291 291 291 292 292 292 292 293 298 300 299 296 295 293 294 293 294 293 298 300 297 295 295 295 302 304 303 304 306 305 303 299 296 295 294
286 287 288 288 289 290 290 290 291 292 292 293 293 294 296 295 298 299 299 296 293 292 292 293 298 296 300 300 297 296 293 292 295 297 300 302 305 305 308 300 298 295 293
287 288 288 289 290 291 291 291 291 292 292 292 292 293 294 295 295 299 300 297 294 292 291 291 293 298 300 301 301 296 295 295 296 295 297 296 297 298 299 299 298 298 295
287 287 288 290 291 291 291 292 292 291 291 291 291 292 296 297 299 299 300 300 299 293 291 292 292 298 299 300 300 301 301 300 296 293 294 292 291 292 294 297 300 299 300
287 287 288 290 290 291 291 291 290 291 290 290 291 294 295 296 297 300 301 301 301 297 293 294 297 299 299 299 301 302 300 297 293 291 291 291 292 293 293 296 300 304 299
286 287 289 289 291 291 292 291 290 290 291 293 294 294 294 294 295 297 298 297 298 298 298 295 296 297 299 297 297 298 298 296 295 291 291 293 293 293 294 296 297 300 299
286 289 289 290 290 290 291 291 292 293 297 294 294 295 293 293 295 300 301 295 294 294 294 293 292 290 290 289 290 292 293 295 292 292 292 292 293 294 296 296 297 299 299
288 289 289 290 290 290 290 290 295 298 298 298 299 297 296 298 299 300 302 298 297 296 290 288 288 291 288 288 288 289 291 293 292 293 292 293 294 296 296 299 297 297 298
289 289 289 290 290 289 289 289 289 294 297 297 298 298 298 298 297 297 298 297 296 295 288 287 287 287 288 288 288 289 289 291 292 293 293 295 297 298 298 298 298 298 298
289 291 289 290 290 289 289 289 291 290 289 290 295 296 297 296 296 296 295 293 290 290 290 291 291 293 294 293 293 293 293 290 291 293 294 295 297 297 298 296 298 298 298
288 288 290 290 290 291 290 290 290 289 289 290 291 294 295 295 295 294 294 290 288 288 289 290 292 292 292 293 294 296 295 294 293 292 294 295 297 297 297 297 298 300 299
287 290 291 290 289 289 290 289 289 289 289 289 290 291 292 292 289 289 290 289 288 288 289 289 289 290 291 292 293 293 295 296 296 295 295 295 296 298 298 297 298 299 298
287 288 291 289 289 289 289 288 288 288 288 289 290 292 293 289 288 288 288 288 288 288 288 288 289 290 290 290 290 291 292 293 294 296 295 295 296 296 298 299 299 299 298
287 288 288 288 289 289 289 289 288 288 289 289 290 291 293 289 288 288 288 287 287 288 288 288 288 289 289 289 290 290 290 290 293 294 295 296 297 298 299 299 298 298 298
287 288 288 288 289 290 288 288 288 289 289 289 290 290 289 288 288 287 287 287 287 287 288 288 288 287 288 289 291 292 290 290 292 294 294 295 295 296 297 297 297 296 296
288 288 287 287 288 288 287 287 288 289 289 289 290 290 288 288 288 287 286 287 287 287 287 287 288 288 288 288 291 293 294 293 293 293 295 295 294 296 297 296 297 297 296
287 287 287 287 287 287 287 287 288 288 289 290 289 289 289 288 287 287 287 287 287 286 287 287 288 288 289 289 292 293 293 292 294 294 295 296 297 297 298 298 297 298 301
287 288 287 287 287 287 287 287 287 288 289 290 288 289 288 288 288 288 288 287 286 286 287 287 288 288 289 290 292 293 293 293 294 295 296 297 297 298 301 302 302 301 301

GFSGL_sfc_thetae_057.txt.gz
Theta_e
289 289 289 289 289 289 289 289 289 290 291 291 291 291 291 291 292 291 291 291 291 291 292 291 291 292 291 292 293 294 294 294 291 294 295 298 298 300 304 307 310 311 315
289 288 288 288 288 288 288 288 289 290 291 291 291 291 291 291 292 292 291 292 291 291 291 292 292 293 292 292 292 292 293 294 294 292 294 295 296 298 301 302 308 312 313
288 288 288 288 287 287 288 289 290 290 290 290 291 290 291 291 293 293 292 292 291 291 291 291 292 293 291 291 291 291 293 295 295 294 294 296 298 297 298 301 302 305 311
288 288 287 287 287 288 289 289 289 290 289 290 291 292 292 292 293 293 293 292 292 293 292 293 293 293 292 292 291 291 294 293 294 295 295 296 295 296 301 298 301 300 304
287 287 287 288 288 288 288 289 289 290 290 291 292 292 292 293 293 293 293 293 293 293 294 295 295 296 300 298 293 291 293 294 294 294 295 296 294 295 297 297 299 298 299
286 286 287 288 288 288 288 289 289 290 291 291 291 292 292 293 297 299 298 296 296 295 294 295 296 298 298 302 302 303 299 293 293 294 294 294 293 295 298 297 297 299 297
285 286 286 287 287 288 288 289 290 290 291 291 291 292 292 293 299 301 301 298 296 296 296 296 294 296 298 296 299 301 302 303 302 296 295 295 294 298 299 298 296 297 296
285 285 286 286 287 288 288 288 290 291 290 291 292 292 292 293 300 302 303 299 297 296 297 296 293 293 294 295 294 294 294 295 298 298 298 298 298 300 301 301 298 298 298
285 285 286 287 287 287 287 289 290 291 291 291 292 293 293 293 299 302 301 298 295 295 296 295 293 292 297 299 295 294 294 295 301 302 300 303 305 305 303 299 295 295 293
285 286 287 287 287 287 288 290 291 291 292 293 293 293 295 295 298 301 301 298 295 294 295 294 298 295 298 299 295 295 293 294 295 297 299 301 303 302 307 300 298 295 292
286 287 287 287 287 289 290 291 291 292 292 292 292 293 294 295 297 302 302 298 297 294 293 292 292 298 299 299 300 296 296 296 296 295 296 298 298 299 301 300 298 298 293
286 286 286 287 289 290 290 292 292 291 291 291 291 293 296 297 299 300 301 302 301 296 293 292 292 297 298 299 299 301 302 300 294 294 293 293 293 294 298 300 299 299 298
285 285 286 289 290 291 290 291 290 291 290 291 293 292 293 295 296 300 302 304 303 298 296 295 296 298 299 298 300 301 302 299 295 293 293 292 292 293 295 296 298 298 298
284 285 288 289 290 290 291 292 291 290 291 293 292 292 292 293 294 297 298 298 300 298 298 296 296 296 298 297 296 296 298 297 295 293 293 291 291 292 292 294 296 296 295
284 285 288 289 289 289 291 291 291 292 295 293 293 294 292 292 294 298 298 295 294 295 296 293 289 289 289 291 292 294 295 297 294 293 292 291 291 292 293 294 295 298 294
285 287 288 289 289 290 290 290 294 296 297 297 297 296 295 297 298 298 298 298 297 296 291 289 286 289 287 287 288 289 293 294 293 292 291 291 291 292 293 295 295 295 295
286 288 288 288 289 289 289 289 288 292 295 296 297 297 297 296 296 296 296 295 296 294 287 285 285 286 287 287 287 287 288 292 291 292 291 292 293 294 297 297 297 295 295
288 290 288 289 289 289 289 289 290 289 288 289 294 296 296 295 295 294 294 292 288 289 289 289 290 291 290 290 289 288 288 289 290 291 291 292 294 297 296 296 296 297 297
288 287 289 290 289 290 290 290 290 289 289 289 291 293 293 293 293 293 292 288 287 287 287 288 288 289 291 293 293 294 294 294 290 290 291 292 293 294 296 297 297 298 298
287 290 290 289 289 289 289 289 288 288 288 289 289 289 290 289 287 287 287 287 287 287 287 287 288 289 289 290 291 293 295 294 293 292 291 291 293 294 296 297 298 298 297
286 288 290 288 288 289 289 288 288 288 288 289 289 291 292 287 286 286 286 286 286 286 286 287 288 288 288 289 289 290 291 294 295 295 294 294 295 295 298 298 298 298 297
287 287 288 287 288 288 288 289 288 288 288 288 289 289 291 287 286 285 286 286 286 287 287 288 288 288 288 288 289 290 290 290 293 296 295 294 294 295 296 298 298 297 298
287 287 287 287 288 290 288 288 288 288 288 289 289 288 288 287 286 286 286 286 286 286 287 287 287 287 289 289 290 291 290 290 292 294 296 295 295 295 297 297 298 298 298
287 287 287 287 288 288 287 287 288 289 289 289 288 287 287 287 287 287 287 287 287 287 287 287 287 286 286 288 289 291 293 293 293 294 295 296 296 297 298 298 298 298 297
287 287 287 286 287 287 287 287 287 288 289 289 288 288 287 288 287 287 286 286 286 286 287 287 287 286 287 287 289 293 293 292 293 294 295 296 296 297 297 296 297 297 297
287 287 287 287 287 287 286 286 286 287 288 289 289 288 288 288 287 286 285 285 285 286 287 287 287 287 288 290 293 293 293 293 293 294 296 297 296 297 297 297 297 296 296

GFSGL_sfc_thetae_060.txt.gz
Theta_e
288 288 288 287 288 288 287 288 288 289 289 289 290 290 290 290 290 290 290 290 290 290 290 290 290 291 290 290 290 291 291 291 289 292 293 293 295 297 300 304 308 309 310
288 287 287 287 288 286 286 287 288 288 290 289 289 289 290 290 290 290 290 292 291 291 291 290 290 292 291 291 290 289 290 291 291 289 292 292 293 296 298 299 302 307 309
287 287 287 287 286 286 287 288 288 289 289 289 289 289 289 290 290 292 292 292 292 292 292 291 291 292 290 291 291 291 290 292 291 291 291 293 294 295 297 299 300 302 308
287 286 286 286 286 287 288 288 288 288 288 288 289 289 290 291 292 292 292 292 292 292 293 293 292 292 292 291 292 291 291 290 291 291 292 292 294 296 297 297 298 300 303
286 285 285 286 286 286 287 288 288 288 289 289 290 292 292 292 293 292 293 294 293 293 293 293 294 296 299 298 293 292 291 289 290 290 291 291 292 295 295 298 298 298 299
284 285 286 286 286 287 287 287 288 288 289 291 291 291 291 293 297 300 299 297 297 297 295 296 296 299 300 302 302 303 299 291 289 289 290 291 291 295 297 298 297 298 297
284 285 285 286 286 286 287 287 287 287 290 291 291 292 292 293 298 301 302 299 298 298 297 296 296 297 298 296 298 301 300 301 301 295 291 292 292 295 298 297 297 298 296
283 284 284 285 285 286 286 286 287 289 290 291 291 292 292 294 300 302 302 299 299 298 298 297 296 296 296 295 294 293 293 293 294 295 296 294 296 298 300 300 299 299 301
283 283 284 285 285 286 286 288 289 290 290 291 292 293 293 293 299 301 300 297 297 297 298 297 296 295 298 300 295 292 292 292 298 301 302 301 301 303 302 301 298 297 294
283 285 285 286 286 286 288 289 290 291 292 293 293 293 295 294 298 300 300 298 296 296 298 296 299 297 298 299 294 291 291 291 294 296 297 300 301 301 305 302 300 297 294
284 285 285 286 286 288 289 290 291 291 292 292 292 293 294 295 297 300 301 298 298 297 296 295 294 299 299 299 299 293 292 295 296 296 295 297 298 300 302 302 301 300 295
284 285 285 285 288 290 290 290 290 291 291 291 291 292 295 296 297 299 301 302 303 299 296 295 295 297 298 298 298 299 300 299 295 293 294 295 295 296 299 300 300 300 300
284 284 285 286 289 290 290 290 290 291 290 290 291 292 293 294 294 299 300 301 301 297 296 296 296 297 298 297 299 300 301 298 294 292 293 291 293 296 299 300 300 300 298
283 283 285 288 289 289 290 291 290 290 290 290 292 291 292 292 293 294 296 296 297 298 297 295 296 296 297 296 296 294 298 298 294 293 293 293 294 295 296 297 298 297 296
283 285 287 287 288 289 290 291 291 292 294 292 292 293 291 290 293 296 295 295 295 296 296 293 289 288 288 289 293 291 295 296 295 294 292 290 293 294 294 296 296 296 294
282 286 287 287 288 289 289 289 294 295 296 296 296 296 294 296 296 296 296 295 296 297 291 289 286 287 286 286 288 291 291 294 294 293 293 293 292 292 293 295 296 295 295
283 287 288 288 288 288 289 288 287 291 295 295 296 296 295 295 294 294 294 294 294 293 289 288 285 286 286 286 287 287 289 293 293 293 292 291 292 293 294 295 296 296 295
285 290 286 288 289 289 289 289 289 288 287 289 293 295 294 293 293 292 292 291 287 288 288 287 288 289 291 290 287 287 287 288 289 291 291 291 292 294 294 295 295 295 295
286 287 287 289 289 290 289 289 289 289 288 289 290 292 292 292 291 291 290 287 285 285 286 286 288 289 289 290 292 292 289 289 289 289 289 290 291 295 295 296 296 297 297
287 289 289 288 288 288 289 288 288 288 288 288 288 288 289 287 285 285 286 286 286 285 286 287 288 288 289 289 290 291 293 294 293 289 292 290 291 292 294 297 297 296 296
287 286 290 288 287 288 288 288 288 288 288 288 289 289 291 285 285 285 285 286 285 285 285 287 287 288 288 288 289 290 290 292 294 292 290 294 295 295 293 298 298 299 297
284 286 287 287 287 288 288 288 288 288 288 288 287 288 290 287 287 286 286 286 286 287 287 287 286 287 288 288 288 289 290 290 292 294 294 294 294 295 295 297 298 298 297
287 286 287 287 287 289 288 288 288 288 288 287 287 287 288 287 287 286 285 286 286 286 287 287 287 287 288 288 289 289 289 290 292 294 295 294 293 294 295 296 298 297 297
287 286 286 287 287 287 287 287 287 288 288 288 287 288 287 287 287 285 285 286 286 286 287 287 286 286 286 287 288 289 290 292 293 293 295 296 294 295 295 295 296 297 296
287 286 286 287 286 286 286 286 286 287 288 288 288 288 288 287 286 285 285 286 286 286 286 286 286 286 286 287 288 289 290 292 293 293 295 297 296 296 296 297 298 298 298
286 286 286 287 286 286 286 285 286 287 287 288 288 288 287 285 285 285 285 285 285 286 286 286 286 286 287 290 293 293 293 293 292 293 296 297 297 297 297 297 298 297 297

GFSGL_sfc_thetae_063.txt.gz
Theta_e
295 295 294 294 295 295 294 294 294 294 294 293 293 293 293 293 294 294 294 294 293 294 294 293 293 294 294 295 295 295 294 294 292 294 296 298 299 301 302 305 306 306 306
294 294 293 294 294 293 293 293 293 292 293 293 293 293 293 293 293 293 293 293 293 293 293 293 293 294 294 294 295 294 294 295 294 291 294 296 297 300 301 302 303 303 305
292 292 293 293 292 292 292 292 292 292 292 293 292 292 292 293 293 293 293 293 293 293 294 293 293 294 293 293 293 293 294 294 294 293 292 296 297 299 300 302 303 304 305
292 292 291 292 292 291 292 292 291 292 291 292 292 292 293 293 293 294 294 294 294 294 294 294 294 294 294 294 294 293 294 295 295 294 294 294 297 298 300 298 300 303 303
291 291 291 291 291 291 291 291 291 291 292 292 292 293 294 294 294 294 295 295 295 295 296 295 295 296 300 298 294 294 294 294 294 293 292 293 294 296 295 299 299 300 303
290 289 290 290 290 290 290 290 291 291 292 292 292 293 293 294 298 300 299 297 298 297 297 298 299 301 301 304 304 303 296 294 292 291 292 292 293 296 297 298 299 299 297
289 289 289 289 289 289 290 290 290 291 291 292 292 293 293 294 299 302 302 299 298 298 298 298 298 300 300 298 301 303 303 303 301 294 292 293 293 297 297 297 298 299 300
288 288 288 288 288 289 289 289 290 291 291 292 292 293 293 295 300 301 302 299 298 297 297 297 297 297 298 298 296 296 296 298 298 298 297 297 298 298 299 299 300 300 303
287 287 288 288 288 288 289 289 290 290 291 292 293 293 293 294 299 301 300 298 297 297 298 298 298 298 301 302 297 294 294 296 299 300 301 301 301 301 300 300 299 297 294
287 287 288 288 288 288 289 289 290 291 291 292 292 294 295 295 298 300 299 297 296 296 298 298 302 300 302 301 297 296 294 294 296 297 298 300 301 301 303 300 300 295 295
288 288 288 289 288 289 290 291 291 291 291 292 292 293 294 295 297 299 300 297 296 296 298 298 298 301 301 301 300 297 296 297 297 297 297 298 298 301 301 302 303 298 296
287 287 287 288 289 289 290 291 291 290 290 290 291 291 294 295 297 298 299 299 300 297 296 296 296 297 298 298 298 298 300 300 298 297 296 295 295 296 298 302 303 302 302
287 287 287 288 289 290 289 289 290 290 290 290 290 291 292 294 295 297 298 298 299 297 298 297 296 297 297 298 298 298 298 299 298 293 293 295 296 296 300 301 302 302 301
286 286 287 288 289 289 290 290 290 290 289 290 291 291 292 291 293 295 294 294 295 297 298 297 298 298 298 298 297 295 298 298 296 296 296 297 297 298 300 301 299 299 301
286 286 287 288 288 288 289 290 291 291 293 292 292 292 290 290 292 295 294 293 292 295 296 294 294 295 296 296 296 295 296 294 297 297 297 296 296 296 299 301 300 300 300
286 286 287 289 289 289 289 289 294 295 296 296 296 295 294 294 295 294 294 294 294 295 292 291 291 292 293 293 294 293 293 294 296 297 297 297 294 295 296 298 297 298 300
286 286 288 287 287 288 288 288 287 291 294 294 295 295 295 293 293 293 293 292 293 292 287 288 289 290 291 293 293 293 291 292 296 296 297 297 295 296 297 297 296 297 300
287 289 287 287 288 288 288 288 289 288 287 288 293 293 294 292 292 291 291 290 287 288 287 287 287 289 290 291 293 294 293 293 294 296 297 296 297 297 297 297 297 296 297
287 287 288 289 289 289 289 289 289 289 288 289 289 291 292 292 291 291 290 287 285 285 286 287 287 288 289 290 292 294 294 294 294 295 297 297 298 298 297 298 297 297 297
288 289 289 289 288 288 288 288 288 288 288 288 287 288 290 290 287 287 288 287 286 286 286 286 287 288 289 289 289 291 292 295 295 296 296 298 299 298 298 298 298 297 297
289 287 289 288 288 287 288 288 288 288 288 288 288 289 291 288 287 287 286 286 286 286 286 286 286 287 288 289 289 289 291 292 296 296 296 296 298 297 299 299 298 299 298
287 287 287 287 288 287 288 288 288 288 288 288 288 289 291 288 287 287 286 286 286 287 287 287 286 287 287 288 288 288 289 290 293 295 295 296 298 297 298 299 298 298 298
287 286 287 287 287 289 287 287 287 287 288 288 287 288 288 288 287 286 286 286 286 286 287 287 287 287 287 288 288 289 289 290 292 295 295 294 295 296 296 297 298 298 299
287 286 286 287 287 287 286 286 286 288 288 288 288 288 287 287 286 286 286 286 286 286 287 286 286 286 287 288 288 289 290 291 293 294 295 295 295 295 295 296 298 298 300
287 286 286 287 287 286 286 286 286 286 287 287 287 287 287 286 286 286 286 286 286 286 286 286 286 286 286 287 288 289 290 290 292 293 295 297 297 296 297 296 297 299 299
287 287 287 287 286 287 286 285 285 286 286 286 287 286 287 286 286 286 286 286 286 286 286 286 286 285 288 289 290 290 290 291 292 293 295 297 297 296 297 297 297 299 300

GFSGL_sfc_thetae_066.txt.gz
Theta_e
301 301 301 301 300 300 299 299 298 298 297 297 296 296 297 297 298 297 297 298 297 297 297 296 295 296 295 296 296 295 294 294 292 295 298 300 300 300 301 304 305 305 308
300 300 300 300 299 298 298 297 297 296 297 296 296 296 296 297 297 297 297 297 295 294 295 295 295 295 295 296 296 295 295 294 292 290 295 297 298 300 301 301 303 304 305
299 299 299 298 298 297 296 296 296 295 295 295 295 296 296 297 297 297 297 296 295 294 294 295 295 295 294 295 295 295 296 296 295 292 292 295 296 298 299 300 301 302 303
298 298 297 297 296 296 295 295 295 295 294 295 296 296 297 297 297 297 296 295 295 296 296 296 296 297 295 294 294 294 295 294 295 294 293 294 294 296 298 297 298 301 301
297 296 296 296 295 295 294 294 294 294 295 296 296 296 297 296 296 296 297 297 297 297 298 297 298 299 302 301 296 295 295 294 295 295 295 294 294 294 294 298 297 299 301
296 295 295 294 294 294 293 293 294 294 295 296 295 295 295 296 299 300 300 298 299 299 298 300 301 301 302 305 306 306 301 295 295 296 296 295 293 294 297 297 297 296 295
295 294 293 293 293 293 293 293 293 294 295 293 293 293 293 295 299 301 302 300 300 300 300 301 299 300 301 300 303 304 304 305 302 297 294 295 294 297 297 296 296 297 297
293 293 293 292 292 292 292 293 293 294 293 292 293 294 294 295 299 301 302 300 299 298 299 298 297 297 299 298 298 297 298 298 299 300 297 295 296 297 298 298 298 299 301
293 292 292 292 291 292 292 292 294 293 293 293 294 294 294 295 299 300 300 298 298 298 298 298 298 299 302 303 299 297 296 296 300 302 302 301 301 302 301 299 298 297 296
292 291 292 292 291 291 292 292 292 292 293 292 292 294 296 295 298 300 299 298 296 298 296 298 301 300 304 305 300 298 294 294 296 296 298 299 301 301 302 299 300 297 295
292 292 292 292 291 292 292 291 291 291 292 292 292 294 294 295 296 299 299 296 296 295 294 297 297 300 301 301 301 299 297 298 298 297 297 298 299 300 300 302 302 302 298
292 292 292 291 291 292 291 290 291 291 291 291 291 291 294 296 297 298 299 298 298 293 293 297 298 298 299 298 298 299 300 299 299 297 296 296 298 297 299 302 302 303 304
291 292 291 291 292 292 290 290 291 291 290 290 290 291 291 294 295 297 298 298 297 294 294 298 299 299 299 299 298 299 299 300 299 296 296 296 297 298 299 298 302 304 304
291 291 290 290 291 291 291 292 291 290 289 290 291 291 291 292 294 295 295 295 296 294 295 296 297 299 298 298 299 299 300 300 297 297 297 296 299 297 295 297 299 300 298
290 290 290 290 289 289 291 291 291 292 293 292 292 292 290 291 292 294 293 293 293 293 293 296 293 296 297 297 296 297 296 296 297 299 297 297 296 295 298 300 298 299 296
290 289 290 289 288 289 290 290 293 294 295 295 295 295 294 294 294 294 294 293 293 294 290 289 292 293 293 295 295 295 294 293 296 298 298 298 296 297 298 298 298 299 300
289 289 289 288 289 289 289 288 287 291 294 294 294 295 294 294 293 293 293 292 291 291 287 287 287 289 291 293 294 294 292 292 296 298 298 298 297 296 298 296 296 300 301
290 290 288 289 290 289 289 288 289 288 288 289 293 293 293 294 293 292 292 291 288 288 287 287 287 288 289 290 292 293 294 294 295 297 297 297 297 297 297 297 296 299 300
290 289 289 290 291 290 289 288 289 289 288 289 291 292 293 293 292 292 291 288 286 286 286 286 287 288 288 289 290 293 294 295 296 298 298 299 299 299 298 298 298 298 300
290 290 289 290 289 289 288 288 288 289 289 288 290 290 291 292 289 288 288 287 287 286 286 286 286 287 287 289 289 290 293 294 296 299 299 300 300 300 298 298 298 298 298
289 289 289 288 289 289 288 288 287 288 288 289 289 290 292 289 288 287 287 287 287 287 286 287 286 287 287 288 289 289 290 293 295 297 299 299 299 298 299 299 299 299 299
290 288 287 288 289 288 288 288 287 287 288 288 288 289 291 288 288 287 287 287 288 288 288 288 286 286 287 287 288 288 289 290 293 297 298 298 299 299 299 299 299 299 298
289 287 287 288 288 289 287 287 287 287 288 288 288 287 288 288 287 287 287 287 287 287 287 288 287 287 288 288 288 289 289 289 292 296 298 297 297 298 299 299 299 299 298
289 287 286 288 288 288 288 287 286 287 287 287 288 288 288 287 287 287 287 287 287 287 287 287 287 287 287 288 288 290 290 291 292 294 296 296 296 297 299 297 299 300 299
288 287 287 288 287 287 286 287 286 286 286 288 287 287 287 287 287 287 287 287 286 286 286 286 286 287 288 288 288 288 290 290 292 293 296 297 296 296 297 297 298 300 300
288 287 287 287 287 287 286 287 286 286 286 287 287 287 287 287 287 287 287 286 286 286 286 286 286 285 287 288 289 289 289 290 290 292 295 297 297 297 297 296 297 299 300

GFSGL_sfc_thetae_069.txt.gz
Theta_e
303 303 303 303 303 303 302 301 301 300 299 298 298 298 297 297 297 297 297 298 298 298 297 297 296 297 296 296 296 295 294 293 290 293 296 298 298 299 301 303 304 303 304
303 302 301 302 302 301 301 300 299 298 298 297 296 296 296 296 297 297 297 297 297 296 296 296 296 296 295 296 296 295 295 296 293 291 294 295 295 298 299 300 301 302 303
302 301 301 301 301 300 299 298 297 297 296 296 296 295 295 296 297 297 297 297 296 296 296 296 296 295 295 296 296 295 296 296 296 294 293 295 296 296 296 298 299 301 302
300 300 300 300 300 298 297 297 296 296 295 295 295 296 297 297 297 296 296 296 296 297 297 297 297 296 295 295 295 296 296 294 294 293 293 293 295 296 296 294 295 299 300
299 299 299 299 298 296 296 296 295 295 295 295 295 296 296 296 296 296 297 297 297 297 298 298 298 300 303 301 297 296 295 294 294 293 292 293 294 294 293 295 294 297 299
299 298 298 296 295 295 295 294 294 294 295 295 295 295 293 295 298 299 299 297 298 298 298 299 299 301 302 304 305 305 303 295 293 293 292 292 294 295 296 295 295 295 294
297 296 295 295 294 294 294 293 294 294 294 294 294 293 293 294 299 300 301 298 298 298 299 299 299 300 301 299 302 304 304 305 305 296 293 294 294 297 296 295 295 295 295
295 295 295 294 293 293 293 293 293 293 294 293 293 293 294 295 299 300 301 298 298 298 298 298 298 298 299 299 298 298 298 298 299 300 299 297 297 299 298 297 297 297 298
294 294 294 293 292 292 292 292 293 293 291 292 293 293 293 294 298 300 299 297 297 297 297 299 297 297 301 303 299 299 298 298 302 304 304 303 303 302 300 297 295 295 294
295 294 293 293 293 292 292 292 293 292 291 292 292 293 295 294 297 299 299 297 296 295 296 296 297 298 302 302 299 299 298 297 297 297 299 300 302 301 303 299 297 294 295
295 294 293 293 293 292 292 293 293 291 291 291 292 293 294 295 296 299 299 296 295 294 294 294 294 298 301 301 300 299 297 298 298 297 297 298 298 299 299 300 300 298 296
294 293 293 293 292 292 292 293 291 291 292 291 291 291 293 294 297 297 299 298 297 293 294 294 295 298 301 300 300 299 299 300 299 297 297 296 296 297 298 299 300 301 301
293 293 293 292 292 292 291 291 291 292 291 290 290 290 292 294 293 297 296 296 296 293 294 295 297 299 300 300 299 299 299 299 298 296 296 296 297 299 300 300 300 302 302
292 292 292 291 291 292 291 291 292 290 290 290 290 290 290 292 293 293 294 294 295 294 294 293 295 298 299 299 299 298 298 298 296 296 296 298 299 298 296 298 296 298 298
292 292 291 291 290 290 290 291 291 292 292 291 291 291 290 291 292 294 293 292 292 292 293 290 290 294 294 295 296 296 296 294 295 295 297 297 297 297 296 297 296 298 296
291 291 290 290 289 289 290 290 293 294 295 295 295 294 293 294 295 296 294 294 293 293 289 287 286 288 290 292 292 294 295 293 293 296 298 297 296 293 295 298 298 296 296
291 291 290 290 289 289 290 288 287 290 294 294 295 295 295 294 295 294 294 293 292 291 287 286 286 287 288 289 292 293 292 292 295 296 297 297 297 297 297 296 295 295 295
292 292 290 288 290 290 289 289 288 287 287 289 293 294 295 295 295 294 292 291 288 289 287 286 286 286 287 288 290 291 293 293 295 296 298 297 297 297 297 295 296 299 299
291 291 290 290 290 290 290 289 288 288 288 288 290 291 293 294 293 293 292 288 287 287 287 286 286 286 287 288 289 290 292 293 295 297 297 297 298 299 297 298 297 299 300
291 291 290 289 289 289 290 288 287 287 287 287 288 288 290 290 288 288 288 288 287 287 287 286 287 287 287 287 288 289 290 293 294 297 298 299 299 299 298 298 298 297 298
290 290 290 288 289 289 289 287 287 287 286 287 288 290 291 288 287 287 287 287 287 287 287 287 287 287 287 287 288 288 289 291 293 294 298 298 299 298 299 299 298 298 298
290 290 288 288 289 289 289 288 287 286 287 286 287 288 290 288 287 287 287 287 287 287 287 287 286 287 287 287 287 287 288 290 291 294 296 298 297 299 299 299 299 298 298
290 288 287 287 289 289 287 288 287 287 287 287 288 287 288 288 287 287 287 287 287 287 287 287 287 287 287 288 288 289 288 289 291 293 294 296 297 297 298 298 298 297 297
289 288 287 288 288 287 287 286 287 287 287 287 287 287 287 287 287 287 287 287 287 287 287 286 287 286 287 287 288 289 289 290 293 293 295 297 296 297 298 298 299 298 298
289 287 287 288 287 286 286 286 287 287 287 287 287 287 287 287 287 287 287 287 287 286 286 286 286 287 287 288 288 288 289 290 291 293 295 298 296 296 297 297 299 299 299
288 288 287 288 288 286 286 285 285 287 286 287 287 287 287 287 287 287 287 286 286 286 286 286 286 286 287 288 289 289 289 290 290 291 294 298 296 295 297 297 297 299 299

GFSGL_sfc_thetae_072.txt.gz
Theta_e
298 297 297 296 297 296 296 296 296 295 294 293 293 293 292 291 291 291 291 292 292 292 293 295 295 296 295 295 295 295 293 293 289 291 291 293 293 293 295 296 298 298 298
297 296 296 296 296 295 295 294 294 292 293 292 292 291 291 291 291 291 291 292 292 292 294 295 294 296 295 295 294 292 292 292 291 288 291 292 292 293 294 293 296 298 298
296 295 295 295 295 294 293 293 292 291 291 291 291 291 291 292 293 293 293 294 295 294 295 294 295 295 294 294 294 294 294 294 293 292 291 293 293 294 293 293 293 294 297
296 294 294 294 294 293 292 292 291 291 291 290 291 292 292 293 293 293 293 294 294 295 295 296 296 295 294 294 295 294 294 294 294 293 292 293 294 294 293 292 291 293 293
294 294 294 293 292 291 291 291 291 291 291 291 292 292 292 292 293 293 294 294 295 295 296 296 297 299 303 302 299 297 295 294 293 293 292 292 292 292 291 292 291 292 292
293 293 293 292 291 291 291 290 290 289 289 291 291 291 290 293 297 298 298 296 296 296 296 298 297 300 301 303 304 304 303 298 293 292 292 291 292 293 293 292 291 290 289
292 292 291 291 291 290 290 289 288 288 288 289 289 290 290 293 298 300 300 297 297 297 297 297 296 298 299 297 300 303 302 303 303 299 294 293 293 295 295 294 292 291 291
291 290 291 290 289 289 289 288 288 288 288 287 289 291 291 292 298 299 300 297 296 296 296 296 296 295 296 296 295 296 298 298 299 299 298 298 297 297 297 297 295 293 293
290 290 290 289 289 289 288 287 287 288 287 290 290 291 291 292 297 299 298 296 295 295 296 295 295 294 298 300 297 296 296 297 303 306 305 303 303 302 301 298 295 293 292
290 290 290 290 289 289 288 287 288 288 289 290 290 291 294 292 297 298 298 296 294 294 294 294 297 296 299 300 296 296 294 296 298 299 300 301 302 303 304 299 295 292 292
291 291 290 290 289 288 287 288 287 288 290 290 291 292 292 293 294 298 299 295 294 292 292 292 293 297 298 300 300 297 296 298 298 297 296 296 295 294 297 300 297 295 292
291 290 289 289 290 290 286 287 287 289 289 290 290 290 292 293 296 297 298 297 296 291 291 292 292 297 298 298 300 301 301 299 297 293 292 291 291 292 295 297 298 298 298
290 289 288 289 289 287 286 286 287 289 289 289 289 289 291 293 292 297 297 297 296 292 292 293 296 295 297 298 300 299 299 295 294 294 291 291 291 293 293 293 296 298 298
288 288 288 288 288 286 287 288 288 289 289 289 289 290 290 290 292 292 293 292 294 293 293 291 292 294 296 297 297 297 296 293 292 292 291 294 295 293 293 294 293 296 293
288 288 288 288 286 285 287 288 290 291 291 290 290 291 290 290 291 295 294 292 292 292 293 288 288 288 289 291 293 294 295 293 292 293 295 295 296 295 295 296 296 295 293
287 288 288 287 285 286 287 289 293 293 294 294 295 294 293 295 296 296 296 295 294 293 289 286 286 286 287 288 289 291 293 293 293 294 295 296 296 295 294 294 294 294 293
287 288 287 287 286 286 287 288 287 289 293 293 294 295 295 295 295 295 294 294 292 291 286 285 285 285 286 287 288 288 289 292 294 295 296 296 296 296 297 296 296 296 295
288 293 286 286 286 287 287 288 288 286 286 287 291 293 293 294 294 293 293 290 286 287 286 286 285 285 286 286 287 289 290 291 293 294 295 295 295 296 295 293 293 293 293
289 287 286 287 287 288 288 288 287 287 286 286 288 290 291 292 292 292 291 286 285 285 285 286 286 286 286 286 287 288 289 290 292 294 296 296 297 297 296 296 298 299 298
288 291 290 287 286 286 288 287 286 286 286 286 285 287 287 289 286 286 287 287 286 286 286 285 286 286 286 286 287 287 288 290 291 293 296 297 298 297 296 295 296 297 298
287 287 290 286 286 287 287 287 286 286 285 285 286 287 291 287 285 286 286 286 286 286 286 286 286 286 286 286 287 287 287 289 290 292 294 296 296 294 295 297 295 295 296
287 286 286 286 286 287 287 286 286 286 285 285 286 286 290 286 286 286 286 287 287 287 287 286 286 286 287 287 287 286 287 287 289 292 293 295 296 297 295 295 295 295 296
286 286 285 286 287 288 286 286 286 285 285 285 285 286 286 286 286 286 286 287 287 286 287 286 286 286 287 287 288 288 287 287 290 292 291 294 296 297 295 294 294 294 294
286 286 286 285 287 286 285 285 285 286 286 285 286 286 286 286 286 286 287 287 287 287 287 286 286 287 287 287 288 288 289 289 289 292 293 294 295 296 297 295 294 295 295
286 286 286 286 286 286 285 285 285 285 285 285 286 286 286 286 287 287 287 287 286 286 286 286 286 286 286 287 287 288 289 289 290 292 293 295 295 295 296 294 298 296 296
285 285 286 286 285 285 285 285 285 285 284 285 286 286 286 286 286 286 286 286 286 286 286 286 285 286 287 288 288 288 289 289 290 290 293 293 295 295 296 296 298 295 296

GFSGL_sfc_thetae_075.txt.gz
Theta_e
296 295 294 294 294 294 293 293 293 292 291 291 291 291 290 290 289 288 288 288 288 289 290 290 291 292 295 295 295 295 294 293 289 291 290 291 290 291 294 295 296 293 295
295 294 293 293 293 292 292 291 291 290 290 290 290 290 290 290 290 289 289 290 289 290 290 293 294 295 294 295 294 294 293 293 291 288 291 291 290 292 293 292 295 297 295
294 293 292 292 292 291 290 290 290 289 289 289 289 289 290 291 291 290 291 290 290 292 293 293 293 294 293 294 294 292 293 294 292 290 290 292 292 293 292 293 293 293 295
293 292 291 291 291 290 289 289 289 289 288 288 288 289 290 291 291 291 290 289 290 293 294 295 295 295 294 293 293 293 293 293 293 292 292 292 292 294 294 292 291 292 292
292 291 291 291 290 289 289 289 289 288 289 288 289 290 289 290 292 292 293 293 294 294 295 295 296 298 301 301 298 297 296 294 293 293 291 292 292 292 291 293 291 292 292
290 291 291 290 289 288 288 288 288 287 287 288 287 288 288 291 296 298 297 295 296 295 296 297 298 299 299 303 303 303 301 297 295 294 292 292 292 293 294 292 291 289 288
290 290 289 289 288 288 288 287 287 286 286 286 286 287 287 290 297 298 299 296 296 296 296 296 296 297 298 297 299 301 300 301 301 297 295 294 293 295 295 294 293 292 291
289 289 288 288 288 288 287 287 286 286 285 285 286 287 290 291 297 298 299 296 295 295 295 295 295 294 295 295 295 295 295 295 297 298 298 298 298 297 297 296 295 295 295
289 287 288 288 287 287 286 286 286 284 284 285 287 289 290 290 297 298 297 295 295 295 295 295 294 293 297 299 295 294 293 295 300 303 304 304 306 304 301 297 294 293 292
289 289 289 288 288 287 286 286 284 285 286 288 288 291 293 291 295 298 297 295 291 294 293 294 296 295 298 298 294 293 293 293 295 296 298 300 301 305 305 298 296 293 293
290 290 289 288 287 287 286 284 285 285 286 286 289 290 291 292 293 298 298 295 293 292 291 290 292 296 297 298 298 294 294 296 297 296 295 296 297 296 297 301 299 296 294
289 289 288 287 288 289 284 284 284 284 285 287 289 289 290 292 296 296 298 297 297 293 290 291 291 296 296 296 297 299 301 299 294 293 291 291 291 291 292 294 297 298 298
288 287 287 287 287 285 284 284 284 285 286 288 288 288 290 292 292 296 297 297 297 293 292 293 296 294 294 294 299 300 298 293 290 289 290 290 290 291 291 292 294 296 296
287 286 286 286 287 284 285 286 285 286 289 288 288 289 290 291 291 292 292 294 295 293 293 292 291 291 292 293 293 295 296 294 291 292 291 290 292 295 293 291 292 293 294
286 286 286 287 284 283 284 285 288 290 291 289 289 290 289 289 292 295 294 293 292 292 292 288 284 286 287 287 288 290 293 293 291 293 293 293 295 295 293 293 295 295 292
286 286 286 286 284 284 285 286 292 293 293 293 294 292 292 295 296 296 295 294 293 293 288 284 285 285 285 286 286 287 288 290 290 293 294 295 295 295 295 295 295 294 293
286 286 286 285 285 285 285 286 286 289 291 291 292 293 294 293 294 294 293 293 291 290 285 283 283 285 285 285 286 287 287 289 291 291 293 295 296 296 295 294 293 294 293
287 291 284 284 284 284 285 286 287 286 285 285 290 291 292 292 293 292 292 290 286 287 285 284 283 285 285 285 286 286 287 289 289 291 292 295 296 296 294 291 291 294 293
287 286 285 286 287 287 286 288 287 286 286 285 286 288 289 291 292 291 291 286 285 285 286 285 284 284 286 286 286 287 287 287 289 291 294 296 296 297 296 296 296 294 295
286 291 290 287 285 285 286 287 286 285 286 285 285 285 287 289 285 285 287 287 286 286 286 286 286 286 286 286 286 286 287 287 288 290 292 295 297 297 296 296 296 297 294
286 286 288 284 284 285 287 286 285 285 285 285 285 287 291 286 285 285 286 286 286 286 286 286 286 286 286 286 286 286 286 286 288 289 291 294 295 294 296 296 296 298 299
285 285 284 285 285 286 287 285 285 285 285 285 285 286 289 286 286 286 286 286 287 287 287 286 286 286 287 287 286 286 286 286 287 289 291 293 295 295 295 294 293 295 297
284 284 285 286 285 288 285 285 285 284 284 284 285 286 286 285 286 286 286 287 287 286 287 286 286 286 287 287 288 287 286 287 288 290 289 291 295 294 293 293 293 294 294
284 283 286 285 286 285 285 285 284 285 285 285 285 285 286 285 286 286 286 287 286 286 286 286 286 286 286 287 287 288 288 289 289 288 290 292 294 295 294 293 293 295 298
284 283 284 285 284 284 284 284 284 284 284 285 285 285 286 286 286 286 286 286 286 286 286 286 286 286 287 287 287 288 289 289 289 289 292 293 294 295 296 293 294 294 297
283 283 285 285 284 285 284 284 284 285 285 285 285 286 286 285 286 285 286 286 285 286 285 286 286 286 287 288 288 288 288 289 288 290 291 293 294 294 296 296 294 294 296

GFSGL_sfc_thetae_078.txt.gz
Theta_e
294 293 292 292 292 292 291 291 290 290 289 290 290 289 289 289 288 287 287 287 287 287 287 288 289 290 290 292 294 294 293 293 289 291 292 291 288 291 293 293 294 293 294
293 292 292 292 292 291 290 290 289 289 289 289 289 289 288 288 288 287 287 288 288 288 289 289 290 294 293 292 293 293 293 293 292 289 291 290 288 291 292 292 293 296 295
292 292 291 291 290 290 289 289 288 288 288 288 288 287 288 288 288 288 288 289 289 289 289 290 290 291 291 292 292 292 292 293 292 290 290 292 292 292 291 291 292 292 295
292 290 290 290 289 288 288 288 288 288 287 287 287 288 288 288 289 289 289 289 289 290 291 292 294 293 293 292 293 292 292 292 292 291 291 292 292 293 292 291 290 291 292
290 290 290 289 288 287 287 288 287 287 287 287 287 287 287 289 290 290 291 291 292 292 294 295 295 297 301 300 297 295 294 293 293 292 291 292 292 292 292 293 292 293 292
289 290 290 288 288 287 287 287 286 286 286 286 286 286 286 289 295 297 295 294 294 294 294 295 297 298 298 301 302 302 301 297 295 294 293 291 292 293 294 294 293 291 289
289 289 288 287 288 287 287 286 286 285 285 284 284 285 286 287 296 298 298 295 295 295 295 295 294 296 297 295 298 300 299 301 300 296 293 293 294 295 295 294 294 293 291
289 288 287 287 287 287 286 286 285 285 284 283 284 286 286 288 296 297 298 295 294 295 294 294 294 294 294 295 294 293 294 295 296 296 295 294 295 298 297 296 295 295 295
288 287 287 287 287 286 286 285 285 283 283 284 286 286 285 288 296 297 297 294 294 293 293 294 294 292 296 299 294 293 293 294 298 301 301 302 303 304 303 299 295 293 292
288 288 288 287 287 286 286 285 283 284 285 286 286 287 290 290 294 296 296 295 292 294 293 293 296 295 297 297 293 291 289 291 294 294 295 297 300 299 302 298 297 293 292
289 288 288 287 286 286 285 283 284 284 284 284 286 288 290 290 292 296 298 294 293 292 293 291 291 296 297 298 297 293 292 294 294 294 294 295 296 296 297 298 299 297 294
289 288 287 286 287 288 283 283 283 282 283 285 287 288 289 291 295 295 298 298 297 293 292 291 291 296 297 295 294 297 299 299 296 293 291 290 291 292 293 296 299 299 299
287 286 286 286 286 285 283 283 282 284 284 287 288 288 289 290 292 296 297 297 298 294 293 294 295 295 294 291 293 297 298 294 292 288 287 287 289 291 291 292 294 297 297
286 285 285 285 287 284 284 284 283 284 287 288 289 287 289 289 290 292 293 294 295 293 294 291 293 291 291 290 290 291 291 293 293 288 289 293 293 289 290 292 291 294 293
286 285 285 286 284 283 283 284 286 287 291 288 288 289 288 288 291 294 294 292 292 292 292 287 284 284 285 286 287 288 288 288 288 288 291 293 293 294 295 295 294 293 292
286 285 285 284 283 283 283 285 290 292 293 293 293 291 291 293 295 294 294 293 293 292 288 283 282 282 285 285 284 285 286 288 288 289 291 292 293 295 295 294 294 293 292
285 286 285 285 283 283 284 284 284 288 291 292 292 292 293 292 293 294 293 292 291 290 285 284 283 283 284 285 285 284 285 287 289 289 290 291 293 295 296 294 293 294 293
286 291 284 283 283 284 284 285 286 286 283 285 289 290 291 292 293 291 291 290 285 287 286 285 284 284 283 285 285 284 285 286 287 288 289 291 294 294 294 291 291 292 293
286 285 285 284 284 286 285 285 287 285 284 285 285 287 289 291 291 290 290 286 285 285 286 285 286 285 284 285 285 285 286 286 287 288 288 291 294 296 295 295 294 292 293
285 289 288 283 283 283 284 286 284 284 284 284 284 285 286 289 285 285 286 286 286 285 286 285 286 286 286 286 286 286 285 286 287 287 288 291 294 296 295 295 296 294 293
284 284 288 282 283 283 285 284 283 284 283 283 284 286 290 286 284 285 285 286 286 286 286 286 286 286 286 287 286 286 285 286 287 288 289 291 293 294 295 296 297 298 293
283 283 283 285 285 284 286 284 284 284 284 284 284 285 288 286 285 285 285 286 286 287 286 286 286 286 286 286 287 286 286 285 286 288 288 289 292 294 294 295 296 297 298
283 283 283 285 285 286 284 284 283 284 284 284 284 285 285 285 285 285 285 286 286 286 287 286 286 286 286 287 288 287 286 286 287 289 286 288 291 293 293 293 295 296 297
283 282 282 284 284 283 284 284 284 285 285 284 284 285 285 285 285 285 285 286 286 286 286 286 286 286 286 286 287 288 288 288 288 288 287 289 291 293 293 291 295 297 297
282 281 281 282 281 283 283 283 284 284 284 284 284 285 285 285 285 285 285 286 286 285 286 286 286 286 287 287 286 287 288 289 288 288 287 290 292 294 294 292 295 296 295
282 282 281 281 282 283 283 283 284 284 284 284 285 285 285 284 285 285 285 285 285 285 285 286 286 286 287 288 288 288 288 289 288 289 289 290 293 294 295 293 295 296 296

GFSGL_sfc_thetae_081.txt.gz
Theta_e
292 291 291 291 291 291 291 290 290 289 288 289 289 288 288 288 287 286 286 286 286 286 286 286 287 287 288 288 289 290 290 290 288 290 290 290 288 290 292 293 294 293 295
292 291 291 291 290 290 289 289 288 288 288 288 288 288 287 287 287 286 286 287 286 286 287 287 288 291 289 289 289 290 290 291 290 288 289 290 287 289 291 291 293 295 293
291 290 290 290 289 289 288 287 287 287 287 287 287 286 287 287 287 287 287 287 287 288 288 288 289 289 288 289 290 290 290 291 291 290 289 292 291 289 290 291 290 291 294
290 289 289 289 288 287 287 287 287 286 286 286 286 287 287 287 287 288 288 288 288 289 290 290 290 290 290 290 291 292 292 291 291 290 291 290 291 291 290 290 290 290 291
290 289 289 289 287 287 287 287 287 286 286 286 286 286 286 287 289 287 288 290 291 292 293 293 293 296 301 299 297 295 293 292 291 291 291 291 291 292 292 294 292 293 292
289 289 289 288 287 286 286 286 286 286 285 285 285 285 284 287 294 297 295 292 294 293 294 295 296 298 297 300 302 302 299 296 294 294 292 290 291 293 293 292 293 292 290
288 289 288 287 287 287 286 286 285 285 284 284 283 283 284 285 295 297 298 294 294 295 294 293 294 295 297 294 297 299 299 300 299 295 293 293 293 294 294 293 293 293 292
288 288 287 286 286 286 286 285 284 284 283 282 283 284 284 287 295 297 298 295 294 294 293 294 293 292 294 295 293 292 293 294 295 295 294 294 294 294 294 294 293 294 295
288 287 287 286 286 286 285 284 284 283 282 283 285 284 284 285 294 297 295 293 293 293 294 293 294 292 296 299 294 292 292 292 297 299 300 300 301 302 301 298 294 293 291
288 288 287 286 286 285 285 284 283 283 284 285 284 285 288 288 293 295 295 294 293 292 293 293 297 296 298 298 293 292 291 291 293 292 293 295 298 297 300 299 295 292 293
289 288 287 287 286 285 284 282 283 283 283 282 284 286 287 289 291 295 297 294 293 292 293 293 293 296 297 298 298 293 291 293 295 294 293 294 294 296 297 298 297 294 292
288 287 286 286 286 287 283 282 282 282 282 283 285 287 290 290 293 294 296 297 297 293 292 293 292 295 297 297 295 295 296 296 293 295 293 293 293 292 292 294 296 297 300
287 286 285 285 285 285 282 282 282 283 283 285 287 288 287 289 290 294 296 296 297 293 293 293 295 295 294 291 292 293 294 289 291 290 288 287 288 290 290 291 294 298 299
286 285 285 284 286 284 283 283 283 283 284 287 288 286 287 288 289 290 291 293 295 292 293 290 293 291 291 290 288 288 288 289 289 288 287 291 292 293 291 290 291 294 295
285 285 284 285 283 282 283 283 285 286 288 289 288 289 287 287 289 293 293 292 291 292 292 289 284 283 283 286 286 286 286 287 287 287 287 288 290 293 294 294 293 293 292
285 284 284 284 282 282 282 284 290 291 292 293 292 291 290 292 293 294 294 293 293 293 288 284 284 284 283 283 285 285 285 286 287 287 287 288 290 292 292 295 295 293 292
284 285 285 284 282 282 283 283 283 287 291 290 291 292 292 292 293 294 293 292 291 290 285 284 284 284 284 283 284 285 284 285 286 287 287 289 290 291 293 294 294 293 292
285 290 284 282 282 282 282 283 284 285 283 284 288 289 291 291 292 292 291 290 285 286 285 285 285 285 285 284 283 285 285 285 286 286 287 288 288 290 292 292 293 292 293
285 284 284 282 282 284 283 284 284 284 283 284 284 287 288 290 292 290 290 285 284 284 285 285 286 286 286 286 285 286 286 285 286 287 287 287 289 291 293 294 293 293 291
284 288 288 282 282 282 283 286 283 284 283 283 283 284 285 287 285 284 285 285 285 285 285 285 286 286 286 286 286 286 285 285 285 286 287 288 290 292 293 294 295 295 292
283 283 287 282 285 282 284 284 284 284 283 283 283 285 290 286 284 284 285 285 285 285 285 285 285 286 286 286 286 286 285 285 285 286 287 288 289 289 294 295 296 295 293
282 282 282 282 284 283 285 284 284 283 283 283 284 285 288 285 284 284 285 285 286 286 286 286 286 286 286 286 286 286 285 285 286 287 287 287 288 290 293 294 296 297 294
282 282 281 282 284 285 283 284 283 283 284 284 284 284 284 284 284 284 285 285 286 286 286 286 286 286 287 287 287 287 286 285 285 287 287 286 287 290 292 293 296 296 296
282 281 281 281 282 283 283 283 283 284 284 284 284 284 284 284 284 284 285 285 286 286 286 286 286 286 286 287 287 287 288 288 288 288 286 286 288 291 292 293 296 296 297
282 281 280 280 282 283 283 283 283 283 284 284 283 284 284 284 284 284 285 285 285 285 286 286 286 286 287 287 287 287 288 288 287 287 286 288 289 292 293 293 296 296 297
281 281 280 280 282 283 283 283 283 284 283 283 284 284 284 284 284 284 285 285 285 285 285 286 286 286 287 288 288 288 288 288 288 289 287 289 289 292 293 294 295 296 297

GFSGL_sfc_thetae_084.txt.gz
Theta_e
292 291 290 290 290 290 290 289 289 288 288 288 288 288 287 287 287 285 285 285 285 285 285 285 285 285 286 286 287 287 287 287 285 289 289 289 288 290 292 294 295 295 295
291 290 290 290 290 289 289 288 288 287 287 287 287 287 287 286 286 285 285 286 285 285 286 286 287 290 288 287 287 288 288 289 288 286 290 290 287 289 290 289 292 295 294
290 289 289 289 289 288 287 286 286 286 286 286 286 286 286 286 286 286 286 285 286 286 287 287 288 288 287 288 288 288 289 290 290 288 288 291 290 289 289 290 290 291 294
289 289 288 288 287 287 286 286 286 286 285 285 285 286 286 286 286 286 286 286 286 288 289 289 289 288 288 288 289 289 290 290 290 290 290 290 291 291 291 290 289 289 290
289 289 289 288 287 286 286 286 286 286 286 285 285 286 285 286 287 286 287 287 287 288 290 291 291 294 299 299 296 295 294 292 291 290 290 291 291 292 291 293 292 292 293
288 289 289 288 287 286 286 286 285 285 285 285 285 284 283 286 294 296 295 291 290 292 293 292 294 298 296 300 301 301 300 295 294 292 290 288 290 292 293 293 293 290 289
287 288 288 287 286 286 286 285 285 284 284 283 283 283 283 285 294 296 297 294 293 294 294 294 292 295 297 293 297 300 299 299 299 294 292 293 292 293 294 293 293 292 292
287 287 287 286 286 286 285 285 284 283 283 282 283 284 284 285 294 296 297 294 293 293 293 294 293 293 293 293 293 293 293 293 294 294 293 292 293 294 294 294 293 293 294
287 287 287 286 285 285 285 284 284 283 282 282 284 283 282 284 293 296 295 292 292 293 294 294 293 293 297 299 294 293 292 292 297 299 300 300 301 301 299 294 292 291 290
287 288 287 286 285 285 284 284 283 281 283 284 284 283 287 287 292 295 295 293 292 292 292 293 296 296 299 299 294 293 291 292 292 291 292 293 296 295 299 296 294 292 291
288 288 287 286 285 285 284 282 281 282 282 282 283 285 286 287 289 295 295 292 292 292 292 292 293 296 297 298 298 294 292 293 292 291 291 292 294 293 294 295 296 296 293
288 287 285 285 286 287 283 282 282 281 281 282 283 285 289 289 292 294 295 296 296 292 292 292 291 296 297 297 295 295 295 294 290 288 290 293 292 293 295 296 297 297 298
286 285 284 285 285 285 282 281 281 282 282 283 285 286 288 289 289 293 294 295 297 294 292 292 296 295 295 291 292 293 292 288 288 287 288 288 289 290 289 290 292 293 295
285 284 284 284 286 283 283 282 282 282 283 285 286 287 287 289 287 289 289 292 294 293 293 292 292 292 291 289 288 288 287 287 287 287 287 288 290 291 292 291 290 292 293
284 284 284 284 283 282 282 282 284 284 287 288 288 287 287 286 288 293 293 292 290 292 292 289 286 285 284 284 284 286 287 286 285 287 286 286 288 289 290 293 293 292 292
284 284 284 284 282 282 281 282 289 290 291 292 291 290 289 292 293 294 294 294 293 292 288 284 284 284 284 284 284 284 286 286 285 286 286 286 287 288 289 292 293 294 292
283 284 284 284 282 281 281 281 282 286 290 290 290 291 291 292 292 292 294 292 291 290 285 284 284 285 285 285 284 284 283 285 286 285 285 286 287 289 289 290 292 293 293
284 289 283 282 281 280 281 281 283 284 282 283 287 289 290 291 291 292 291 290 284 285 285 284 284 285 285 285 285 285 285 285 285 285 286 287 287 287 287 288 290 290 292
284 283 283 282 281 283 282 282 286 284 283 283 283 286 287 290 292 290 289 284 284 284 285 284 285 285 285 285 286 286 286 285 285 286 286 286 287 287 287 289 290 292 292
284 287 287 282 281 282 281 284 283 283 283 283 283 283 285 287 284 284 284 285 284 285 285 284 285 286 286 286 285 286 285 285 285 285 286 287 287 288 288 289 291 293 293
282 282 287 281 281 282 283 283 283 283 282 282 283 285 289 285 283 283 284 284 285 284 285 285 285 285 286 286 286 285 285 285 285 285 286 287 288 287 289 291 294 295 293
282 281 282 281 282 283 284 284 283 283 282 283 283 284 287 284 284 283 284 284 285 285 286 285 285 286 286 286 286 285 285 285 285 285 285 286 286 287 289 292 294 294 293
281 281 281 281 282 285 283 284 283 282 283 283 283 283 283 284 283 283 284 284 285 285 286 286 285 286 287 287 288 287 285 285 286 285 285 285 286 287 290 292 294 296 294
281 281 280 280 283 283 282 283 283 284 283 284 282 283 283 283 283 284 284 285 285 286 286 286 286 286 286 287 288 287 287 288 288 287 285 284 286 287 290 293 295 295 296
281 280 280 279 282 281 283 283 283 283 283 284 283 284 284 284 283 284 284 285 285 285 285 285 286 286 287 287 287 288 288 288 288 287 285 285 287 288 291 293 295 297 296
280 280 280 280 279 282 282 282 282 282 282 283 283 284 284 284 284 284 284 285 285 285 285 285 285 285 287 288 288 289 288 288 288 288 286 285 287 289 293 294 295 296 296

GFSGL_sfc_thetae_087.txt.gz
Theta_e
298 297 297 297 297 297 298 297 297 296 296 295 295 295 294 294 294 294 293 293 293 293 293 293 293 294 294 294 294 294 293 293 290 294 295 296 296 297 298 299 300 300 301
296 296 296 297 297 297 297 296 295 295 294 294 294 293 293 293 294 293 293 293 292 292 292 293 293 294 294 295 294 294 293 294 292 290 293 294 295 297 297 297 298 298 299
296 296 296 296 296 296 295 294 294 293 293 293 293 293 293 293 293 293 292 292 292 292 292 292 293 294 293 294 294 294 294 294 294 292 293 295 296 296 296 297 297 298 298
295 295 295 295 295 295 294 293 293 293 292 293 293 292 292 292 292 292 291 291 292 293 293 294 294 294 293 294 294 294 294 292 292 291 291 293 294 296 295 294 295 296 296
295 295 295 295 294 293 293 293 292 292 292 292 292 292 292 291 291 292 294 294 294 293 294 294 294 296 299 299 296 293 292 292 291 291 290 290 291 292 292 295 294 295 296
294 294 294 294 293 293 292 292 292 292 292 292 292 291 290 290 294 296 296 294 294 294 294 295 297 298 298 300 300 301 299 296 294 293 290 290 290 292 294 294 294 292 290
293 293 293 293 293 293 292 291 292 292 292 291 290 290 290 291 294 296 297 295 294 295 295 294 294 295 297 296 298 300 299 300 299 297 295 293 293 294 295 294 294 295 294
293 293 293 292 292 292 291 291 291 291 291 290 289 290 290 290 294 296 297 295 294 293 294 294 295 295 296 295 294 294 295 296 297 297 296 296 297 297 297 296 296 296 297
293 293 293 292 291 291 290 291 291 290 290 289 289 289 289 289 293 296 295 293 294 294 294 295 295 296 298 299 295 294 294 294 298 301 300 300 301 300 299 296 294 293 291
292 293 292 291 290 290 291 290 290 289 288 289 289 289 290 289 293 295 295 292 292 293 294 294 296 297 299 299 296 296 293 294 294 294 295 296 297 297 299 298 296 290 290
292 292 292 291 290 291 290 290 289 288 288 288 287 289 289 291 291 295 296 293 293 293 292 293 294 296 297 298 298 294 293 295 295 293 292 293 292 294 294 297 298 297 294
292 291 291 291 290 290 289 289 288 288 287 287 287 288 290 291 293 293 295 295 295 293 293 293 293 296 297 297 295 295 295 295 291 289 289 289 290 292 294 296 297 298 300
291 290 290 290 290 290 289 288 287 287 287 287 287 287 288 291 291 294 295 295 296 294 294 294 296 295 294 293 292 293 293 290 288 286 287 288 289 291 293 294 296 298 298
291 290 290 289 291 290 288 288 287 287 287 287 287 288 288 289 290 291 291 292 295 294 294 292 292 292 291 291 289 289 288 289 287 286 287 288 289 289 290 292 292 293 294
290 289 289 289 289 288 288 287 287 289 289 288 288 288 287 288 289 293 293 292 293 293 292 290 288 287 287 287 288 288 288 288 287 287 286 286 287 287 288 290 293 293 292
289 288 289 289 288 287 286 286 289 290 291 291 291 290 289 291 293 293 294 294 293 293 289 286 285 286 286 286 286 287 287 287 287 287 286 286 286 287 288 290 291 291 291
288 288 288 287 287 286 285 285 284 287 290 289 290 290 291 291 292 292 293 292 291 290 286 285 285 284 286 285 285 286 286 287 287 286 286 286 287 287 288 288 289 289 290
288 289 287 287 286 285 286 285 285 285 283 285 288 289 289 290 291 292 290 289 286 287 286 285 286 285 286 284 286 286 286 287 286 286 286 287 288 288 287 287 288 288 288
287 287 288 287 286 286 286 285 285 284 284 284 285 286 287 289 291 289 289 286 285 285 286 285 286 286 285 286 287 286 286 286 287 287 287 287 288 287 286 287 287 289 289
286 287 287 286 285 285 285 285 284 284 284 283 284 284 286 288 285 285 286 286 286 286 286 285 286 286 286 286 287 286 286 286 286 286 286 287 288 288 287 287 287 287 289
286 285 286 284 284 285 285 284 284 284 283 283 284 285 288 285 285 285 285 286 286 286 286 285 285 286 286 286 287 286 285 286 286 286 286 288 288 288 289 288 289 292 293
285 284 284 284 284 284 285 285 284 284 283 284 285 285 287 285 285 285 285 286 286 287 287 286 285 286 286 286 286 286 286 285 286 286 287 287 287 288 289 289 291 295 293
284 284 283 283 283 285 284 284 284 284 284 284 285 284 284 285 285 285 285 286 286 287 287 286 286 286 287 287 288 288 286 286 287 288 287 287 287 288 289 289 292 294 294
283 283 283 283 283 283 283 282 283 283 283 283 284 284 285 285 285 285 286 286 286 287 287 286 286 286 286 287 287 288 288 288 288 288 288 288 287 288 290 290 293 295 295
283 282 283 283 282 282 282 282 282 282 283 283 283 284 285 285 285 285 286 286 286 285 286 286 286 286 287 287 287 288 288 288 288 289 289 288 287 288 289 293 295 296 294
282 282 282 283 282 282 282 282 282 283 283 284 284 284 285 285 285 285 286 286 285 285 285 286 286 286 287 287 288 289 289 289 289 288 289 289 288 289 291 294 296 296 296

GFSGL_sfc_thetae_090.txt.gz
Theta_e
306 305 305 304 305 304 304 304 304 304 303 302 301 300 300 299 299 299 299 298 297 297 298 297 296 297 296 297 297 297 296 295 292 296 297 298 298 298 299 300 301 301 302
304 304 304 304 303 303 303 303 303 302 301 300 299 298 298 298 299 298 297 297 296 296 296 296 295 295 296 296 296 296 296 296 295 292 295 296 297 299 299 299 299 300 301
303 303 302 302 302 303 302 302 300 300 299 299 298 298 298 298 297 297 297 296 296 296 295 295 295 295 294 295 296 296 296 296 295 294 294 297 298 298 298 299 298 298 300
302 302 301 301 302 302 301 300 299 299 298 298 298 298 297 297 297 296 296 296 296 296 296 296 296 295 295 295 295 295 295 295 296 293 292 294 296 297 297 296 295 297 298
300 300 300 300 301 300 299 299 298 298 298 298 297 297 297 297 296 296 296 297 296 295 296 296 297 298 299 299 297 296 296 293 292 292 291 292 292 293 293 296 294 296 298
299 299 300 300 300 299 299 298 298 298 298 298 297 297 296 296 296 297 297 295 295 295 295 295 296 298 298 300 301 301 300 296 294 293 292 290 291 293 294 295 294 293 291
299 299 299 299 298 299 298 298 297 298 298 297 297 297 295 296 297 297 297 295 295 295 295 295 294 295 297 296 298 300 300 300 300 298 295 295 294 296 296 295 295 294 295
298 298 298 298 298 298 298 298 297 298 297 296 296 295 295 295 296 296 296 295 294 294 294 295 296 295 296 297 296 296 296 297 297 298 298 297 298 298 298 297 296 297 298
298 298 298 298 297 297 297 297 297 296 296 295 295 295 294 292 294 296 295 294 294 294 295 296 296 295 297 299 297 295 295 295 300 301 301 301 301 302 301 297 294 294 294
298 298 298 297 297 296 297 296 296 296 294 294 293 293 293 292 294 295 295 294 293 294 294 295 297 296 299 299 297 297 295 294 294 296 297 297 298 298 299 297 296 293 291
298 298 297 297 297 297 296 296 295 294 293 293 291 292 293 293 293 295 295 294 294 293 294 295 296 297 297 298 298 297 294 296 295 294 294 295 295 295 294 296 296 294 293
297 297 297 297 296 295 295 295 294 293 292 290 290 291 292 292 293 295 295 296 295 294 294 295 295 296 297 296 296 296 296 295 293 292 291 291 291 291 293 296 296 297 300
297 296 296 296 296 296 294 293 292 292 290 289 289 288 290 291 291 293 295 295 296 295 295 295 296 296 295 294 294 294 294 291 290 289 288 289 290 291 291 292 294 296 298
296 295 295 294 294 294 293 293 290 290 289 288 288 288 289 289 290 292 292 293 295 294 295 294 293 294 293 292 291 291 290 289 289 288 287 288 290 290 289 291 291 293 293
295 294 294 294 293 292 291 290 290 291 290 289 289 289 288 288 289 293 293 293 293 293 293 292 290 288 288 288 289 289 290 289 287 287 287 287 287 287 288 290 290 290 290
293 292 292 291 290 290 289 289 291 290 291 291 291 290 289 291 293 293 293 294 292 292 290 287 286 287 287 286 287 287 289 289 288 287 287 287 286 286 287 289 291 291 290
291 291 291 289 289 288 288 288 285 288 290 290 290 290 290 291 291 292 293 291 291 290 287 287 286 287 287 286 287 286 287 288 289 288 286 286 286 287 288 289 289 289 288
292 290 290 289 289 289 288 286 285 284 284 285 288 288 289 290 290 292 290 290 286 287 287 287 286 287 286 287 287 286 287 288 288 288 287 287 287 287 288 288 287 287 287
290 289 289 289 289 288 287 285 285 284 284 284 285 287 288 289 291 290 289 286 285 286 287 287 287 287 287 287 286 287 287 287 288 288 288 288 288 288 288 287 287 288 288
289 287 288 288 288 288 286 285 284 284 284 284 284 285 287 289 286 285 286 287 286 287 287 286 287 287 286 286 287 287 287 286 287 287 287 287 288 289 288 288 288 287 287
288 288 287 288 287 286 285 285 285 285 284 284 285 287 289 285 285 286 286 287 287 287 287 287 287 287 286 286 287 287 286 286 287 287 287 287 289 289 291 290 289 288 288
287 287 287 287 287 286 285 285 284 284 284 284 285 286 287 286 286 286 287 287 287 288 288 288 288 287 286 286 286 286 286 286 286 287 287 288 288 289 290 289 289 289 293
286 286 286 286 287 286 284 284 284 283 283 284 284 285 285 286 287 286 286 287 287 287 287 287 287 286 287 287 287 287 286 287 287 288 287 287 288 289 290 290 290 290 294
286 285 285 286 286 283 283 283 283 284 284 284 284 285 285 286 286 286 286 287 287 287 287 287 287 286 286 287 287 288 288 289 289 289 288 288 289 290 290 290 291 293 294
285 285 286 286 283 282 282 283 283 284 284 284 285 285 286 286 286 286 287 288 288 287 287 287 287 286 287 287 287 288 288 289 289 289 289 289 290 290 291 291 292 294 295
285 285 286 285 282 282 282 283 284 284 284 285 286 286 286 286 286 287 287 287 287 287 286 286 286 286 287 287 288 288 289 289 289 289 289 289 290 290 292 293 293 296 296

GFSGL_sfc_thetae_093.txt.gz
Theta_e
308 309 308 307 307 307 306 306 305 305 304 303 302 301 301 301 300 299 299 299 298 298 299 298 298 298 298 298 298 298 297 296 292 294 297 298 298 298 299 300 301 300 301
307 307 306 306 305 305 304 304 304 303 302 301 301 300 299 299 299 298 298 298 297 297 297 297 297 297 297 297 297 296 296 296 294 292 296 296 296 298 298 299 299 300 300
306 305 304 304 304 303 303 302 302 301 300 300 299 298 298 299 298 298 298 297 297 296 296 296 296 296 295 296 296 295 296 296 296 294 293 296 296 298 297 299 298 299 300
304 303 303 303 303 302 302 301 300 300 299 299 299 299 299 298 298 298 297 297 296 296 297 298 297 296 296 295 295 295 295 295 295 294 294 295 295 297 297 296 295 298 297
302 302 302 302 301 301 300 300 300 299 299 299 298 298 298 298 298 297 297 296 296 296 296 296 296 298 300 300 296 297 296 295 293 292 291 292 293 293 293 294 294 296 297
301 300 301 300 300 300 300 299 299 299 299 299 298 298 298 297 300 299 298 296 296 294 294 295 297 298 298 301 301 301 299 295 294 293 292 290 291 293 294 294 294 293 290
300 300 299 299 299 299 299 299 299 298 299 298 298 298 297 297 299 299 299 295 294 295 295 295 294 295 297 296 298 300 299 300 300 297 294 294 294 295 296 294 294 294 293
299 298 299 298 298 299 298 298 298 298 298 297 297 297 296 296 299 298 296 294 294 294 294 295 295 295 296 296 296 295 296 297 297 297 297 297 298 298 298 297 296 296 297
298 298 298 298 298 298 297 298 298 297 297 297 296 296 295 295 296 296 295 293 293 294 295 296 295 295 298 299 296 295 295 296 300 301 302 302 303 302 301 298 294 292 291
298 298 299 298 298 297 298 297 297 297 296 296 295 295 295 292 295 296 295 293 292 293 294 295 297 296 299 299 295 295 293 294 296 296 296 297 299 298 300 297 295 291 291
298 298 298 298 298 298 297 297 297 296 295 294 294 293 292 293 293 295 296 293 293 293 293 294 296 298 298 298 298 295 293 294 296 295 294 294 295 296 296 296 296 293 291
298 298 298 298 297 297 296 296 295 295 293 292 291 291 292 292 294 295 295 296 295 293 293 295 296 297 297 298 297 297 297 296 293 292 291 291 292 293 293 294 294 295 296
298 297 297 297 296 296 295 294 293 293 290 289 289 289 290 292 292 293 294 295 296 294 295 296 297 297 296 295 295 295 295 292 290 289 288 290 291 290 291 292 292 293 294
296 296 296 295 295 295 294 293 291 289 289 289 288 289 289 289 290 291 292 293 295 295 295 294 294 294 294 293 292 291 291 290 289 288 288 289 289 289 288 289 288 289 290
296 295 294 294 293 292 291 291 290 290 290 288 289 289 287 287 289 292 292 292 292 293 292 291 289 289 288 288 289 290 291 290 289 289 288 287 287 287 287 288 288 288 287
293 293 293 292 291 290 289 289 292 292 291 291 291 290 289 291 292 293 293 293 294 293 289 287 287 287 287 288 288 288 289 289 289 289 289 287 286 286 286 287 288 288 288
292 292 291 290 289 289 289 288 286 288 290 290 291 291 290 291 291 292 292 293 292 291 286 286 286 287 287 287 287 287 287 288 289 289 288 288 287 286 286 286 287 289 288
292 292 290 289 289 289 288 288 286 285 284 285 288 289 289 290 290 291 292 290 287 287 286 285 286 287 287 287 287 287 287 287 288 288 288 288 287 287 286 286 288 287 287
292 290 288 289 289 289 288 286 285 285 284 284 285 287 288 290 291 290 290 286 285 285 286 286 287 287 287 287 287 287 287 287 287 287 288 288 288 288 287 287 288 289 289
290 289 288 288 288 288 286 285 285 285 285 285 284 285 287 288 286 286 287 287 286 286 286 286 287 287 287 287 287 286 286 286 286 287 287 287 287 287 287 288 289 288 287
289 288 288 288 287 287 286 286 284 284 283 284 284 286 288 285 285 286 286 286 286 286 286 286 286 286 287 287 286 286 286 286 286 287 287 287 287 287 288 289 290 289 288
288 287 287 287 287 287 286 284 284 283 283 283 284 285 287 285 286 286 286 287 287 287 287 286 286 286 286 286 286 286 285 285 286 287 287 287 287 288 288 288 289 290 290
287 286 286 287 287 286 283 283 283 283 284 284 284 284 285 285 286 286 286 287 288 288 288 287 287 286 287 287 287 287 286 286 287 287 287 287 287 287 287 288 289 290 290
286 286 286 287 286 283 283 282 283 284 284 284 285 285 285 286 286 286 287 287 288 288 288 288 288 287 287 287 287 288 287 288 288 288 288 287 287 287 289 289 290 290 291
286 286 286 286 284 282 282 283 284 284 284 284 285 285 286 286 286 286 287 287 287 287 287 287 287 287 287 287 287 288 288 288 289 289 289 288 287 287 289 290 291 292 292
286 286 286 286 283 282 283 283 284 284 284 285 285 285 285 285 286 286 286 287 287 286 286 286 286 286 287 287 288 288 289 289 289 290 289 288 287 288 290 290 291 291 293

GFSGL_sfc_thetae_096.txt.gz
Theta_e
307 305 305 305 305 303 300 300 299 299 298 298 297 297 296 295 294 293 292 293 292 291 292 292 292 292 291 291 291 291 290 289 288 291 290 291 291 291 293 294 296 294 295
305 303 302 301 300 298 298 298 298 297 297 296 296 295 294 294 293 292 292 292 291 291 291 291 291 295 290 290 290 289 289 290 289 288 290 290 290 291 291 292 296 298 295
302 301 299 298 297 296 296 296 296 295 294 295 295 294 294 294 293 293 292 292 291 291 291 290 291 291 290 290 290 289 289 292 289 289 289 290 290 291 291 293 294 297 299
299 298 297 296 296 295 295 295 295 294 293 292 293 293 294 294 294 294 293 292 291 292 293 293 292 292 290 289 290 289 291 290 290 290 290 290 290 293 292 292 292 293 294
297 297 295 296 295 295 294 294 294 293 293 293 293 293 293 294 295 292 292 291 291 291 293 293 293 295 300 299 296 293 292 293 293 293 292 292 292 292 291 293 293 294 295
296 295 296 296 295 295 294 294 294 293 293 293 293 293 292 295 300 301 299 292 294 292 290 291 291 296 295 299 300 300 299 294 293 293 292 291 292 292 294 293 292 290 288
294 295 295 295 294 294 294 294 293 292 292 292 292 292 291 292 300 300 301 295 290 289 289 290 291 293 295 293 297 299 299 300 299 295 293 294 292 293 294 292 292 292 291
293 294 294 294 294 294 293 292 292 291 291 291 291 291 291 293 299 300 299 290 289 290 292 291 291 292 292 294 293 293 293 293 294 295 294 293 293 294 295 295 295 295 296
293 293 294 294 293 293 292 291 292 291 290 291 291 290 290 289 297 297 295 291 292 292 293 292 291 292 296 299 295 294 292 293 298 301 301 301 302 302 301 298 294 293 291
293 294 294 294 293 292 291 291 291 291 291 292 291 290 294 288 295 296 295 292 291 290 292 292 296 295 299 299 295 293 290 291 294 293 294 297 298 296 300 296 294 290 289
295 294 294 293 292 292 291 291 290 290 290 289 290 289 287 288 288 295 296 293 291 290 290 291 292 297 298 299 299 294 294 295 295 294 294 294 293 294 294 295 295 292 290
294 294 293 292 293 293 290 290 290 289 288 288 285 285 287 287 294 294 295 295 295 292 292 292 292 297 298 298 297 297 298 297 292 291 290 289 289 290 292 293 294 293 293
293 292 291 292 291 291 289 288 288 287 285 285 285 285 286 289 290 293 294 294 295 292 293 294 296 296 296 294 295 296 295 290 288 287 286 287 288 291 290 289 291 292 292
291 290 290 289 290 289 289 288 285 284 284 286 286 286 287 288 288 289 289 290 293 293 293 293 293 293 293 292 291 290 289 288 288 287 287 287 287 287 287 288 288 289 288
290 290 289 289 288 286 286 285 286 285 288 288 287 287 287 286 288 292 292 290 290 292 294 289 288 287 287 286 287 288 288 287 288 287 287 287 286 287 287 288 287 287 286
289 288 288 287 286 285 284 284 292 292 292 291 291 290 289 291 292 293 293 293 293 294 289 286 285 286 285 286 286 286 286 287 287 286 287 287 287 286 286 286 287 286 286
287 288 287 287 285 284 284 283 282 287 290 290 290 291 290 290 291 291 292 293 292 291 285 284 284 285 285 286 286 286 285 286 287 286 286 287 287 287 286 286 286 286 286
290 292 284 284 284 284 283 283 285 284 283 284 288 289 289 290 291 291 292 290 285 286 285 285 285 286 286 286 286 286 286 285 285 286 286 287 287 287 286 285 286 286 286
289 285 284 284 284 285 283 282 285 285 284 283 284 286 287 289 290 291 290 284 284 285 285 285 286 286 286 286 286 286 286 285 286 286 287 287 287 287 286 287 287 288 289
286 289 288 283 283 284 283 285 284 283 282 282 282 283 284 285 284 283 285 285 285 286 285 285 286 286 286 286 286 286 286 285 285 286 286 286 287 286 286 286 286 287 288
284 284 288 283 283 283 285 284 283 282 282 282 283 285 288 284 283 283 284 285 285 286 285 285 285 286 286 286 286 286 285 285 285 286 286 286 287 286 287 287 288 288 288
283 282 283 283 284 285 284 283 282 282 282 282 283 284 287 284 283 284 284 285 286 286 287 287 286 286 286 286 286 285 285 285 286 286 286 286 286 286 286 287 287 287 288
282 282 282 283 284 284 282 282 282 282 282 283 282 283 283 284 284 285 285 285 286 286 287 287 287 286 287 287 287 287 285 285 286 287 286 286 286 286 286 286 287 287 288
282 282 282 282 282 282 281 281 282 283 283 283 282 283 283 283 284 284 285 285 286 286 287 287 287 287 287 287 287 288 287 287 288 288 288 287 286 287 286 286 287 287 289
282 282 282 281 280 281 281 280 281 282 283 283 283 284 284 284 284 285 285 286 286 286 286 286 286 286 286 286 287 287 288 288 288 288 288 288 287 287 286 286 287 288 289
282 282 282 281 282 282 281 280 281 283 283 284 284 284 284 284 284 285 285 286 286 286 286 286 286 286 286 287 287 288 288 289 289 289 289 288 287 287 287 287 288 289 290

GFSGL_sfc_thetae_099.txt.gz
Theta_e
306 306 305 303 303 301 301 300 300 299 297 296 296 295 295 294 292 291 290 290 290 289 289 289 290 289 289 289 289 289 288 287 287 289 288 289 289 290 292 292 294 292 294
303 301 301 301 298 300 298 297 297 295 295 295 294 294 293 293 291 291 290 290 289 289 289 289 289 293 289 288 288 288 288 288 287 287 288 287 288 289 290 289 294 296 294
301 297 297 297 296 294 293 293 293 293 293 293 293 293 292 292 292 291 291 291 290 289 289 289 289 289 288 288 288 288 288 291 287 285 287 287 288 288 289 291 292 292 296
297 297 295 293 293 292 293 292 293 292 291 291 291 292 293 292 292 292 291 290 289 290 291 291 291 290 288 287 288 288 289 288 287 287 288 288 289 291 290 289 290 292 293
294 293 293 293 293 293 293 292 292 292 292 292 291 292 292 292 293 291 291 290 289 289 291 291 292 293 299 298 294 293 294 292 289 290 292 291 292 291 291 291 292 293 294
293 293 294 294 294 293 293 292 292 291 291 291 291 291 290 294 300 301 300 291 292 294 293 289 289 295 294 299 299 300 298 294 293 292 292 291 292 293 294 292 292 291 288
293 293 293 293 293 292 292 291 291 290 289 289 289 290 289 290 300 301 301 295 292 289 287 288 289 292 294 292 296 299 298 299 299 295 293 291 292 293 293 291 292 291 290
291 292 292 292 292 291 291 290 290 289 289 289 289 289 289 291 299 299 299 290 287 288 290 291 291 290 291 293 292 292 294 294 293 294 293 293 293 293 293 293 292 293 294
291 291 291 291 291 291 290 289 289 289 289 289 289 289 288 288 298 297 294 289 290 291 292 292 291 290 295 299 294 294 294 294 298 300 300 301 301 301 300 297 294 292 290
291 292 292 292 291 290 289 289 289 289 289 290 289 289 292 286 293 296 294 289 288 291 292 290 295 294 298 299 294 293 292 292 293 294 294 294 297 296 299 296 294 291 291
293 293 292 291 291 290 289 288 288 288 288 287 287 285 285 288 287 295 296 292 291 290 290 291 293 296 297 298 299 295 294 296 296 294 292 292 293 293 293 294 293 292 290
293 292 291 289 291 291 287 287 287 286 284 283 283 284 285 286 292 294 294 294 294 290 290 291 290 296 298 297 296 296 296 296 291 288 287 287 288 287 289 291 293 293 294
291 289 289 289 288 288 286 285 284 283 283 283 284 283 284 287 287 293 293 293 294 291 291 293 295 296 297 293 293 294 294 289 287 284 283 284 285 286 289 288 289 290 291
288 287 287 287 287 286 285 285 283 283 283 285 285 285 287 286 288 289 289 290 293 292 292 290 293 294 293 291 290 289 288 287 286 286 286 287 286 285 285 288 287 288 287
287 286 286 286 285 284 284 284 285 284 288 287 286 287 286 285 287 291 291 290 290 291 293 290 287 286 286 286 287 288 288 288 286 285 284 285 285 285 287 288 287 287 285
286 286 286 285 283 283 283 283 290 291 291 291 291 289 288 291 292 292 293 293 293 294 288 284 284 285 285 285 286 286 287 287 285 285 284 284 284 286 287 287 287 286 285
285 286 283 284 283 282 282 281 280 284 289 289 290 290 290 290 291 291 291 292 293 290 284 284 284 284 285 285 286 286 285 286 286 285 284 284 285 285 287 287 286 286 285
286 290 282 282 282 281 281 281 281 282 283 284 286 287 288 289 289 290 290 289 283 285 284 285 284 284 285 285 286 286 286 286 284 284 284 284 285 285 286 286 286 285 285
285 283 283 282 282 284 282 281 284 284 282 282 282 284 286 288 289 290 289 283 283 283 284 285 285 285 285 285 285 286 286 286 286 285 286 285 286 286 286 286 286 287 287
283 288 287 282 282 282 282 284 283 282 281 281 282 282 284 285 283 282 283 284 284 284 284 285 285 285 285 285 286 286 285 286 285 285 284 285 286 286 286 285 285 285 286
282 282 287 281 282 282 281 280 282 281 281 281 281 283 288 284 282 282 283 284 284 284 285 285 285 285 286 286 286 286 285 285 285 285 285 285 286 285 286 286 286 287 287
281 281 281 282 283 282 280 282 282 281 281 282 281 282 287 283 283 283 284 284 285 286 286 286 286 286 286 286 286 285 285 285 285 285 285 286 286 286 286 286 286 286 286
280 281 281 282 282 282 280 279 279 280 282 281 281 282 282 283 283 283 284 285 285 285 286 286 286 286 287 287 287 287 286 285 286 287 285 285 286 286 286 285 285 285 285
281 280 281 280 281 279 278 278 279 281 282 282 282 283 283 284 284 284 285 285 286 286 287 286 286 286 286 287 287 288 287 287 288 287 287 286 286 286 286 286 285 286 286
281 280 280 279 279 278 279 281 281 282 282 282 283 283 284 284 284 284 285 285 286 286 286 286 287 286 286 286 287 287 288 288 288 288 288 287 286 286 286 286 286 286 287
281 280 280 280 278 280 283 283 282 283 282 282 283 283 284 284 284 285 286 286 286 286 286 287 287 287 287 287 287 287 288 288 288 289 289 288 287 287 287 286 287 287 287

GFSGL_sfc_thetae_102.txt.gz
Theta_e
307 305 304 303 302 301 300 300 298 299 297 297 296 294 294 292 291 290 289 289 289 288 288 288 288 288 288 288 287 287 287 286 284 287 287 288 287 288 291 291 292 291 292
303 302 301 300 298 299 298 296 298 295 294 294 293 293 292 291 290 290 290 289 289 288 288 288 288 291 287 287 286 286 286 287 285 285 286 286 286 288 288 288 292 295 292
299 298 297 296 296 293 294 294 293 292 292 292 292 291 291 291 290 290 290 290 289 288 288 288 288 289 288 287 287 286 287 289 286 284 285 286 286 287 288 289 290 291 295
296 295 293 293 293 291 291 291 291 290 290 289 290 291 292 291 291 291 290 289 288 289 290 290 290 289 288 287 288 287 287 285 287 289 291 289 287 289 290 289 289 290 291
293 292 291 291 291 291 291 291 291 291 290 291 290 290 290 291 292 290 290 289 289 288 290 290 291 293 298 297 293 289 288 288 288 287 289 291 291 291 291 292 292 293 294
292 291 292 292 292 291 291 291 290 290 289 290 289 289 289 293 299 301 300 291 291 290 290 292 290 294 292 297 298 299 297 293 292 292 292 291 291 292 293 292 292 291 288
291 291 292 292 291 291 290 290 289 288 288 288 288 289 288 289 299 300 301 293 291 288 288 287 288 291 293 289 294 298 297 299 299 294 293 292 291 290 290 290 290 291 291
290 290 291 291 290 290 290 289 288 288 288 288 288 288 287 289 298 299 299 288 287 287 287 287 288 290 289 291 291 290 291 292 294 295 293 292 291 292 291 294 294 294 294
290 290 290 290 290 290 289 288 288 288 288 288 288 287 286 286 296 297 294 288 288 287 289 290 291 288 294 298 293 293 294 293 298 300 301 301 301 301 300 296 293 292 290
290 290 290 290 290 289 288 288 288 287 288 288 287 285 289 285 292 295 294 289 286 288 289 290 294 293 297 298 294 293 289 292 294 293 294 295 297 296 298 294 292 289 290
291 291 291 290 289 288 287 287 286 286 286 283 284 284 284 286 286 293 295 290 289 289 288 289 291 295 296 297 298 295 293 293 294 293 290 289 290 291 292 293 293 292 288
291 290 289 288 289 289 286 285 285 283 282 281 282 283 284 284 291 292 294 294 293 290 289 290 289 295 296 297 296 297 296 295 291 289 288 287 285 286 286 287 289 292 293
288 287 286 287 286 286 284 283 282 282 282 283 283 282 283 285 285 293 293 293 294 291 291 292 295 295 296 295 294 295 294 288 286 285 284 283 283 285 285 285 287 288 288
286 285 285 285 285 283 284 284 282 282 283 284 285 285 284 285 285 286 287 289 292 292 292 289 293 292 291 291 289 289 288 288 287 286 286 285 285 284 283 285 285 285 287
285 285 285 284 282 282 283 283 284 284 286 284 284 286 286 285 285 290 291 289 290 291 292 290 284 284 284 285 286 287 288 288 287 286 285 283 284 284 284 286 287 287 285
285 285 284 282 281 281 281 281 288 289 290 290 290 289 288 290 291 292 291 292 292 293 289 282 282 282 282 284 285 285 286 287 287 286 285 284 283 283 284 286 287 286 285
284 284 282 283 281 280 280 281 279 283 288 288 289 289 289 289 290 290 291 291 291 289 281 281 281 282 283 284 285 285 285 286 288 286 285 284 283 284 285 285 287 286 285
284 288 281 281 281 281 281 281 280 281 280 280 285 287 288 289 289 290 290 289 282 283 282 281 283 284 285 284 284 285 285 285 286 286 285 284 284 284 284 283 285 285 285
283 282 281 281 281 283 281 281 281 280 280 280 280 283 285 288 290 290 289 282 280 281 283 284 284 284 285 285 284 285 285 285 286 285 286 285 284 284 284 285 286 287 287
281 287 286 281 281 282 281 280 279 279 279 279 279 280 282 285 283 282 283 282 283 283 284 284 284 285 285 285 285 285 285 285 285 285 285 284 285 285 285 285 285 285 285
280 281 286 281 281 281 280 278 279 279 279 279 280 282 288 285 282 281 282 283 283 284 284 284 285 285 285 286 286 285 285 285 285 285 285 284 285 285 286 286 286 286 286
280 280 281 281 281 281 279 279 279 279 279 279 281 282 286 283 282 283 283 284 284 285 285 285 285 285 285 285 285 285 285 285 285 286 285 285 285 285 286 286 286 285 285
280 280 281 280 281 281 279 279 278 278 280 282 282 283 283 283 283 284 284 284 285 285 286 286 286 286 287 286 287 286 285 285 286 287 286 285 285 285 286 285 285 285 285
280 280 280 279 280 279 279 282 280 281 283 282 281 282 283 283 284 284 285 285 285 286 287 287 287 286 286 286 287 287 287 288 288 288 288 286 286 286 286 286 286 286 285
280 280 280 279 278 277 280 282 282 282 282 282 282 283 283 284 284 284 285 286 286 286 286 286 287 287 287 286 287 287 288 288 288 288 288 287 286 286 286 286 286 286 286
280 280 280 279 278 278 279 283 282 281 281 283 283 283 284 284 284 285 286 286 286 286 286 287 288 288 288 288 288 288 288 288 288 288 288 287 286 286 287 286 286 286 286

GFSGL_sfc_thetae_105.txt.gz
Theta_e
305 304 303 302 302 301 301 300 298 297 296 297 296 295 293 291 290 289 289 289 288 288 287 287 288 287 287 286 286 286 285 284 282 285 286 287 286 287 289 289 291 290 291
302 301 300 299 299 296 296 297 296 294 295 295 293 292 291 290 289 289 289 289 288 288 288 287 288 291 286 286 286 286 285 285 284 284 285 285 285 287 287 287 290 293 291
299 298 297 295 294 295 293 293 293 292 291 291 291 291 290 290 290 289 289 289 288 288 288 287 287 288 287 287 287 286 286 288 285 283 284 285 285 286 286 288 289 290 293
295 294 293 291 290 290 290 290 290 289 289 289 289 290 290 290 290 290 289 288 288 288 288 288 288 288 288 287 287 287 287 285 285 284 284 286 286 289 288 288 289 288 290
292 291 290 290 290 290 290 290 290 290 289 289 289 289 289 290 291 289 289 288 288 288 288 289 289 292 298 297 294 288 287 288 286 285 289 291 290 291 291 290 290 292 292
290 290 291 291 291 290 290 289 289 289 289 289 288 288 288 292 299 300 299 291 290 289 289 289 289 295 293 297 297 298 296 292 291 291 291 291 291 291 292 291 291 290 288
290 290 291 291 290 289 289 289 289 288 287 287 288 288 288 288 298 300 300 292 290 288 286 286 287 290 293 289 293 297 296 298 298 294 291 292 292 292 293 290 288 291 290
289 289 290 289 289 289 289 288 287 287 287 287 287 287 286 288 297 299 299 287 286 287 287 287 286 287 287 290 289 288 289 290 291 293 293 293 294 293 291 291 290 293 294
289 288 289 289 289 289 288 287 287 287 286 286 287 286 285 285 295 296 295 288 287 286 287 288 288 288 294 297 293 292 293 293 298 300 299 300 301 301 300 295 292 291 288
289 289 289 289 289 288 287 287 286 286 287 287 286 283 288 284 291 294 293 288 286 286 287 288 294 293 297 297 293 292 290 290 293 293 293 295 297 295 298 293 290 287 287
290 290 289 288 287 287 286 285 285 285 284 282 283 283 283 285 285 293 294 289 288 289 289 289 289 295 295 296 296 293 293 295 294 294 292 291 291 290 290 290 290 289 288
289 288 287 286 288 287 284 283 283 282 281 281 281 282 284 284 290 292 294 294 294 290 289 288 290 295 296 297 297 297 297 296 290 288 288 288 288 287 287 287 287 287 289
286 285 285 286 285 284 282 281 281 281 281 282 282 282 282 284 284 292 293 293 294 291 291 292 295 295 295 293 292 294 294 288 286 285 285 285 286 286 285 284 286 286 286
285 284 284 283 283 282 283 283 282 282 282 283 283 283 283 285 286 285 286 286 291 291 292 289 292 294 294 291 288 288 287 287 287 286 286 288 288 286 284 284 283 284 284
284 284 283 282 281 281 281 281 283 283 284 284 283 285 285 284 285 290 290 289 289 290 291 290 288 286 284 283 283 285 286 287 286 287 286 286 286 285 284 285 284 285 285
284 283 283 281 280 280 280 281 287 289 290 290 290 288 286 289 291 291 291 291 292 293 288 284 282 281 280 281 283 284 285 285 286 286 286 286 285 284 284 284 284 285 285
282 282 281 282 280 280 280 280 279 282 287 287 288 288 289 289 290 290 291 292 292 289 281 281 280 281 282 283 283 284 283 285 286 286 286 286 286 285 284 284 284 286 286
282 288 280 280 280 280 281 280 280 279 278 279 284 286 288 289 289 290 290 289 282 283 281 280 281 283 283 283 284 284 284 284 285 285 286 286 285 284 284 284 283 283 284
281 281 280 280 280 283 281 280 279 279 278 279 280 283 285 288 289 289 288 281 280 281 282 282 283 284 284 284 284 285 285 284 285 285 285 285 285 285 284 283 284 286 287
281 286 284 280 281 280 280 279 278 278 278 278 279 279 282 285 283 282 283 283 282 283 283 283 284 284 284 285 285 285 285 285 285 285 285 285 285 284 283 284 285 285 285
280 281 285 281 280 280 279 278 278 278 278 279 280 282 287 284 282 282 282 283 283 283 283 284 284 284 285 285 285 285 285 285 285 285 285 286 285 284 284 285 285 286 286
280 280 281 281 281 280 280 279 278 278 279 281 282 283 286 283 283 283 283 284 284 285 285 285 285 285 286 285 285 285 285 285 285 286 286 286 286 285 285 285 285 285 285
280 280 280 279 281 282 279 280 281 279 280 281 281 282 282 283 283 283 284 284 285 286 286 286 286 286 287 287 287 286 285 285 286 287 286 286 286 285 285 285 285 285 285
280 280 280 279 280 279 278 282 280 281 281 282 282 282 283 283 284 284 285 286 286 287 287 287 287 287 287 287 287 287 288 287 288 288 288 287 286 286 286 285 285 285 285
280 280 280 279 278 276 278 282 282 282 282 283 283 283 283 284 284 285 286 286 287 287 287 287 288 288 289 288 288 288 288 288 288 288 288 287 286 286 285 285 285 285 286
280 280 280 279 278 278 281 282 282 282 282 282 282 283 284 284 284 285 286 286 286 287 287 288 288 289 290 290 289 290 290 289 288 288 288 287 286 285 286 286 286 286 286

GFSGL_sfc_thetae_108.txt.gz
Theta_e
308 310 307 308 305 304 302 301 299 298 297 296 296 294 293 293 292 290 289 289 288 287 287 287 287 287 286 286 285 285 284 284 282 284 285 287 286 287 289 289 291 290 290
301 300 299 299 298 296 296 295 296 296 295 294 293 292 291 290 289 289 289 289 288 287 287 287 287 290 286 285 286 285 285 285 284 282 284 285 285 287 287 286 290 293 291
298 297 296 295 295 292 291 291 292 291 291 291 291 290 290 290 289 289 289 288 288 287 287 286 287 286 286 286 286 286 285 288 284 283 284 284 285 285 286 287 288 290 293
294 293 291 290 290 289 289 289 289 289 289 289 289 289 290 289 289 289 288 287 287 287 288 287 287 287 287 287 287 286 287 285 285 283 283 284 285 288 287 288 288 289 289
291 290 289 290 290 290 290 289 289 289 289 289 289 289 289 289 291 288 288 287 287 287 288 288 288 291 297 294 292 289 287 285 286 286 287 289 290 290 291 290 290 291 292
290 290 290 290 290 289 289 289 289 288 288 288 288 288 288 291 299 300 297 290 290 289 288 289 289 295 295 300 299 299 296 290 290 290 291 290 291 291 292 291 291 290 288
289 289 289 289 289 288 289 288 288 287 287 287 287 287 287 287 298 300 300 292 289 288 287 286 286 289 293 288 293 297 296 298 297 293 290 291 291 293 292 291 291 290 289
288 288 289 289 288 288 288 287 287 286 286 286 286 286 286 288 297 298 298 288 286 286 286 286 285 286 287 289 288 288 289 289 290 291 291 291 291 293 292 292 291 291 292
288 288 288 288 288 288 287 286 286 286 285 285 286 285 284 284 294 295 294 287 287 286 287 287 286 286 293 296 292 290 291 292 297 300 300 300 300 301 300 295 291 290 289
288 288 288 288 287 287 286 285 285 284 286 286 284 282 287 283 290 294 293 287 285 286 286 287 294 293 296 296 292 291 289 289 289 290 293 294 297 295 298 294 293 289 289
289 288 287 287 286 285 284 284 283 283 282 281 281 282 282 284 285 293 294 289 288 288 289 289 288 294 295 296 296 292 291 292 295 295 293 292 293 292 292 292 290 289 288
287 286 285 284 286 285 282 281 281 281 280 280 281 282 283 283 289 291 293 294 293 289 289 290 290 294 295 297 297 296 296 295 290 287 286 287 288 288 289 289 289 288 289
285 284 284 284 283 282 281 281 281 281 281 281 282 281 283 283 283 292 292 293 293 291 291 292 294 294 295 294 294 295 294 285 284 282 283 284 286 287 288 287 287 287 286
284 283 282 282 281 281 281 281 281 281 280 282 282 282 282 284 286 284 285 285 291 291 291 288 291 294 293 291 289 287 285 284 284 285 286 287 289 287 286 287 285 285 284
283 283 281 281 279 279 280 280 282 282 284 284 283 283 282 282 285 290 290 289 289 290 292 290 287 285 282 283 283 283 284 285 285 285 285 286 286 286 285 286 285 284 283
282 281 282 280 279 279 280 280 287 289 289 288 288 287 285 289 290 291 291 292 293 293 287 282 281 281 281 281 282 283 285 285 285 285 285 286 285 285 285 285 285 283 283
282 281 280 281 280 279 280 280 278 281 286 287 288 288 289 289 290 290 291 292 290 288 281 281 281 281 281 282 283 283 284 285 285 285 284 285 285 286 286 285 284 284 284
281 287 280 279 279 280 280 279 278 278 277 279 284 286 288 289 290 291 290 288 282 283 282 281 281 282 282 283 283 283 283 284 284 285 284 284 285 285 284 284 284 283 283
281 280 280 279 281 282 280 279 278 278 278 278 280 282 285 288 290 289 288 282 281 281 282 282 283 283 283 283 284 284 284 284 285 284 284 284 285 285 284 284 284 285 285
280 287 283 281 280 280 279 278 278 278 278 278 280 281 283 286 282 282 283 282 283 283 283 283 283 284 284 284 284 284 284 284 285 285 285 285 285 285 284 283 283 283 284
280 281 285 280 280 279 279 278 278 277 278 279 282 283 288 284 282 282 283 283 283 283 284 284 285 285 285 285 285 285 285 285 285 285 285 286 286 285 285 284 284 284 285
279 280 281 280 280 281 280 279 278 278 279 281 281 283 286 283 283 283 283 284 285 286 286 286 286 286 286 286 286 285 285 285 285 286 286 287 286 286 285 284 283 284 285
280 280 280 279 281 282 279 279 279 279 281 282 282 282 282 283 283 284 284 286 286 286 287 287 287 287 288 288 288 287 285 285 286 287 287 287 286 286 285 284 284 284 284
280 280 279 279 280 279 278 279 282 282 282 282 283 282 282 283 283 284 285 286 287 287 288 288 288 287 288 289 289 288 288 288 288 288 288 287 286 286 286 285 285 285 285
280 279 279 279 278 276 278 282 282 282 282 282 282 282 282 283 283 284 286 286 287 287 287 288 288 289 289 289 290 290 289 289 288 288 287 286 286 286 285 285 285 285 285
280 280 280 279 278 277 278 281 281 281 282 282 282 282 283 283 284 285 286 286 286 287 287 288 288 289 290 291 291 291 292 291 290 290 288 287 286 285 285 285 285 285 285

GFSGL_sfc_thetae_111.txt.gz
Theta_e
312 315 313 311 309 308 306 305 304 303 303 301 300 299 299 299 299 299 298 297 297 297 296 296 296 296 296 296 296 296 295 294 291 294 295 297 296 297 297 299 299 299 299
302 302 301 300 298 298 297 298 300 298 298 298 298 298 297 297 297 297 296 296 296 295 296 296 296 295 296 296 295 295 295 295 293 292 295 295 295 296 297 297 296 298 299
298 297 296 296 296 295 295 296 297 297 297 297 297 296 295 295 295 296 296 295 296 296 296 295 296 295 295 295 295 295 296 295 294 292 293 295 294 295 295 297 297 298 298
296 295 294 294 294 294 294 294 294 295 295 295 295 295 295 295 295 295 295 295 295 295 295 295 295 295 295 296 295 295 295 295 295 293 293 293 294 295 296 294 294 297 297
294 294 293 294 295 295 295 295 295 295 295 295 295 295 295 295 296 296 296 295 295 296 296 296 296 296 298 298 295 296 294 292 293 294 293 293 293 293 293 294 293 294 296
294 294 294 295 295 294 294 294 295 294 294 295 295 295 295 295 299 300 300 298 298 297 297 297 297 297 299 301 301 301 299 296 295 294 293 292 292 295 295 294 293 291 290
294 294 294 294 294 294 294 294 294 294 294 294 294 294 294 294 298 299 300 297 295 294 294 293 293 293 295 295 296 297 297 298 298 296 293 293 294 295 296 295 294 293 291
293 293 294 294 293 293 294 293 293 294 294 294 294 293 293 293 296 298 298 295 294 293 293 293 293 293 294 294 294 294 294 295 295 295 295 295 296 296 296 296 296 295 294
292 293 293 294 293 293 293 293 293 293 293 292 292 292 291 291 293 295 295 293 292 292 293 293 293 293 295 296 293 292 293 294 298 299 300 300 301 301 300 297 292 291 290
292 292 293 293 293 292 292 292 292 291 291 290 289 289 289 289 291 294 293 292 291 291 292 292 294 294 296 296 293 292 291 292 294 294 295 296 298 297 299 298 296 292 291
292 292 291 291 291 291 290 290 289 289 288 287 288 289 289 290 291 293 294 291 291 290 290 291 292 294 295 295 296 294 294 296 295 293 293 294 294 295 296 297 296 293 290
291 290 289 289 289 288 288 287 287 287 287 288 287 288 289 289 290 291 293 293 293 290 290 291 292 294 295 297 296 297 297 295 290 290 289 289 290 290 292 293 294 294 294
290 289 289 287 287 287 287 287 287 287 287 286 287 287 287 288 289 291 291 292 293 291 292 293 293 294 294 294 293 294 294 290 289 287 287 287 289 290 290 290 291 292 292
288 288 287 288 286 285 286 286 287 287 286 287 286 286 286 286 287 288 289 290 292 292 292 292 293 294 292 291 289 289 288 288 287 286 287 288 289 288 287 288 288 289 288
288 286 286 285 285 285 285 286 287 288 288 286 286 286 285 285 287 290 291 290 291 292 292 289 287 286 286 286 286 286 287 287 287 287 286 286 287 287 287 288 288 287 286
287 286 287 285 285 285 285 285 286 287 288 288 289 288 288 289 291 291 292 293 292 291 288 285 284 284 284 284 285 285 286 286 287 287 287 286 286 286 286 287 287 286 285
287 285 286 284 284 285 284 282 282 284 286 286 288 289 289 289 290 291 292 291 290 289 285 284 284 284 284 284 284 284 283 285 287 287 286 286 286 286 286 286 287 287 285
287 287 284 284 285 285 283 283 283 282 281 282 285 287 288 289 290 290 290 288 285 285 284 283 283 284 284 284 285 285 285 286 285 286 286 286 286 286 285 285 286 285 285
285 285 284 285 286 284 283 283 283 282 282 282 283 285 287 290 289 288 288 285 283 284 285 285 285 285 286 286 286 286 286 286 286 286 287 286 286 286 285 286 286 287 286
286 287 285 285 284 283 283 283 282 282 282 282 282 282 285 287 284 284 285 285 285 285 285 285 286 286 286 286 286 286 286 286 286 286 286 287 286 287 285 285 286 285 285
284 286 286 284 283 283 284 283 282 282 282 282 282 284 287 284 283 284 285 285 285 285 286 286 286 286 287 287 287 286 286 286 286 286 286 286 286 286 286 286 286 286 285
284 284 283 283 284 284 284 283 283 282 282 282 283 284 286 284 284 285 285 286 286 287 288 287 287 287 287 287 287 287 286 285 286 287 287 287 287 287 287 286 286 286 285
284 283 283 283 284 283 283 283 283 282 282 283 283 283 284 284 284 285 285 286 287 287 288 288 288 287 289 289 289 288 287 287 287 287 287 286 287 287 287 286 285 285 285
284 283 282 283 284 282 282 283 283 283 282 283 284 284 284 283 284 285 286 287 287 288 288 288 288 288 289 290 291 291 290 289 289 288 288 287 286 287 286 286 286 286 286
283 283 283 283 282 282 282 283 282 282 282 283 283 283 284 284 284 285 286 287 287 287 288 288 289 289 290 290 291 292 292 292 291 289 288 288 287 286 286 286 286 286 286
283 283 283 283 282 282 282 282 282 282 282 282 283 284 284 284 284 285 286 286 286 287 288 289 289 290 291 292 293 292 292 292 293 293 291 288 287 286 286 286 286 286 286

GFSGL_sfc_thetae_114.txt.gz
Theta_e
315 315 312 310 308 308 308 308 309 310 308 307 304 302 301 301 302 303 304 303 303 302 301 301 301 301 301 301 301 300 299 298 295 297 299 300 300 299 300 301 301 302 301
305 303 301 301 300 300 300 301 302 302 304 304 303 303 302 302 303 303 301 300 300 300 300 299 299 298 299 300 300 299 298 298 296 295 297 298 298 300 299 299 299 300 300
302 300 300 299 299 299 300 300 301 302 302 301 302 301 301 300 300 301 301 300 300 299 298 298 298 299 298 299 299 298 299 298 298 296 295 298 298 299 297 298 298 299 300
300 300 299 299 299 299 299 299 300 300 300 300 300 300 299 299 299 299 300 299 299 299 299 299 299 299 298 299 299 299 298 298 298 295 293 294 297 298 298 295 295 297 297
298 299 299 299 300 300 299 299 300 300 300 300 300 300 300 299 300 301 301 300 300 299 300 300 300 301 301 301 299 299 299 297 295 293 293 293 295 295 293 296 295 296 296
300 299 300 300 300 300 300 299 299 299 299 299 299 298 298 298 299 300 300 300 300 300 299 300 300 301 300 301 302 302 301 295 294 295 295 294 295 294 295 294 294 293 290
299 299 300 300 299 299 299 299 298 298 299 298 298 298 297 298 299 300 299 300 299 298 298 297 297 297 297 297 298 299 299 299 299 296 293 293 293 295 295 294 294 294 293
298 298 299 299 298 299 298 298 298 298 298 297 297 297 297 297 296 297 298 298 297 297 296 296 295 295 295 295 295 295 295 296 295 295 295 295 296 296 297 297 295 297 299
298 298 298 298 297 298 298 298 298 298 297 297 296 296 295 295 294 295 295 295 294 294 294 295 294 294 296 297 294 294 294 295 298 300 300 300 301 301 300 297 295 292 289
298 297 298 297 297 297 297 297 297 297 295 295 293 293 292 293 293 294 294 293 292 293 294 293 294 294 296 296 294 293 292 293 294 295 296 297 298 298 299 298 297 292 292
297 297 297 297 296 296 297 296 295 294 293 292 292 292 292 292 293 293 294 292 291 290 290 291 292 294 295 296 296 295 295 297 296 295 294 295 294 295 295 297 297 296 293
297 296 295 295 294 294 294 294 293 292 291 290 290 291 292 292 292 292 293 293 293 290 290 291 292 294 295 296 296 296 296 296 293 291 291 291 291 292 293 294 294 295 296
296 295 294 293 293 293 292 291 291 291 290 290 290 289 289 290 291 291 292 292 293 292 292 293 294 295 296 295 295 295 294 292 290 289 289 289 290 291 292 291 292 292 292
294 294 293 292 291 291 291 291 291 290 289 289 288 288 289 289 290 290 291 292 293 292 293 292 292 292 292 292 291 291 290 290 289 288 288 289 290 290 289 290 289 289 289
293 292 291 290 290 290 290 290 290 290 289 288 289 289 288 287 288 292 292 291 292 292 292 291 289 289 288 288 288 288 289 289 288 288 288 288 287 288 288 290 289 288 286
292 291 290 290 289 290 290 289 287 287 288 288 289 289 289 290 292 292 293 293 292 291 289 287 286 286 286 286 286 286 287 287 288 288 288 287 287 287 287 288 288 287 286
291 290 290 288 289 289 288 287 286 288 287 287 287 288 289 290 291 292 291 291 290 289 286 285 284 284 284 285 285 286 286 286 287 287 287 287 287 287 287 287 287 287 287
291 288 289 289 289 289 288 288 287 286 286 287 288 288 289 290 291 290 289 289 287 287 286 286 286 287 287 287 287 287 288 288 288 288 288 287 288 287 286 286 286 286 287
290 289 289 289 289 287 288 288 287 286 286 287 287 287 288 290 289 289 289 286 285 285 287 287 287 287 287 287 287 287 287 287 287 288 288 288 288 288 287 287 287 287 287
289 288 288 288 287 287 288 288 287 286 286 284 284 284 286 287 285 285 286 287 286 286 287 287 287 288 287 287 287 287 287 287 286 286 287 288 288 288 287 287 287 286 286
290 289 288 287 287 288 288 287 287 286 285 285 285 286 288 285 284 285 286 287 287 287 287 288 288 287 288 288 287 287 287 288 287 287 287 288 288 287 287 287 287 287 287
289 289 287 287 287 287 288 287 287 285 285 285 285 285 286 286 285 285 287 287 288 288 289 288 288 288 288 287 288 288 287 287 288 288 288 287 288 288 287 287 287 287 287
288 287 286 287 287 286 287 287 287 286 286 285 285 284 284 284 285 286 287 287 288 288 289 289 289 289 290 290 291 291 289 288 288 288 288 288 288 288 288 287 287 286 286
288 287 286 287 287 287 287 287 287 285 284 284 284 284 284 284 285 286 287 287 288 288 289 289 289 290 290 291 292 292 293 292 292 290 288 287 287 288 288 287 288 287 287
287 287 286 287 286 287 286 286 285 284 283 284 284 284 284 284 285 286 287 287 287 287 288 289 290 290 291 292 293 293 292 291 292 292 292 289 288 287 287 287 287 287 288
287 287 287 287 287 287 286 285 284 283 283 283 285 284 285 285 285 286 287 287 286 287 288 289 289 291 291 292 292 292 291 292 292 292 293 292 291 288 288 287 287 287 287

GFSGL_sfc_thetae_117.txt.gz
Theta_e
310 313 310 308 308 308 307 309 311 311 310 308 307 306 305 304 303 302 302 301 302 302 302 304 303 302 302 303 303 302 300 299 295 298 299 300 299 300 301 302 302 300 301
304 302 302 302 301 301 301 302 304 306 307 306 305 304 303 303 302 302 303 303 303 302 302 301 300 299 300 301 301 300 299 299 297 295 298 298 298 300 300 299 299 299 299
302 300 301 301 301 301 301 301 302 303 304 305 305 303 303 303 303 302 302 301 301 300 300 298 298 299 298 299 300 299 299 298 299 297 296 298 299 299 298 299 298 299 300
301 300 300 300 300 301 301 302 301 302 301 301 301 301 300 300 300 300 300 299 299 299 299 299 299 299 298 299 298 299 298 298 298 297 296 296 296 297 297 296 295 297 296
300 300 300 300 301 301 301 300 301 301 300 300 300 300 300 300 301 301 301 301 300 299 300 300 300 301 302 302 300 300 299 298 297 296 294 293 294 294 294 295 294 294 297
300 300 300 300 300 300 300 299 299 299 299 299 298 298 298 298 300 300 300 299 299 299 298 299 299 300 300 301 301 302 301 298 297 296 295 294 294 295 296 295 294 292 290
300 300 300 300 299 299 299 299 298 298 299 298 298 298 297 299 299 299 299 298 297 298 297 297 296 297 298 296 298 300 299 300 300 297 294 293 293 294 294 293 294 293 293
300 300 300 299 298 298 298 298 298 298 298 298 297 297 297 297 297 297 297 296 295 296 296 295 295 294 295 295 294 294 294 295 296 295 295 294 294 296 295 295 295 296 297
299 298 298 298 297 298 298 298 298 297 297 296 296 295 294 294 295 295 295 293 293 293 294 295 295 294 296 297 294 293 294 295 298 300 300 300 301 301 300 297 294 293 291
298 298 298 298 297 297 298 297 297 296 295 295 294 294 294 293 295 295 294 293 292 292 293 293 294 294 296 297 293 293 292 293 294 295 296 297 298 298 300 297 296 293 291
298 298 297 298 297 297 297 296 295 294 293 293 292 293 293 294 293 294 294 292 291 290 290 291 292 294 295 296 296 293 293 296 295 294 293 294 295 296 295 296 296 295 292
298 297 296 296 295 295 295 294 293 292 291 291 291 291 293 292 293 293 293 293 293 291 290 291 292 295 296 297 297 297 298 297 294 292 291 291 291 292 293 293 294 295 295
296 296 295 295 294 293 292 291 291 291 291 290 290 289 290 291 292 293 293 294 294 292 293 294 296 296 295 294 295 295 295 291 290 289 288 289 290 291 292 292 292 293 292
295 295 294 293 291 291 291 291 291 290 289 289 289 289 290 290 290 290 291 292 293 293 294 293 293 293 294 292 291 291 290 289 289 288 288 289 290 290 289 290 289 290 289
295 294 293 292 290 290 291 290 290 290 289 287 288 289 288 287 288 292 292 292 292 292 292 290 289 289 288 288 288 288 288 288 288 288 288 288 288 289 288 290 289 288 287
293 292 292 290 290 290 290 289 289 288 288 288 289 289 289 290 292 293 293 292 292 291 289 287 286 285 285 285 285 285 286 287 287 287 287 287 287 287 287 288 288 288 287
293 292 290 290 289 289 289 288 287 289 289 288 288 288 289 290 292 292 291 291 291 290 286 285 285 286 286 287 287 287 287 288 289 288 288 287 287 287 287 287 287 287 287
293 292 290 290 290 289 288 288 288 287 286 288 289 288 289 290 292 290 290 289 286 287 286 287 287 287 288 287 288 287 287 288 287 287 287 288 288 287 287 286 287 286 286
291 289 290 290 290 288 288 288 288 287 287 287 287 288 288 290 290 289 289 286 286 286 287 287 288 288 288 288 288 288 288 287 288 287 287 287 287 287 286 287 287 288 287
291 291 290 290 288 287 288 288 287 287 287 286 286 285 286 288 285 285 286 286 286 287 287 287 288 288 288 288 288 288 287 287 287 287 287 287 287 287 287 287 287 286 286
290 289 289 289 288 288 288 287 287 287 286 286 286 286 288 286 284 285 286 287 287 287 287 287 288 288 288 288 288 288 288 288 288 287 288 288 288 287 287 288 287 287 287
291 289 288 288 288 288 288 287 287 286 286 286 286 286 287 285 285 285 286 288 288 288 289 288 288 288 289 289 289 288 288 289 289 289 288 287 288 288 288 287 287 286 286
290 289 287 288 288 287 286 287 287 287 286 286 285 284 285 284 284 285 286 288 288 288 289 289 288 289 289 291 291 291 290 290 290 290 289 288 287 287 287 286 287 287 286
289 288 287 288 288 287 287 287 287 285 285 285 285 284 284 284 284 285 287 288 288 288 288 289 289 289 290 291 292 293 293 293 291 291 291 290 289 288 287 287 287 287 287
289 288 288 288 287 287 286 286 286 285 285 285 285 284 284 285 285 285 287 288 288 287 287 288 289 289 290 290 291 292 292 291 291 291 291 291 290 289 289 288 287 287 287
289 288 288 288 288 287 287 286 285 284 283 285 285 284 285 285 285 286 286 287 287 287 287 288 288 289 290 290 291 291 291 291 291 292 291 291 290 290 290 290 289 287 287